[[{"header":{"parameterUnit":"m.s-1","parameterCategory":1,"la1":30.6,"la2":28.766,"lo1":-90.7593,"lo2":-88.6598,"dy":0.0162,"dx":0.0183,"nx":116,"ny":114,"refTime":"2024-07-08T18:00:00:Z","depth":0,"parameterNumber":2,"parameterNumberName":"U-component_of_WINDS"},"data":[0.0,0.0,0.0,0.0,0.0,0.0,0.0,0.0,0.0,0.0,0.0,0.0,0.0,0.0,0.0,0.0,0.0,0.0,0.0,0.0,0.0,0.0,0.0,0.0,0.0,0.0,0.0,0.0,0.0,0.0,0.0,0.0,0.0,0.0,0.0,0.0,0.0,0.0,0.0,0.0,0.0,0.0,0.0,0.0,0.0,0.0,0.0,0.0,0.0,0.0,0.0,0.0,0.0,0.0,0.0,0.0,0.0,0.0,0.0,0.0,0.0,0.0,0.0,0.0,0.0,0.0,0.0,0.0,0.0,0.0,0.0,0.0,0.0,0.0,0.0,0.0,0.0,0.0,0.0,0.0,0.0,0.0,0.0,0.0,0.0,0.0,0.0,0.0,0.0,0.0,0.0,0.0,0.0,0.0,0.0,0.0,0.0,0.0,0.0,0.0,0.0,0.0,0.0,0.0,0.0,0.0,0.0,0.0,0.0,0.0,0.0,0.0,0.0,0.0,0.0,0.0,0.0,0.0,0.0,0.0,0.0,0.0,0.0,0.0,0.0,0.0,0.0,0.0,0.0,0.0,0.0,0.0,0.0,0.0,0.0,0.0,0.0,0.0,0.0,0.0,0.0,0.0,0.0,0.0,0.0,0.0,0.0,0.0,0.0,0.0,0.0,0.0,0.0,0.0,0.0,0.0,0.0,0.0,0.0,0.0,0.0,0.0,0.0,0.0,0.0,0.0,0.0,0.0,0.0,0.0,0.0,0.0,0.0,0.0,0.0,0.0,0.0,0.0,0.0,0.0,0.0,0.0,0.0,0.0,0.0,0.0,0.0,0.0,0.0,0.0,0.0,0.0,0.0,0.0,0.0,0.0,0.0,0.0,0.0,0.0,0.0,0.0,0.0,0.0,0.0,0.0,0.0,0.0,0.0,0.0,0.0,0.0,0.0,0.0,0.0,0.0,0.0,0.0,0.0,0.0,0.0,0.0,0.0,0.0,0.0,0.0,0.0,0.0,0.0,0.0,0.0,0.0,0.0,0.0,0.0,0.0,0.0,0.0,0.0,0.0,0.0,0.0,0.0,0.0,0.0,0.0,0.0,0.0,0.0,0.0,0.0,0.0,0.0,0.0,0.0,0.0,0.0,0.0,0.0,0.0,0.0,0.0,0.0,0.0,0.0,0.0,0.0,0.0,0.0,0.0,0.0,0.0,0.0,0.0,0.0,0.0,0.0,0.0,0.0,0.0,0.0,0.0,0.0,0.0,0.0,0.0,0.0,0.0,0.0,0.0,0.0,0.0,0.0,0.0,0.0,0.0,0.0,0.0,0.0,0.0,0.0,0.0,0.0,0.0,0.0,0.0,0.0,0.0,0.0,0.0,0.0,0.0,0.0,0.0,0.0,0.0,0.0,0.0,0.0,0.0,0.0,0.0,0.0,0.0,0.0,0.0,0.0,0.0,0.0,0.0,0.0,0.0,0.0,0.0,0.0,0.0,0.0,0.0,0.0,0.0,0.0,0.0,0.0,0.0,0.0,0.0,0.0,0.0,0.0,0.0,0.0,0.0,0.0,0.0,0.0,0.0,0.0,0.0,0.0,0.0,0.0,0.0,0.0,0.0,0.0,0.0,0.0,0.0,0.0,0.0,0.0,0.0,0.0,0.0,0.0,0.0,0.0,0.0,0.0,0.0,0.0,0.0,0.0,0.0,0.0,0.0,0.0,0.0,0.0,0.0,0.0,0.0,0.0,0.0,0.0,0.0,0.0,0.0,0.0,0.0,0.0,0.0,0.0,0.0,0.0,0.0,0.0,0.0,0.0,0.0,0.0,0.0,0.0,0.0,0.0,0.0,0.0,0.0,0.0,0.0,0.0,0.0,0.0,0.0,0.0,0.0,0.0,0.0,0.0,0.0,0.0,0.0,0.0,0.0,0.0,0.0,0.0,0.0,0.0,0.0,0.0,0.0,0.0,0.0,0.0,0.0,0.0,0.0,0.0,0.0,0.0,0.0,0.0,0.0,0.0,0.0,0.0,0.0,0.0,0.0,0.0,0.0,0.0,0.0,0.0,0.0,0.0,0.0,0.0,0.0,0.0,0.0,0.0,0.0,0.0,0.0,0.0,0.0,0.0,0.0,0.0,0.0,0.0,0.0,0.0,0.0,0.0,0.0,0.0,0.0,0.0,0.0,0.0,0.0,0.0,0.0,0.0,0.0,0.0,0.0,0.0,0.0,0.0,0.0,0.0,0.0,0.0,0.0,0.0,0.0,0.0,0.0,0.0,0.0,0.0,0.0,0.0,0.0,0.0,0.0,0.0,0.0,0.0,0.0,0.0,0.0,0.0,0.0,0.0,0.0,0.0,0.0,0.0,0.0,0.0,0.0,0.0,0.0,0.0,0.0,0.0,0.0,0.0,0.0,0.0,0.0,0.0,0.0,0.0,0.0,0.0,0.0,0.0,0.0,0.0,0.0,0.0,0.0,0.0,0.0,0.0,0.0,0.0,0.0,0.0,0.0,0.0,0.0,0.0,0.0,0.0,0.0,0.0,0.0,0.0,0.0,0.0,0.0,0.0,0.0,0.0,0.0,0.0,0.0,0.0,0.0,0.0,0.0,0.0,0.0,0.0,0.0,0.0,0.0,0.0,0.0,0.0,0.0,0.0,0.0,0.0,0.0,0.0,0.0,0.0,0.0,0.0,0.0,0.0,0.0,0.0,0.0,0.0,0.0,0.0,0.0,0.0,0.0,0.0,0.0,0.0,0.0,0.0,0.0,0.0,0.0,0.0,0.0,0.0,0.0,0.0,0.0,0.0,0.0,0.0,0.0,0.0,0.0,0.0,0.0,0.0,0.0,0.0,0.0,0.0,0.0,0.0,0.0,0.0,0.0,0.0,0.0,0.0,0.0,0.0,0.0,0.0,0.0,0.0,0.0,0.0,0.0,0.0,0.0,0.0,0.0,0.0,0.0,0.0,0.0,0.0,0.0,0.0,0.0,0.0,0.0,0.0,0.0,0.0,0.0,0.0,0.0,0.0,0.0,0.0,0.0,0.0,0.0,0.0,0.0,0.0,0.0,0.0,0.0,0.0,0.0,0.0,0.0,0.0,0.0,0.0,0.0,0.0,0.0,0.0,0.0,0.0,0.0,0.0,0.0,0.0,0.0,0.0,0.0,0.0,0.0,0.0,0.0,0.0,0.0,0.0,0.0,0.0,0.0,0.0,0.0,0.0,0.0,0.0,0.0,0.0,0.0,0.0,0.0,0.0,0.0,0.0,0.0,0.0,0.0,0.0,0.0,0.0,0.0,0.0,0.0,0.0,0.0,0.0,0.0,0.0,0.0,0.0,0.0,0.0,0.0,0.0,0.0,0.0,0.0,0.0,0.0,0.0,0.0,0.0,0.0,0.0,0.0,0.0,0.0,0.0,0.0,0.0,0.0,0.0,0.0,0.0,0.0,0.0,0.0,0.0,0.0,0.0,0.0,0.0,0.0,0.0,0.0,0.0,0.0,0.0,0.0,0.0,0.0,0.0,0.0,0.0,0.0,0.0,0.0,0.0,0.0,0.0,0.0,0.0,0.0,0.0,0.0,0.0,0.0,0.0,0.0,0.0,0.0,0.0,0.0,0.0,0.0,0.0,0.0,0.0,0.0,0.0,0.0,0.0,0.0,0.0,0.0,0.0,0.0,0.0,0.0,0.0,0.0,0.0,0.0,0.0,0.0,0.0,0.0,0.0,0.0,0.0,0.0,0.0,0.0,0.0,0.0,0.0,0.0,0.0,0.0,0.0,0.0,0.0,0.0,0.0,0.0,0.0,0.0,0.0,0.0,0.0,0.0,0.0,0.0,0.0,0.0,0.0,0.0,0.0,0.0,0.0,0.0,0.0,0.0,0.0,0.0,0.0,0.0,0.0,0.0,0.0,0.0,0.0,0.0,0.0,0.0,0.0,0.0,0.0,0.0,0.0,0.0,0.0,0.0,0.0,0.0,0.0,0.0,0.0,0.0,0.0,0.0,0.0,0.0,0.0,0.0,0.0,0.0,0.0,0.0,0.0,0.0,0.0,0.0,0.0,0.0,0.0,0.0,0.0,0.0,0.0,0.0,0.0,0.0,0.0,0.0,0.0,0.0,0.0,0.0,0.0,0.0,0.0,0.0,0.0,0.0,0.0,0.0,0.0,0.0,0.0,0.0,0.0,0.0,0.0,0.0,0.0,0.0,0.0,0.0,0.0,0.0,0.0,0.0,0.0,0.0,0.0,0.0,0.0,0.0,0.0,0.0,0.0,0.0,0.0,0.0,0.0,0.0,0.0,0.0,0.0,0.0,0.0,0.0,0.0,0.0,0.0,0.0,0.0,0.0,0.0,0.0,0.0,0.0,0.0,0.0,0.0,0.0,0.0,0.0,0.0,0.0,0.0,0.0,0.0,0.0,0.0,0.0,0.0,0.0,0.0,0.0,0.0,0.0,0.0,0.0,0.0,0.0,0.0,0.0,0.0,0.0,0.0,0.0,0.0,0.0,0.0,0.0,0.0,0.0,0.0,0.0,0.0,0.0,0.0,0.0,0.0,0.0,0.0,0.0,0.0,0.0,0.0,0.0,0.0,0.0,0.0,0.0,0.0,0.0,0.0,0.0,0.0,0.0,0.0,0.0,0.0,0.0,0.0,0.0,0.0,0.0,0.0,0.0,0.0,0.0,0.0,0.0,0.0,0.0,0.0,0.0,0.0,0.0,0.0,0.0,0.0,0.0,0.0,0.0,0.0,0.0,0.0,0.0,0.0,0.0,0.0,0.0,0.0,0.0,0.0,0.0,0.0,0.0,0.0,0.0,0.0,0.0,0.0,0.0,0.0,0.0,0.0,0.0,0.0,0.0,0.0,0.0,0.0,0.0,0.0,0.0,0.0,0.0,0.0,0.0,0.0,0.0,0.0,0.0,0.0,0.0,0.0,0.0,0.0,0.0,0.0,0.0,0.0,0.0,0.0,0.0,0.0,0.0,0.0,0.0,0.0,0.0,0.0,0.0,0.0,0.0,0.0,0.0,0.0,0.0,0.0,0.0,0.0,0.0,0.0,0.0,0.0,0.0,0.0,0.0,0.0,0.0,0.0,0.0,0.0,0.0,0.0,0.0,0.0,0.0,0.0,0.0,0.0,0.0,0.0,0.0,0.0,0.0,0.0,0.0,0.0,0.0,0.0,0.0,0.0,0.0,0.0,0.0,0.0,0.0,0.0,0.0,0.0,0.0,0.0,0.0,0.0,0.0,0.0,0.0,0.0,0.0,0.0,0.0,0.0,0.0,0.0,0.0,0.0,0.0,0.0,0.0,0.0,0.0,0.0,0.0,0.0,0.0,0.0,0.0,0.0,0.0,0.0,0.0,0.0,0.0,0.0,0.0,0.0,0.0,0.0,0.0,0.0,0.0,0.0,0.0,0.0,0.0,0.0,0.0,0.0,0.0,0.0,0.0,0.0,0.0,0.0,0.0,0.0,0.0,0.0,0.0,0.0,0.0,0.0,0.0,0.0,0.0,0.0,0.0,0.0,0.0,0.0,0.0,0.0,0.0,0.0,0.0,0.0,0.0,0.0,0.0,0.0,0.0,0.0,0.0,0.0,0.0,0.0,0.0,0.0,0.0,0.0,0.0,0.0,0.0,0.0,0.0,0.0,0.0,0.0,0.0,0.0,0.0,0.0,0.0,0.0,0.0,0.0,0.0,0.0,0.0,0.0,0.0,0.0,0.0,0.0,0.0,0.0,0.0,0.0,0.0,0.0,0.0,0.0,0.0,0.0,0.0,0.0,0.0,0.0,0.0,0.0,0.0,0.0,0.0,0.0,0.0,0.0,0.0,0.0,0.0,0.0,0.0,0.0,0.0,0.0,0.0,0.0,0.0,0.0,0.0,0.0,0.0,0.0,0.0,0.0,0.0,0.0,0.0,0.0,0.0,0.0,0.0,0.0,0.0,0.0,0.0,0.0,0.0,0.0,0.0,0.0,0.0,0.0,0.0,0.0,0.0,0.0,0.0,0.0,0.0,0.0,0.0,0.0,0.0,0.0,0.0,0.0,0.0,0.0,0.0,0.0,0.0,0.0,0.0,0.0,0.0,0.0,0.0,0.0,0.0,-2.2051,0.0,0.0,0.0,0.0,0.0,0.0,0.0,0.0,0.0,0.0,0.0,0.0,0.0,0.0,0.0,0.0,0.0,0.0,0.0,0.0,0.0,0.0,0.0,0.0,-1.0712,-1.1109,-1.1833,-1.2063,-1.2174,-1.2201,0.0,0.0,0.0,0.0,0.0,-1.1738,-1.1718,-1.2147,-1.3021,-1.2565,-1.2982,-1.4165,-1.331,-1.2482,-1.1685,0.0,0.0,0.0,0.0,0.0,0.0,0.0,0.0,0.0,0.0,0.0,0.0,0.0,0.0,0.0,0.0,0.0,0.0,0.0,0.0,0.0,0.0,0.0,0.0,0.0,0.0,0.0,0.0,0.0,0.0,0.0,0.0,0.0,0.0,0.0,0.0,0.0,0.0,0.0,0.0,0.0,0.0,0.0,0.0,0.0,0.0,0.0,0.0,0.0,0.0,0.0,0.0,0.0,0.0,0.0,0.0,0.0,0.0,0.0,0.0,0.0,0.0,0.0,0.0,0.0,0.0,0.0,0.0,0.0,0.0,0.0,-2.3381,0.0,0.0,0.0,0.0,0.0,0.0,0.0,0.0,0.0,0.0,0.0,0.0,0.0,0.0,0.0,0.0,0.0,0.0,0.0,0.0,0.0,-0.9704,-1.0598,-1.0816,-1.1293,-1.2298,-1.2396,-1.2495,-1.2706,0.0,0.0,0.0,0.0,-1.276,-1.261,-1.2629,-1.3123,-1.4147,-1.4424,-1.5403,-1.6995,-1.6995,-1.6242,-1.4906,-1.4301,0.0,0.0,0.0,0.0,0.0,0.0,0.0,0.0,0.0,0.0,0.0,0.0,0.0,0.0,0.0,0.0,0.0,0.0,0.0,0.0,0.0,0.0,0.0,0.0,0.0,0.0,0.0,0.0,0.0,0.0,0.0,0.0,0.0,0.0,0.0,0.0,0.0,0.0,0.0,0.0,0.0,0.0,0.0,0.0,0.0,0.0,0.0,0.0,0.0,0.0,0.0,0.0,0.0,0.0,0.0,0.0,0.0,0.0,0.0,0.0,0.0,0.0,0.0,-2.9696,-3.0248,-3.1473,-3.0902,-3.0882,-3.1118,-2.8578,-2.6944,-2.593,0.0,0.0,0.0,0.0,0.0,0.0,0.0,0.0,0.0,0.0,0.0,0.0,0.0,0.0,0.0,0.0,0.0,0.0,0.0,0.0,-0.979,-1.1288,-1.1563,-1.2484,-1.4567,-1.4286,-1.4314,-1.5092,-1.4611,0.0,0.0,-1.4078,-1.4166,-1.3461,-1.3496,-1.4298,-1.5875,-1.7321,-1.8891,-2.0524,-2.0524,0.0,-2.0069,-1.711,-1.6109,0.0,0.0,0.0,0.0,0.0,0.0,0.0,0.0,0.0,0.0,0.0,0.0,0.0,0.0,0.0,0.0,0.0,0.0,0.0,0.0,0.0,0.0,0.0,0.0,0.0,0.0,0.0,0.0,0.0,0.0,0.0,0.0,0.0,0.0,0.0,0.0,0.0,0.0,0.0,0.0,0.0,0.0,-1.894,-1.9674,0.0,0.0,0.0,0.0,0.0,0.0,0.0,0.0,0.0,0.0,0.0,0.0,0.0,0.0,-2.7142,-2.9851,-3.13,-3.1524,-3.3404,-3.4404,-3.4628,-3.5029,-3.4894,-3.4326,-3.4489,0.0,-2.7927,-2.6661,0.0,0.0,0.0,0.0,0.0,0.0,0.0,0.0,0.0,0.0,0.0,0.0,0.0,0.0,0.0,0.0,0.0,0.0,0.0,0.0,0.0,-1.2373,-1.3507,-1.4955,-1.5334,-1.5483,0.0,0.0,0.0,-1.4208,-1.4545,-1.4598,-1.4278,-1.4818,-1.6165,-1.8331,-2.0052,-2.1485,-2.2596,0.0,0.0,0.0,-2.1155,-1.9711,-1.8677,0.0,0.0,0.0,0.0,0.0,0.0,0.0,0.0,0.0,0.0,0.0,0.0,0.0,0.0,0.0,0.0,0.0,0.0,0.0,0.0,0.0,0.0,0.0,0.0,0.0,0.0,0.0,0.0,0.0,0.0,0.0,0.0,0.0,0.0,0.0,0.0,0.0,0.0,0.0,0.0,-1.8685,-2.0481,-2.0777,-2.0777,-2.057,0.0,0.0,0.0,0.0,0.0,0.0,0.0,0.0,0.0,-3.0166,-3.0522,-3.1011,-3.1714,-3.3455,-3.4766,-3.5628,-3.6374,-3.7081,-3.7715,-3.7575,-3.7084,-3.6346,-3.6118,-3.4713,-3.2442,-3.0165,-2.7792,-2.5445,0.0,0.0,0.0,0.0,-2.478,-2.7452,0.0,0.0,0.0,0.0,0.0,0.0,0.0,0.0,0.0,0.0,0.0,0.0,-1.1934,-1.3105,-1.428,-1.5477,0.0,0.0,0.0,0.0,0.0,-1.4958,-1.4773,-1.48,-1.507,-1.6456,-1.8289,-2.0595,-2.2154,-2.3308,0.0,0.0,0.0,0.0,0.0,0.0,0.0,0.0,0.0,0.0,0.0,0.0,0.0,0.0,0.0,0.0,0.0,0.0,0.0,0.0,0.0,0.0,0.0,0.0,0.0,0.0,0.0,0.0,0.0,0.0,0.0,0.0,0.0,0.0,0.0,0.0,0.0,0.0,0.0,0.0,0.0,0.0,0.0,0.0,0.0,0.0,0.0,-2.0425,-2.1826,-2.1855,-2.2713,-2.2923,0.0,0.0,0.0,0.0,0.0,0.0,-2.9092,-2.9123,-3.0431,-3.3371,-3.374,-3.4535,-3.589,-3.6542,-3.7525,-3.8807,-3.8198,-3.8439,-3.9388,-3.8848,-3.8279,-3.771,-3.7115,-3.6706,-3.6242,-3.3465,-3.1443,-2.9861,-2.7622,-2.6083,-2.5305,-2.6793,-3.0615,-3.4619,0.0,0.0,0.0,0.0,0.0,0.0,0.0,0.0,0.0,0.0,0.0,-1.1146,-1.3358,0.0,0.0,0.0,0.0,0.0,0.0,0.0,0.0,-1.5556,-1.4931,-1.4995,-1.582,-1.8443,-2.0596,0.0,0.0,0.0,0.0,0.0,0.0,0.0,0.0,0.0,0.0,0.0,0.0,0.0,0.0,0.0,0.0,0.0,0.0,0.0,0.0,0.0,0.0,0.0,0.0,0.0,0.0,0.0,0.0,0.0,0.0,0.0,0.0,0.0,0.0,0.0,0.0,0.0,0.0,0.0,0.0,0.0,0.0,0.0,0.0,0.0,0.0,0.0,0.0,0.0,0.0,0.0,0.0,-2.3392,-2.5275,0.0,0.0,0.0,0.0,-2.7417,-2.9056,-3.0645,-3.2106,-3.2756,-3.4133,-3.6319,-3.6356,-3.679,-3.7754,-3.8254,-3.8789,-3.9359,-3.8367,-3.816,-3.8646,-3.863,-3.8516,-3.8368,-3.878,-3.8573,-3.7836,-3.6104,-3.5305,-3.4946,-3.2035,-3.1698,-3.3034,-3.4484,-3.4382,-3.3694,0.0,0.0,0.0,-0.9093,-0.9104,-0.9104,-0.9104,-0.9104,-0.9208,-0.9489,-1.0803,0.0,0.0,0.0,0.0,0.0,0.0,0.0,0.0,0.0,-1.6134,-1.637,-1.6142,-1.6951,-1.8948,-2.0621,-2.1978,0.0,0.0,0.0,0.0,0.0,0.0,0.0,0.0,0.0,0.0,0.0,0.0,0.0,0.0,0.0,0.0,0.0,0.0,0.0,0.0,0.0,0.0,0.0,0.0,0.0,0.0,0.0,0.0,0.0,0.0,0.0,0.0,0.0,0.0,0.0,0.0,0.0,0.0,0.0,0.0,0.0,0.0,0.0,0.0,0.0,0.0,0.0,0.0,0.0,0.0,0.0,0.0,-2.622,-2.7882,0.0,0.0,-2.9024,-2.9973,-3.0668,-3.1753,-3.3231,-3.5251,-3.5523,-3.6367,-3.8098,-3.804,-3.8105,-3.8358,-3.8858,-3.929,-3.9577,-3.9744,-3.9916,-4.0083,-4.0071,-3.9755,-3.9256,-3.9428,-3.9044,-3.8254,-3.7653,-3.6698,-3.5496,-3.4443,-3.4349,-3.4805,-3.4726,-3.4759,-3.4754,-0.8824,-0.8886,0.0,-0.9083,-0.9104,-0.9104,-0.9104,-0.9104,-0.9294,-0.9812,-1.1401,-1.2793,0.0,0.0,0.0,0.0,0.0,0.0,0.0,0.0,-1.689,-1.7089,-1.7443,-1.8728,-2.1015,-2.207,0.0,0.0,0.0,0.0,0.0,0.0,0.0,0.0,0.0,0.0,0.0,0.0,0.0,0.0,0.0,0.0,-1.7193,0.0,0.0,0.0,0.0,0.0,0.0,0.0,0.0,0.0,0.0,0.0,0.0,0.0,0.0,0.0,0.0,0.0,0.0,0.0,0.0,0.0,0.0,0.0,0.0,0.0,0.0,0.0,0.0,0.0,0.0,0.0,0.0,0.0,0.0,0.0,-2.7476,-2.8375,-3.0353,-3.1596,-3.1462,-3.2474,-3.3476,-3.4266,-3.502,-3.6145,-3.769,-3.7618,-3.8108,-3.9334,-3.9347,-3.9429,-3.9584,-3.9931,-4.0174,-4.0313,-4.0706,-4.0912,-4.0912,-4.0912,-4.0618,-4.0095,-4.0095,-3.9732,-3.9152,-3.9129,-3.8184,-3.6768,-3.6282,-3.6113,-3.6079,-3.5791,-3.5808,-3.5842,-0.8761,-0.8846,-0.8953,-0.9083,-0.9104,-0.9099,-0.9104,-0.9099,-0.9639,-1.1166,-1.2041,0.0,0.0,0.0,0.0,0.0,0.0,0.0,0.0,-1.7986,-1.7646,-1.7792,-1.8824,-2.0183,-2.1838,0.0,0.0,0.0,0.0,0.0,0.0,0.0,0.0,0.0,0.0,0.0,0.0,0.0,0.0,0.0,0.0,0.0,-1.9809,0.0,0.0,0.0,0.0,0.0,0.0,0.0,0.0,0.0,0.0,0.0,0.0,0.0,0.0,0.0,0.0,0.0,0.0,0.0,0.0,0.0,0.0,0.0,0.0,0.0,0.0,0.0,0.0,0.0,0.0,0.0,0.0,0.0,-2.4806,-2.801,-3.0133,-2.9795,-3.2726,-3.4641,-3.4274,-3.5949,-3.7376,-3.8093,-3.8845,-3.9301,-3.9336,-3.9149,-3.9386,-4.013,-4.0355,-4.0779,-4.1494,-4.1494,-4.1494,-4.1512,-4.1094,-4.0918,-4.0942,-4.0942,-4.0942,-4.0942,-4.0942,-4.0847,-4.0721,-4.0583,-4.001,-3.9091,-3.7723,-3.7144,-3.7229,-3.8227,-3.7838,-3.6728,-0.8689,-0.8812,-0.8942,-0.9083,-0.9018,-0.8991,-0.9093,-0.9018,-0.9338,-1.0388,-1.2155,0.0,0.0,0.0,0.0,0.0,0.0,0.0,-1.9424,0.0,-1.8189,-1.9524,-2.1121,0.0,-2.3303,0.0,0.0,0.0,0.0,0.0,0.0,0.0,0.0,0.0,0.0,0.0,0.0,0.0,0.0,0.0,0.0,0.0,-2.1587,0.0,0.0,0.0,0.0,0.0,0.0,0.0,0.0,0.0,0.0,0.0,0.0,0.0,0.0,0.0,0.0,0.0,0.0,0.0,0.0,0.0,0.0,0.0,0.0,0.0,0.0,0.0,0.0,0.0,0.0,0.0,0.0,-2.9172,-2.8007,-2.982,-3.1791,-3.3138,-3.5332,-3.6805,-3.6988,-3.7996,-3.876,-3.895,-3.9161,-3.955,-4.0151,-4.0036,-4.0394,-4.137,-4.1349,-4.1393,-4.1494,-4.1494,-4.1494,-4.1494,-4.1547,-4.164,-4.186,-4.2035,-4.2032,-4.1839,-4.1839,-4.1644,-4.1283,-4.1243,-4.0816,-4.0092,-3.894,-3.8142,-3.7719,-3.799,-3.7889,-3.7567,-0.863,-0.8764,-0.8908,-0.9034,-0.899,-0.8974,-0.9093,-0.9028,-0.9389,-1.0543,-1.2396,0.0,0.0,0.0,0.0,0.0,0.0,0.0,-1.8281,-1.8172,-1.9058,-2.1215,0.0,0.0,0.0,0.0,0.0,0.0,0.0,0.0,0.0,0.0,0.0,0.0,0.0,0.0,0.0,0.0,0.0,0.0,0.0,0.0,-2.3267,-2.2441,-2.1827,-2.1249,-2.0074,-1.9654,-1.9541,-1.8682,0.0,0.0,0.0,0.0,0.0,0.0,0.0,0.0,0.0,0.0,0.0,0.0,0.0,0.0,0.0,0.0,0.0,0.0,0.0,0.0,0.0,0.0,0.0,0.0,-2.9867,-3.1811,-3.1855,-3.2749,-3.4089,-3.5918,-3.7091,-3.8224,-3.9441,-3.9853,-4.0111,-4.0253,-4.0422,-4.0724,-4.1184,-4.1075,-4.1358,-4.2139,-4.2015,-4.1888,-4.1799,-4.1799,-4.1799,-4.1799,-4.1709,-4.186,-4.2198,-4.216,-4.216,0.0,-4.2198,-4.2053,-4.1799,-4.1739,-4.1499,0.0,0.0,0.0,0.0,0.0,-3.841,-3.8328,-0.8593,-0.8717,-0.8846,-0.8979,-0.8974,-0.8979,-0.9093,-0.9083,-0.9612,-1.1194,0.0,0.0,0.0,0.0,0.0,0.0,0.0,0.0,0.0,0.0,0.0,-2.2569,-2.2793,0.0,0.0,0.0,0.0,0.0,0.0,0.0,0.0,0.0,0.0,0.0,0.0,0.0,0.0,0.0,0.0,0.0,0.0,0.0,-2.4621,-2.3908,-2.3645,-2.3438,-2.1954,-2.1429,-2.1316,-2.0589,0.0,0.0,0.0,0.0,0.0,0.0,0.0,0.0,0.0,0.0,0.0,0.0,0.0,0.0,0.0,0.0,0.0,0.0,0.0,0.0,0.0,0.0,0.0,0.0,-3.1807,-3.3189,-3.5785,-3.6094,-3.6589,-3.7999,-3.8326,-3.9279,-4.1414,-4.1383,-4.1342,-4.1644,-4.2005,-4.2198,-4.2198,0.0,0.0,0.0,0.0,-4.2304,-4.2297,-4.2236,-4.2236,-4.2259,-4.1864,-4.1906,-4.232,-4.1927,-4.1952,-4.234,-4.234,-4.232,-4.2259,-4.2142,-4.2038,-4.1871,-4.1123,-4.0734,-4.0528,-3.9685,-3.9295,0.0,-0.8722,-0.8775,-0.884,-0.8979,-0.8778,-0.8712,-0.9039,-0.8913,-0.9409,-1.1175,-1.2162,0.0,0.0,0.0,0.0,0.0,0.0,0.0,0.0,0.0,-2.1324,0.0,0.0,0.0,0.0,0.0,0.0,0.0,0.0,0.0,0.0,0.0,0.0,0.0,0.0,0.0,0.0,0.0,0.0,0.0,0.0,0.0,-2.4764,-2.4543,-2.4463,-2.4426,-2.4107,-2.3975,-2.3956,-2.3799,-2.2774,-2.1534,-2.1384,0.0,0.0,0.0,0.0,0.0,0.0,0.0,0.0,0.0,0.0,0.0,0.0,0.0,0.0,0.0,0.0,0.0,0.0,0.0,0.0,-3.3327,-3.4896,-3.6386,-3.7986,-3.7892,-3.7905,-3.858,-3.9696,-4.0777,-4.1615,-4.1868,-4.1996,-4.2074,-4.2154,-4.2198,-4.2198,-4.2384,0.0,-4.305,-4.258,-4.2462,-4.2768,-4.2398,-4.2398,-4.275,0.0,0.0,-4.325,-4.316,-4.316,-4.325,-4.325,-4.305,-4.275,-4.2731,-4.2279,-4.1604,-4.1591,-4.1263,-4.081,-4.0625,-4.0292,-3.9876,-0.8718,-0.8811,-0.8863,-0.8903,-0.876,-0.8724,-0.8919,-0.8869,-0.9286,-1.0617,-1.1471,0.0,0.0,0.0,0.0,0.0,0.0,0.0,0.0,0.0,0.0,0.0,0.0,0.0,0.0,0.0,0.0,0.0,0.0,0.0,0.0,0.0,0.0,0.0,0.0,0.0,0.0,0.0,0.0,0.0,0.0,0.0,-2.5344,-2.4892,-2.47,-2.47,-2.47,-2.47,-2.47,-2.47,-2.4182,-2.3431,-2.3018,-2.2029,-2.0752,0.0,0.0,0.0,0.0,0.0,0.0,0.0,0.0,0.0,0.0,0.0,0.0,0.0,0.0,-2.8282,-3.0716,0.0,-3.3382,-3.607,-3.7055,-3.7977,-3.9446,-3.977,-4.0038,-4.049,-4.0854,-4.1361,-4.2158,-4.2574,-4.2638,-4.2218,-4.258,-4.281,-4.281,-4.2903,-4.3123,-4.348,-4.294,-4.2733,-4.2901,-4.2673,-4.2673,-4.2901,-4.2901,-4.3105,-4.3479,-4.3304,-4.3304,-4.3497,-4.3286,-4.3087,-4.2882,-4.2653,-4.2259,-4.1864,-4.1973,-4.1503,-4.0802,-4.0713,-4.0483,-4.0188,-0.8673,-0.8812,-0.8886,-0.884,-0.8788,-0.8783,-0.8835,-0.888,-0.9208,-1.0082,-1.0762,-1.1453,-1.2196,-1.2466,-1.2946,0.0,0.0,0.0,0.0,0.0,0.0,0.0,0.0,0.0,0.0,0.0,0.0,0.0,0.0,0.0,0.0,0.0,0.0,0.0,0.0,0.0,0.0,0.0,0.0,0.0,0.0,0.0,-2.5906,-2.5027,-2.47,-2.47,-2.47,-2.4595,-2.4501,-2.4651,-2.4595,-2.4388,-2.3889,-2.3626,-2.31,-2.1103,-2.0877,0.0,0.0,0.0,0.0,0.0,0.0,0.0,0.0,0.0,-2.7744,-2.9893,-3.0578,-3.1585,-3.4124,-3.4454,-3.5308,-3.8251,-3.8625,-3.9092,-4.0632,-4.1225,-4.1749,-4.2426,-4.1814,-4.1771,-4.2905,-4.3177,-4.3051,-4.2482,-4.3032,-4.3371,-4.3283,-4.3355,-4.3513,-4.3669,-4.3232,-4.3014,-4.3031,-4.2939,-4.2939,-4.3031,-4.3031,-4.3196,-4.3497,-4.316,-4.3178,-4.3479,-4.316,-4.3031,-4.2976,-4.2438,-4.2198,-4.2177,-4.2011,-4.1445,-4.0745,-4.0686,-4.0517,-4.0313,-0.8691,-0.8812,-0.8914,-0.897,-0.8775,-0.8705,-0.8946,-0.893,-0.9219,-1.0082,-1.0273,-1.0641,-1.1443,-1.2117,-1.3124,0.0,0.0,0.0,0.0,0.0,0.0,0.0,0.0,0.0,0.0,0.0,0.0,0.0,0.0,0.0,0.0,0.0,0.0,0.0,0.0,0.0,0.0,0.0,0.0,0.0,0.0,0.0,-2.5906,-2.5027,-2.47,-2.47,-2.47,-2.4238,-2.3739,-2.4463,-2.4219,-2.3739,-2.4369,-2.4069,-2.3438,-2.3175,0.0,-2.2267,-2.2799,-2.3559,-2.4535,-2.5963,-2.6524,-2.7643,0.0,0.0,-3.2545,-3.3466,-3.486,-3.5903,-3.597,-3.7345,-3.8623,-3.9139,-3.9747,-4.0597,-4.1906,-4.1542,-4.1665,-4.3098,-4.2567,-4.2542,-4.3751,-4.3248,-4.2977,-4.3248,-4.3354,-4.3248,-4.2903,-4.3494,-4.3667,-4.3286,-4.3087,-4.3142,-4.3427,-4.3069,-4.3069,-4.3427,-4.3427,-4.3463,-4.3515,-4.3444,-4.3463,-4.3497,-4.3444,-4.3427,-4.3375,-4.2539,-4.2198,-4.2115,-4.1368,-4.0989,-4.0894,-4.1134,-4.0896,-4.0485,-0.8697,-0.884,-0.8964,-0.8987,-0.8845,-0.8754,-0.8863,-0.8891,-0.9061,-0.9496,-0.9565,-0.9691,-1.0019,-1.1163,-1.2352,-1.3469,-1.5468,0.0,-1.9019,0.0,0.0,0.0,0.0,0.0,0.0,0.0,0.0,0.0,0.0,0.0,0.0,0.0,0.0,0.0,0.0,0.0,0.0,0.0,0.0,0.0,0.0,0.0,-2.5906,-2.5027,-2.47,-2.47,-2.47,-2.4182,0.0,0.0,-2.4163,-2.3645,-2.4445,-2.4144,-2.3494,-2.3494,-2.3581,0.0,-2.5858,-2.6902,0.0,0.0,-3.0184,-3.1641,-3.3317,-3.411,-3.4853,-3.6105,-3.6758,-3.7261,-3.7779,-3.8232,-3.891,0.0,-4.0583,-4.1309,-4.2727,-4.2455,-4.2324,-4.2955,-4.255,-4.2491,-4.3227,-4.3423,-4.3474,-4.3406,-4.361,-4.3662,-4.3441,-4.3701,-4.3719,-4.3444,-4.3339,-4.3356,-4.3515,-4.3339,-4.3339,-4.3515,-4.3515,-4.3515,-4.3515,-4.3515,-4.3232,-4.277,-4.3032,-4.2827,-4.2302,-4.1931,-4.1799,-4.1735,-4.1117,-4.0912,-4.0894,-4.0931,-4.0806,-4.0624,-0.8749,-0.888,-0.8987,-0.8998,-0.8914,-0.8863,-0.8858,-0.8891,-0.8963,-0.9093,-0.9104,-0.9259,-0.9691,-1.0765,-1.1858,-1.2815,-1.4908,-1.6791,0.0,0.0,0.0,0.0,0.0,0.0,0.0,0.0,0.0,0.0,0.0,0.0,0.0,0.0,0.0,0.0,0.0,0.0,0.0,0.0,0.0,0.0,0.0,0.0,-2.5579,-2.4933,-2.4557,-2.4369,-2.4369,-2.3844,0.0,0.0,-2.3281,-2.2912,-2.3506,-2.3431,-2.3269,-2.3701,-2.4576,-2.578,-2.7556,0.0,0.0,-3.1107,-3.298,-3.4661,-3.5126,-3.5714,-3.6525,-3.7836,-3.7973,-3.8052,-3.8715,-3.8765,0.0,-4.0617,-4.1154,-4.1879,-4.3204,-4.2961,-4.2714,-4.2937,-4.2608,-4.2525,-4.2941,-4.3491,-4.3761,-4.3594,-4.3844,-4.3942,-4.3781,-4.3786,-4.3703,-4.3496,-4.3515,-4.3515,-4.3515,-4.3515,-4.3515,-4.3515,-4.3515,-4.3515,-4.3515,-4.3515,-4.316,-4.2578,-4.292,-4.2674,-4.2035,-4.1927,-4.1799,-4.1648,-4.1232,-4.1012,-4.0888,-4.0793,-4.0745,-4.0745,-0.8891,-0.8897,-0.893,-0.8992,-0.8997,-0.9002,-0.8995,-0.9001,-0.9017,-0.9099,-0.9104,-0.9674,-1.1166,-1.1365,-1.2016,-1.3532,-1.5155,-1.663,-1.784,-1.9729,0.0,0.0,0.0,0.0,0.0,0.0,0.0,0.0,0.0,0.0,0.0,0.0,0.0,0.0,0.0,0.0,0.0,0.0,0.0,0.0,0.0,0.0,-2.4745,-2.47,-2.4219,-2.3532,-2.3532,0.0,0.0,0.0,-2.1109,-2.1072,-2.1109,-2.1685,0.0,-2.4219,-2.5834,0.0,0.0,0.0,-3.1038,-3.2624,-3.4252,-3.5882,-3.7429,-3.7801,-3.796,-3.8467,-3.8814,-3.8861,-3.8232,-3.9338,-4.0347,-4.0415,-4.1389,-4.247,-4.3277,-4.2708,-4.2506,-4.3294,-4.304,-4.2939,0.0,-4.3406,-4.3559,-4.3939,-4.3989,-4.3825,-4.344,-4.3649,-4.3618,-4.3214,-4.341,-4.3515,-4.3515,-4.3515,-4.3515,-4.3515,-4.3515,-4.3515,-4.3515,-4.3515,-4.3497,-4.3462,-4.348,-4.348,-4.341,-4.3013,-4.2595,-4.2136,-4.167,-4.1237,-4.0912,-4.0912,-4.0894,-4.0894,-0.8897,-0.8942,-0.8976,-0.8992,-0.8996,-0.9023,-0.906,-0.9066,-0.9243,-0.9772,-1.0296,0.0,0.0,0.0,0.0,0.0,-1.4749,-1.5802,-1.6646,-1.8654,0.0,0.0,0.0,0.0,0.0,0.0,0.0,0.0,0.0,0.0,0.0,0.0,0.0,0.0,0.0,0.0,0.0,0.0,0.0,0.0,0.0,0.0,-2.47,-2.47,-2.42,-2.3419,0.0,0.0,0.0,0.0,0.0,0.0,-2.2311,0.0,0.0,-2.4922,0.0,0.0,0.0,0.0,-3.281,-3.494,-3.629,-3.7355,-3.8451,-3.8692,-3.8591,-3.8215,-3.7622,-3.7182,-3.7163,-3.7403,-3.814,-3.9739,-4.1022,-4.2179,-4.3256,-4.2945,-4.2702,-4.2961,-4.2885,0.0,0.0,0.0,0.0,-4.3989,-4.4005,-4.3926,-4.373,-4.3816,-4.3734,-4.3462,-4.3531,-4.3531,-4.3515,-4.3515,-4.3515,-4.3515,-4.3515,-4.3515,-4.3515,-4.3515,-4.3357,-4.3123,-4.3375,-4.3357,-4.3087,-4.2975,-4.2806,-4.2595,-4.1799,-4.1423,-4.126,-4.1012,-4.0912,-4.0912,-0.8897,-0.9168,-0.9304,-0.9043,-0.923,0.0,0.0,0.0,0.0,0.0,0.0,0.0,0.0,0.0,0.0,0.0,0.0,-1.5316,-1.5826,0.0,0.0,0.0,0.0,0.0,0.0,0.0,0.0,0.0,0.0,0.0,0.0,0.0,0.0,0.0,0.0,0.0,0.0,0.0,0.0,0.0,0.0,0.0,-2.4238,-2.3956,-2.3337,0.0,0.0,0.0,0.0,0.0,0.0,0.0,0.0,0.0,0.0,0.0,0.0,-2.9017,0.0,-3.3191,-3.4462,-3.6588,-3.7726,-3.8451,-3.8971,-3.8878,-3.8405,-3.7479,-3.6316,-3.55,-3.5613,-3.5319,-3.5942,-3.8686,-4.0013,-4.1277,-4.2937,-4.2961,-4.2909,-4.3188,-4.2983,-4.2909,0.0,0.0,0.0,-4.4005,-4.4005,-4.3974,-4.3945,-4.3899,-4.3818,-4.3667,-4.36,-4.3531,-4.3515,-4.3515,-4.3515,-4.3515,-4.3515,-4.3515,-4.3515,-4.3515,-4.3357,-4.3142,-4.3392,-4.3357,-4.3105,-4.3105,-4.3013,-4.2844,-4.2257,-4.1799,-4.1468,-4.1209,-4.1018,-4.0912,-0.8948,-0.9582,-0.9872,0.0,0.0,0.0,0.0,0.0,0.0,0.0,0.0,0.0,0.0,0.0,0.0,0.0,0.0,0.0,-1.5321,0.0,0.0,0.0,0.0,-1.9867,-2.1269,-2.1007,0.0,0.0,0.0,0.0,0.0,0.0,0.0,0.0,0.0,0.0,0.0,0.0,0.0,0.0,0.0,0.0,-2.3344,-2.2586,0.0,0.0,0.0,0.0,0.0,0.0,0.0,0.0,0.0,0.0,0.0,0.0,0.0,-3.1271,-3.2948,-3.4484,-3.6006,-3.7573,-3.8525,-3.9082,-3.9045,-3.8414,-3.7497,-3.6287,-3.4958,-3.3907,0.0,0.0,-3.4059,-3.7301,-3.8609,-4.0089,-4.2505,-4.2864,-4.3132,0.0,0.0,0.0,0.0,0.0,0.0,-4.4061,0.0,-4.4005,-4.4005,-4.392,-4.3859,-4.3804,-4.3692,-4.3606,-4.3552,-4.3552,-4.3551,-4.3515,-4.3515,-4.3515,-4.3515,-4.3515,-4.3515,-4.3515,-4.3515,-4.3515,-4.3515,-4.3515,-4.3286,-4.292,-4.2901,-4.2338,-4.1516,-4.1494,-4.1237,-4.0912,0.0,0.0,0.0,0.0,0.0,0.0,0.0,0.0,0.0,0.0,0.0,0.0,0.0,0.0,0.0,0.0,0.0,0.0,0.0,0.0,0.0,0.0,0.0,0.0,0.0,-2.0994,0.0,0.0,0.0,0.0,0.0,0.0,0.0,0.0,0.0,0.0,0.0,0.0,0.0,0.0,0.0,0.0,-2.242,0.0,0.0,0.0,0.0,0.0,0.0,0.0,0.0,0.0,0.0,0.0,-2.8979,0.0,0.0,-3.3078,-3.5338,-3.6615,-3.753,-3.8611,-3.8994,-3.8934,-3.8339,-3.7578,-3.6395,-3.4247,-3.259,-3.1307,-3.0617,0.0,0.0,-3.657,-3.9229,0.0,-4.3432,-4.3691,0.0,0.0,0.0,-4.3763,-4.3986,-4.4005,0.0,0.0,-4.4376,-4.4005,-4.4005,-4.4487,-4.448,-4.3822,-4.4865,-4.5092,-4.4397,-4.4397,-4.4085,-4.3515,-4.3515,-4.3515,-4.3515,-4.3515,-4.3515,-4.3515,-4.3515,-4.3515,-4.3515,-4.3515,-4.3427,-4.3322,-4.3031,-4.2537,-4.1969,-4.1626,-4.1237,-4.0912,0.0,0.0,0.0,0.0,0.0,0.0,0.0,0.0,0.0,0.0,0.0,0.0,0.0,0.0,0.0,0.0,0.0,0.0,0.0,0.0,0.0,0.0,0.0,0.0,0.0,0.0,0.0,0.0,0.0,0.0,0.0,0.0,0.0,0.0,0.0,0.0,0.0,0.0,0.0,0.0,0.0,0.0,0.0,0.0,0.0,0.0,0.0,0.0,0.0,0.0,0.0,-2.5919,-2.7146,-2.8904,-3.0831,-3.2555,0.0,-3.5167,-3.6914,-3.788,-3.8539,-3.9031,-3.8868,-3.8265,-3.7113,-3.5937,-3.4395,-3.1924,-3.0121,0.0,-2.8393,0.0,0.0,0.0,0.0,0.0,-4.291,-4.3669,-4.4005,0.0,-4.4005,0.0,-4.4005,-4.4358,-4.4766,0.0,-4.4841,-4.4711,-4.5082,-4.5414,-4.5351,-4.4875,-4.5621,-4.5754,-4.5241,-4.4892,-4.447,-4.4011,-4.3663,-4.3515,-4.3515,-4.3515,-4.3515,-4.3515,0.0,-4.3515,-4.3515,-4.3515,-4.3515,-4.348,-4.325,-4.2883,-4.2458,-4.1969,-4.1534,-4.114,0.0,0.0,0.0,0.0,0.0,0.0,0.0,0.0,0.0,0.0,0.0,0.0,0.0,0.0,0.0,0.0,0.0,0.0,0.0,0.0,0.0,0.0,0.0,0.0,0.0,0.0,0.0,0.0,0.0,0.0,0.0,0.0,0.0,0.0,0.0,0.0,0.0,0.0,0.0,0.0,0.0,0.0,0.0,0.0,0.0,0.0,0.0,0.0,0.0,0.0,-2.582,-2.6324,-2.8993,-3.0779,-3.2267,-3.4162,-3.5714,-3.6987,-3.7912,-3.8617,-3.9101,-3.9115,-3.8427,-3.7318,-3.5696,-3.3968,-3.1998,-2.9564,0.0,-2.6702,-2.6591,0.0,-2.9269,-3.2931,0.0,-3.8771,-4.1852,-4.3185,-4.3875,-4.3986,-4.4005,-4.4005,-4.4005,-4.4674,-4.5175,-4.5287,-4.5287,-4.5602,-4.6273,-4.6252,-4.6205,-4.6151,-4.5882,-4.5736,-4.5736,-4.5057,-4.4636,-4.4544,-4.3828,-4.3515,-4.3515,-4.3515,-4.3515,-4.3515,0.0,0.0,-4.3515,-4.3515,-4.3515,-4.3515,-4.3515,-4.3232,-4.2768,-4.2358,-4.1864,-4.1356,0.0,0.0,0.0,0.0,0.0,0.0,0.0,0.0,0.0,0.0,-1.2777,-1.276,0.0,0.0,0.0,0.0,0.0,0.0,0.0,0.0,0.0,0.0,0.0,0.0,0.0,0.0,0.0,0.0,0.0,0.0,0.0,0.0,0.0,0.0,0.0,0.0,0.0,0.0,0.0,0.0,0.0,0.0,0.0,0.0,0.0,0.0,0.0,0.0,0.0,0.0,-2.7084,-2.9097,-3.0984,-3.2635,-3.4223,-3.5888,-3.6584,-3.7124,-3.8582,-3.9044,-3.9115,-3.917,-3.8045,-3.6463,-3.4791,-3.2667,0.0,0.0,0.0,-2.5708,-2.5039,-2.6512,0.0,-3.2543,0.0,0.0,0.0,0.0,-4.3243,0.0,0.0,0.0,0.0,0.0,0.0,0.0,0.0,0.0,-4.534,-4.5887,-4.6116,-4.5956,-4.5277,-4.4911,-4.4911,-4.4782,-4.4378,-4.3699,-4.357,-4.3515,-4.3515,-4.3515,-4.3515,-4.3515,0.0,0.0,-4.3515,-4.3515,-4.3515,-4.3515,-4.3515,-4.3014,-4.2318,-4.2236,-4.1687,-4.0995,0.0,0.0,0.0,0.0,0.0,0.0,0.0,0.0,-1.3225,-1.5115,-1.5218,-1.4899,-1.4382,-1.4426,0.0,0.0,0.0,0.0,0.0,0.0,0.0,0.0,0.0,0.0,0.0,0.0,0.0,0.0,0.0,0.0,0.0,0.0,0.0,0.0,0.0,0.0,0.0,0.0,0.0,0.0,0.0,0.0,0.0,0.0,0.0,0.0,0.0,0.0,0.0,0.0,-2.6442,-2.8584,-3.1107,-3.2897,-3.4445,-3.6229,-3.7035,-3.7631,-3.8808,-3.9129,-3.9115,-3.9142,-3.7604,-3.5529,-3.3429,0.0,0.0,0.0,0.0,-2.4964,-2.4574,0.0,0.0,0.0,0.0,0.0,0.0,0.0,0.0,0.0,0.0,0.0,0.0,0.0,0.0,0.0,0.0,0.0,-4.5731,-4.5983,-4.6064,-4.5902,-4.5535,-4.5333,-4.5333,-4.4911,-4.4525,-4.4121,-4.3699,-4.3515,-4.3515,-4.3515,-4.3515,-4.3515,-4.3515,0.0,-4.3515,-4.3515,-4.3515,-4.3515,-4.3515,-4.3124,-4.2537,-4.2297,-4.1778,-4.1186,0.0,0.0,0.0,0.0,0.0,0.0,0.0,-1.3018,-1.4348,-1.6484,-1.7236,-1.7035,-1.5634,-1.5278,-1.4851,0.0,0.0,0.0,0.0,0.0,0.0,0.0,0.0,0.0,0.0,0.0,0.0,0.0,0.0,0.0,0.0,0.0,0.0,0.0,0.0,0.0,0.0,0.0,0.0,0.0,0.0,0.0,0.0,0.0,0.0,0.0,0.0,0.0,0.0,0.0,-2.4918,-2.6628,-2.9564,-3.17,-3.3478,-3.5354,-3.6606,-3.7596,-3.8581,-3.8971,-3.9064,-3.8897,-3.7021,-3.4581,-3.2109,-2.9619,0.0,0.0,0.0,-2.45,-2.45,0.0,0.0,0.0,0.0,0.0,0.0,0.0,0.0,0.0,0.0,0.0,0.0,0.0,0.0,0.0,0.0,0.0,-4.6012,-4.5711,-4.5496,-4.5388,-4.5388,-4.5388,-4.5388,-4.4764,-4.4452,-4.4452,-4.3791,-4.3515,-4.3515,-4.3515,-4.3515,-4.3515,-4.3515,0.0,0.0,-4.3515,-4.3515,-4.3515,-4.3515,-4.325,-4.2844,-4.2478,-4.199,-4.1468,0.0,0.0,0.0,0.0,0.0,0.0,0.0,-1.2697,-1.4184,-1.5795,-1.7396,-1.8072,-1.7183,-1.5953,-1.5122,0.0,0.0,0.0,0.0,0.0,0.0,0.0,0.0,0.0,0.0,0.0,0.0,0.0,0.0,0.0,0.0,0.0,0.0,0.0,0.0,0.0,0.0,0.0,0.0,0.0,0.0,0.0,0.0,0.0,0.0,0.0,0.0,0.0,0.0,0.0,0.0,-2.3861,-2.5699,-2.8402,-3.1221,-3.286,0.0,0.0,-3.7578,-3.8544,-3.8915,-3.8191,-3.6147,-3.3677,-3.1255,0.0,0.0,0.0,-2.45,-2.45,-2.45,0.0,0.0,0.0,0.0,0.0,0.0,0.0,0.0,0.0,0.0,0.0,0.0,0.0,0.0,0.0,0.0,0.0,0.0,-4.4243,-4.3735,-4.3735,-4.3735,-4.3735,-4.3735,-4.3662,-4.3608,-4.3608,-4.3551,-4.3515,-4.3515,-4.3515,-4.3515,-4.3515,-4.3515,0.0,0.0,-4.3515,-4.3515,-4.3515,-4.3515,-4.325,-4.2882,-4.2844,-4.2277,-4.1494,0.0,0.0,0.0,0.0,0.0,0.0,-1.1764,-1.2931,-1.4494,-1.6959,-1.7886,-1.8422,-1.8663,-1.7003,-1.567,0.0,0.0,0.0,0.0,0.0,0.0,0.0,0.0,0.0,0.0,0.0,0.0,0.0,0.0,0.0,0.0,0.0,0.0,0.0,0.0,0.0,0.0,0.0,0.0,0.0,0.0,0.0,0.0,0.0,0.0,0.0,0.0,0.0,0.0,0.0,0.0,0.0,-2.2691,-2.4677,0.0,0.0,-3.2704,-3.4469,-3.6593,-3.7764,-3.8302,-3.7968,-3.6036,-3.3566,-3.1143,0.0,-2.6442,-2.4834,-2.45,-2.45,-2.45,-2.4411,-2.4801,0.0,-2.675,0.0,0.0,0.0,0.0,0.0,0.0,0.0,0.0,0.0,0.0,0.0,0.0,0.0,0.0,-4.3784,-4.3515,-4.3515,-4.3515,-4.3515,-4.3515,-4.3515,-4.3515,-4.3515,-4.3515,-4.3515,-4.3515,-4.3515,-4.3515,-4.3515,-4.3515,0.0,0.0,-4.3515,-4.3515,-4.3515,-4.3515,-4.325,-4.2901,-4.2901,-4.2478,-4.1885,0.0,0.0,0.0,0.0,0.0,-0.9795,-1.1868,-1.2793,-1.4218,-1.6848,-1.7373,-1.7848,-1.8732,-1.7293,-1.6071,-1.5561,0.0,0.0,0.0,0.0,0.0,0.0,0.0,0.0,0.0,0.0,0.0,0.0,0.0,0.0,0.0,0.0,0.0,0.0,0.0,0.0,0.0,0.0,0.0,0.0,0.0,0.0,0.0,0.0,0.0,0.0,0.0,0.0,0.0,0.0,0.0,0.0,0.0,0.0,0.0,0.0,-3.0598,-3.2678,-3.4983,-3.6313,-3.7034,-3.684,-3.5126,-3.2853,0.0,0.0,-2.6172,-2.4778,-2.45,-2.45,-2.45,-2.45,-2.4614,0.0,-2.5616,-2.7189,-3.0399,0.0,0.0,0.0,0.0,0.0,0.0,0.0,0.0,0.0,0.0,0.0,0.0,-4.3583,-4.3513,-4.3515,-4.3515,-4.3515,-4.3515,-4.3515,-4.3515,-4.3515,-4.3515,-4.3515,-4.3515,-4.3515,-4.3515,-4.3515,0.0,0.0,0.0,-4.3515,-4.3515,-4.3515,-4.3515,-4.3322,-4.3087,-4.3087,-4.2788,-4.2358,0.0,0.0,0.0,0.0,0.0,0.0,0.0,-1.2041,-1.3077,-1.4632,-1.5469,-1.6209,-1.6949,-1.6534,-1.6227,-1.6283,0.0,0.0,0.0,0.0,0.0,0.0,0.0,0.0,0.0,0.0,0.0,0.0,0.0,0.0,0.0,0.0,0.0,0.0,0.0,0.0,0.0,0.0,0.0,0.0,0.0,0.0,0.0,0.0,0.0,0.0,0.0,0.0,0.0,0.0,0.0,0.0,0.0,0.0,0.0,0.0,-2.7888,-3.0642,-3.2523,-3.4055,-3.4984,-3.4389,-3.3008,-3.118,0.0,-2.6869,-2.5485,-2.4667,-2.45,-2.45,-2.45,-2.45,-2.45,-2.4518,-2.5847,-2.7532,-2.9362,0.0,0.0,0.0,0.0,0.0,0.0,0.0,0.0,0.0,0.0,0.0,0.0,-4.3478,-4.3565,-4.3496,-4.3515,-4.3515,-4.3515,-4.3515,-4.3515,-4.3515,-4.3515,-4.3515,-4.3515,-4.3515,-4.3515,0.0,0.0,0.0,0.0,-4.3515,-4.3515,-4.3515,-4.3515,-4.3497,-4.3479,-4.3479,-4.325,-4.2882,0.0,0.0,0.0,0.0,0.0,0.0,0.0,-1.0773,-1.1654,-1.3708,-1.4184,-1.4831,-1.6105,-1.5723,-1.5395,-1.541,0.0,0.0,0.0,0.0,0.0,0.0,0.0,0.0,0.0,0.0,0.0,0.0,0.0,0.0,0.0,0.0,0.0,0.0,0.0,0.0,0.0,0.0,0.0,0.0,0.0,0.0,0.0,0.0,0.0,0.0,0.0,0.0,0.0,0.0,0.0,0.0,0.0,0.0,0.0,-2.2115,-2.4624,0.0,-2.919,-3.081,-3.1851,-3.1103,-3.053,-2.9657,-2.7724,-2.6461,-2.5466,-2.4667,-2.45,-2.45,-2.45,-2.45,-2.4853,-2.5968,0.0,0.0,0.0,0.0,0.0,0.0,0.0,0.0,0.0,0.0,0.0,0.0,0.0,0.0,0.0,-4.3736,-4.3667,-4.3565,-4.3513,-4.3515,-4.3515,-4.3515,-4.3515,-4.3515,-4.3515,-4.3515,-4.3515,-4.3515,0.0,0.0,0.0,0.0,0.0,-4.3515,-4.3515,-4.3515,-4.3515,-4.3515,-4.3515,-4.3515,-4.341,-4.3268,0.0,0.0,0.0,0.0,0.0,0.0,0.0,-1.0227,-1.0929,-1.2914,-1.3173,-1.377,-1.5314,-1.489,-1.4606,-1.4969,0.0,0.0,0.0,0.0,0.0,0.0,0.0,0.0,0.0,0.0,0.0,0.0,0.0,0.0,0.0,0.0,0.0,0.0,0.0,0.0,0.0,0.0,0.0,0.0,0.0,0.0,-1.9609,0.0,0.0,0.0,0.0,0.0,0.0,0.0,0.0,0.0,0.0,0.0,0.0,0.0,-2.2245,-2.4342,0.0,-2.8091,-2.9032,-2.893,-2.8672,-2.8021,-2.6377,-2.5346,-2.4612,-2.4111,-2.3999,-2.4119,-2.4444,-2.45,-2.4834,-2.5838,0.0,0.0,0.0,0.0,0.0,0.0,0.0,0.0,0.0,0.0,0.0,0.0,0.0,0.0,0.0,0.0,-4.3786,-4.3667,-4.3566,-4.3515,-4.3515,-4.3515,-4.3515,-4.3515,-4.3515,-4.3515,-4.3515,-4.3515,0.0,0.0,0.0,0.0,0.0,-4.3515,-4.3515,-4.3515,-4.3515,-4.3515,-4.3515,-4.3515,-4.3515,-4.3462,0.0,0.0,0.0,0.0,0.0,0.0,0.0,0.0,-1.0659,-1.2144,-1.2386,-1.2991,-1.4476,-1.4019,-1.3962,-1.4862,0.0,0.0,0.0,0.0,0.0,0.0,0.0,0.0,0.0,0.0,0.0,-1.9436,-1.9488,-1.9587,-1.9735,0.0,0.0,0.0,0.0,0.0,0.0,0.0,0.0,0.0,0.0,-1.9609,0.0,0.0,0.0,0.0,0.0,0.0,0.0,0.0,0.0,0.0,0.0,0.0,0.0,0.0,0.0,0.0,0.0,-2.5753,-2.6418,-2.7359,-2.7055,-2.6163,-2.4667,-2.3702,0.0,-2.311,-2.3165,-2.3471,-2.4351,-2.45,-2.4555,-2.4723,0.0,0.0,0.0,0.0,0.0,0.0,0.0,0.0,0.0,0.0,0.0,0.0,0.0,0.0,0.0,0.0,-4.3816,-4.3788,-4.36,-4.3515,-4.3515,-4.3515,-4.3515,-4.3515,-4.3515,-4.3515,-4.3515,-4.3515,0.0,0.0,0.0,0.0,0.0,-4.3515,-4.3515,-4.3515,-4.3515,-4.3515,-4.3515,-4.3515,-4.3515,-4.3515,0.0,0.0,0.0,0.0,0.0,0.0,0.0,0.0,0.0,0.0,-1.1281,-1.2006,-1.2939,-1.338,-1.3783,0.0,0.0,0.0,0.0,0.0,0.0,0.0,0.0,0.0,0.0,0.0,0.0,-1.8743,-1.9409,-1.9767,-1.9871,-2.0498,0.0,0.0,0.0,0.0,0.0,0.0,0.0,0.0,-1.9609,-1.9609,0.0,0.0,0.0,0.0,-1.9609,-1.9609,0.0,0.0,0.0,0.0,0.0,0.0,0.0,0.0,-1.9887,-2.0184,-2.1577,0.0,-2.2977,-2.2601,-2.2839,-2.3044,0.0,-2.2431,-2.2274,0.0,0.0,0.0,-2.4351,-2.45,0.0,0.0,0.0,0.0,0.0,0.0,0.0,0.0,0.0,0.0,0.0,0.0,0.0,0.0,0.0,0.0,0.0,0.0,-4.3338,-4.3634,-4.3566,-4.3515,-4.3515,-4.3515,-4.3515,-4.3515,-4.3515,-4.3515,-4.3515,-4.3515,0.0,0.0,0.0,0.0,-4.3515,-4.3515,-4.3515,-4.3515,-4.3515,-4.3515,-4.3515,-4.3515,-4.3515,-4.3515,0.0,0.0,0.0,0.0,0.0,0.0,0.0,0.0,0.0,0.0,0.0,0.0,0.0,0.0,0.0,0.0,0.0,0.0,0.0,0.0,0.0,0.0,0.0,0.0,0.0,0.0,0.0,0.0,0.0,-2.0442,0.0,0.0,0.0,0.0,0.0,0.0,0.0,0.0,0.0,0.0,-1.9609,0.0,0.0,0.0,0.0,0.0,-1.9609,-1.9609,0.0,-1.9609,-1.9609,-1.9609,0.0,0.0,0.0,0.0,-1.9609,-1.9701,-2.0128,-2.1384,-2.2534,-2.2513,-2.2829,-2.3052,-2.2646,0.0,0.0,0.0,0.0,0.0,0.0,0.0,0.0,0.0,0.0,0.0,0.0,0.0,0.0,0.0,0.0,0.0,0.0,0.0,0.0,0.0,0.0,0.0,0.0,0.0,-4.3426,-4.3599,-4.3565,-4.3513,-4.3515,-4.3515,-4.3515,-4.3515,-4.3515,-4.3515,-4.3515,-4.3515,-4.3515,0.0,0.0,0.0,-4.3515,-4.3515,-4.3515,-4.3515,-4.3515,-4.3515,-4.3515,-4.3515,-4.3515,-4.3515,0.0,0.0,0.0,0.0,0.0,0.0,0.0,0.0,0.0,0.0,0.0,0.0,0.0,0.0,0.0,0.0,0.0,0.0,0.0,0.0,0.0,0.0,0.0,0.0,0.0,0.0,0.0,0.0,0.0,0.0,0.0,0.0,-2.1943,0.0,0.0,0.0,0.0,0.0,0.0,0.0,0.0,0.0,0.0,0.0,0.0,0.0,0.0,0.0,0.0,-1.9609,-1.9609,-1.9609,-1.9609,0.0,0.0,0.0,0.0,0.0,-1.9906,-2.1651,-2.3489,-2.3841,-2.4119,-2.4082,-2.3203,0.0,0.0,0.0,0.0,0.0,0.0,0.0,0.0,0.0,0.0,0.0,0.0,0.0,0.0,0.0,0.0,0.0,0.0,0.0,0.0,0.0,0.0,0.0,0.0,0.0,0.0,-4.3582,-4.3582,-4.3548,-4.3515,-4.3515,-4.3515,-4.3515,-4.3515,-4.3515,-4.3515,-4.3515,-4.3515,0.0,0.0,0.0,-4.3515,-4.3515,-4.3515,-4.3515,-4.3515,-4.3515,-4.3515,-4.3515,-4.3515,-4.3479,0.0,0.0,0.0,0.0,0.0,0.0,0.0,0.0,0.0,0.0,0.0,0.0,0.0,0.0,0.0,0.0,0.0,0.0,0.0,0.0,0.0,0.0,0.0,0.0,0.0,0.0,0.0,0.0,0.0,0.0,-2.1373,-2.2488,-2.2259,0.0,0.0,0.0,0.0,0.0,0.0,0.0,0.0,0.0,0.0,0.0,0.0,0.0,0.0,0.0,0.0,-1.9609,-1.9609,-1.9609,-1.9609,0.0,0.0,0.0,0.0,0.0,-2.1254,-2.294,-2.3822,-2.1855,-2.2394,-2.3184,-2.2367,0.0,0.0,0.0,0.0,0.0,0.0,0.0,0.0,0.0,0.0,0.0,0.0,0.0,0.0,0.0,0.0,0.0,0.0,0.0,0.0,0.0,0.0,0.0,0.0,0.0,0.0,-4.3515,-4.3532,-4.3515,-4.3515,-4.3515,-4.3515,-4.3515,-4.3515,-4.3515,-4.3515,-4.3515,-4.3515,0.0,0.0,-4.3515,-4.3515,-4.3515,-4.3515,-4.3515,-4.3515,-4.3515,-4.3515,-4.3515,-4.3515,-4.3444,0.0,0.0,0.0,0.0,0.0,0.0,0.0,0.0,0.0,0.0,0.0,0.0,0.0,0.0,0.0,0.0,0.0,0.0,0.0,0.0,0.0,0.0,0.0,0.0,0.0,0.0,0.0,0.0,0.0,-2.201,-2.2648,-2.2253,-2.1498,-2.042,0.0,0.0,0.0,0.0,0.0,-1.9609,0.0,0.0,0.0,0.0,0.0,0.0,0.0,0.0,0.0,0.0,-1.9212,-1.9609,-1.9609,0.0,0.0,0.0,0.0,0.0,-2.0493,-2.2227,-2.3508,-2.2386,-2.3657,-2.5225,-2.5281,0.0,0.0,0.0,0.0,0.0,0.0,0.0,0.0,0.0,0.0,0.0,0.0,0.0,0.0,0.0,0.0,0.0,0.0,0.0,0.0,0.0,0.0,0.0,0.0,0.0,0.0,0.0,-4.36,-4.3548,-4.3548,-4.3548,-4.3549,-4.3515,-4.3515,-4.3515,-4.3515,-4.3515,-4.3515,-4.3515,0.0,-4.3515,-4.3515,-4.3515,-4.3515,-4.3515,-4.3515,-4.3515,-4.3515,-4.3515,-4.3515,-4.3444,0.0,0.0,0.0,0.0,0.0,0.0,0.0,0.0,0.0,0.0,0.0,0.0,0.0,0.0,0.0,0.0,0.0,0.0,0.0,0.0,0.0,0.0,0.0,0.0,0.0,0.0,-2.0214,-2.0989,-2.1772,-2.2545,-2.3226,-2.1717,-2.0676,0.0,0.0,0.0,0.0,0.0,0.0,-1.9609,0.0,0.0,0.0,0.0,0.0,0.0,0.0,0.0,0.0,0.0,0.0,0.0,0.0,0.0,0.0,-1.9609,-1.9609,-1.9683,-2.0054,-2.1643,-2.3295,-2.3694,-2.5207,-2.6869,-2.7853,0.0,0.0,0.0,0.0,0.0,0.0,0.0,0.0,0.0,0.0,0.0,0.0,0.0,0.0,0.0,0.0,0.0,0.0,0.0,0.0,0.0,0.0,0.0,0.0,0.0,0.0,0.0,-4.3703,-4.3651,-4.3651,-4.3651,-4.36,-4.3515,-4.3515,-4.3515,-4.3515,-4.3515,-4.3515,-4.3515,-4.3515,-4.3404,-4.3222,-4.3222,-4.3112,-4.2928,-4.2928,-4.2928,-4.2928,-4.2928,-4.2928,-4.2894,0.0,0.0,0.0,0.0,0.0,0.0,0.0,0.0,0.0,0.0,0.0,0.0,0.0,0.0,0.0,0.0,0.0,0.0,0.0,0.0,0.0,0.0,0.0,0.0,0.0,-1.9335,-2.0282,-2.0354,-2.1115,-2.1445,-2.1381,-2.0568,-2.0273,-2.0418,0.0,0.0,0.0,0.0,0.0,-1.9609,-1.9609,0.0,0.0,0.0,0.0,0.0,0.0,0.0,0.0,0.0,0.0,0.0,0.0,0.0,-1.9609,-1.9609,-1.9609,-1.9924,-2.1421,-2.2497,-2.3574,-2.5123,-2.5643,0.0,-2.7663,-2.7874,0.0,0.0,0.0,0.0,0.0,0.0,0.0,0.0,0.0,0.0,0.0,0.0,0.0,0.0,0.0,0.0,0.0,0.0,0.0,0.0,0.0,0.0,0.0,0.0,0.0,0.0,0.0,-4.3788,-4.3788,-4.3788,-4.3686,-4.3515,-4.3515,-4.3515,-4.3515,-4.3515,-4.3515,-4.3515,-4.3515,-4.3075,-4.2396,-4.2396,-4.1956,-4.126,-4.126,-4.126,-4.126,-4.126,-4.126,-4.126,0.0,0.0,0.0,0.0,0.0,0.0,0.0,0.0,0.0,0.0,0.0,0.0,0.0,0.0,0.0,0.0,0.0,0.0,0.0,0.0,0.0,0.0,0.0,-1.6385,-1.7155,-1.9219,-2.03,-2.03,-2.1215,-2.1298,-2.0644,-2.054,0.0,0.0,0.0,0.0,0.0,0.0,0.0,-1.9609,-1.9609,-1.9609,0.0,0.0,0.0,0.0,0.0,0.0,0.0,0.0,-1.769,-1.8692,0.0,0.0,0.0,0.0,-1.9175,-1.9739,-2.0344,-2.1832,-2.3355,-2.3993,0.0,0.0,0.0,0.0,0.0,0.0,0.0,0.0,0.0,0.0,0.0,0.0,0.0,0.0,0.0,0.0,0.0,0.0,0.0,0.0,0.0,0.0,0.0,0.0,0.0,0.0,0.0,0.0,0.0,0.0,0.0,-4.2368,-4.2368,-4.2368,-4.2287,-4.214,-4.2605,-4.252,-4.2011,-4.2011,-4.2011,-4.2011,-4.2011,-4.1827,-4.1535,-4.1535,-4.137,-4.1095,-4.1095,-4.1095,-4.1095,-4.1095,-4.1095,-4.1095,0.0,0.0,0.0,0.0,0.0,0.0,0.0,0.0,0.0,0.0,0.0,0.0,0.0,0.0,0.0,0.0,0.0,0.0,0.0,0.0,0.0,0.0,0.0,-1.6078,-1.689,-1.8424,-1.9477,-1.9977,-2.0927,-2.0926,-2.0044,0.0,0.0,0.0,0.0,0.0,0.0,0.0,0.0,0.0,-1.9609,-1.9609,0.0,0.0,0.0,0.0,0.0,0.0,0.0,0.0,-1.6799,0.0,0.0,0.0,0.0,0.0,0.0,-1.9958,-1.9958,-2.1522,-2.3229,0.0,0.0,0.0,0.0,0.0,0.0,0.0,0.0,0.0,0.0,0.0,0.0,0.0,0.0,0.0,0.0,0.0,0.0,0.0,0.0,0.0,0.0,0.0,0.0,0.0,0.0,0.0,0.0,0.0,0.0,0.0,0.0,-4.1519,-4.1519,-4.1519,-4.1344,-4.0957,-4.1464,-4.1512,-4.1158,-4.1158,-4.1142,-4.1126,-4.1126,-4.0981,-4.0726,-4.0726,-4.0579,-4.0343,-4.0343,-4.0343,-4.0343,-4.0343,-4.0343,-4.0343,0.0,0.0,0.0,0.0,0.0,0.0,0.0,0.0,0.0,0.0,0.0,0.0,0.0,0.0,0.0,0.0,0.0,0.0,0.0,0.0,0.0,0.0,0.0,-1.6059,-1.6853,-1.689,-1.7667,-1.9279,-2.0089,-2.0147,-1.949,-1.9509,0.0,0.0,0.0,0.0,0.0,0.0,0.0,0.0,-1.9609,-1.9609,-1.9423,0.0,0.0,0.0,0.0,0.0,0.0,0.0,-1.6427,-1.7226,0.0,0.0,0.0,0.0,-2.0111,-2.0703,-2.0685,-2.1881,-2.3288,0.0,0.0,0.0,0.0,0.0,0.0,0.0,0.0,0.0,0.0,0.0,0.0,0.0,0.0,0.0,0.0,0.0,0.0,0.0,0.0,0.0,0.0,0.0,0.0,0.0,0.0,0.0,0.0,0.0,0.0,0.0,-4.1571,-4.1571,-4.1571,-4.1571,-4.11,-4.0196,-4.0196,-4.0577,-4.128,-4.128,-4.1248,-4.1185,-4.1185,-4.0696,-3.9882,-3.9882,-3.9423,-3.8707,-3.8707,-3.8707,-3.8707,-3.8707,-3.8707,-3.8707,0.0,0.0,0.0,0.0,0.0,0.0,0.0,0.0,0.0,0.0,0.0,0.0,0.0,0.0,0.0,0.0,0.0,0.0,0.0,0.0,0.0,0.0,0.0,0.0,0.0,0.0,-1.6566,-1.7612,-1.9606,-1.9895,0.0,0.0,0.0,-1.8709,0.0,0.0,0.0,0.0,0.0,0.0,0.0,-1.9609,-1.9479,0.0,0.0,0.0,0.0,0.0,0.0,0.0,0.0,0.0,0.0,0.0,0.0,0.0,-1.921,-2.057,-2.0,-2.1406,0.0,0.0,0.0,0.0,0.0,0.0,0.0,0.0,0.0,0.0,0.0,0.0,0.0,0.0,0.0,0.0,0.0,0.0,0.0,0.0,0.0,0.0,0.0,0.0,0.0,0.0,0.0,0.0,0.0,0.0,0.0,0.0,-3.9844,-3.9844,-3.9844,-3.9844,-3.97,-3.943,-3.943,-3.9489,-3.9597,-3.9552,-3.954,-3.951,-3.9467,-3.9292,-3.9056,-3.9056,-3.8927,-3.8707,-3.8707,-3.8707,-3.8707,-3.8707,-3.8707,-3.8707,0.0,0.0,0.0,0.0,0.0,0.0,0.0,0.0,0.0,0.0,0.0,0.0,0.0,0.0,0.0,0.0,0.0,0.0,0.0,0.0,0.0,0.0,0.0,0.0,0.0,-1.5912,-1.642,0.0,0.0,0.0,0.0,0.0,0.0,-1.8807,0.0,-1.884,0.0,0.0,0.0,0.0,-1.8878,-1.9082,-1.8989,0.0,0.0,0.0,0.0,0.0,0.0,0.0,0.0,0.0,0.0,0.0,0.0,-1.8079,-1.9286,-2.0699,-2.0842,0.0,0.0,0.0,0.0,0.0,0.0,0.0,0.0,0.0,0.0,0.0,0.0,0.0,0.0,0.0,0.0,0.0,0.0,0.0,0.0,0.0,0.0,0.0,0.0,0.0,0.0,0.0,0.0,0.0,0.0,0.0,0.0,0.0,-3.9101,-3.9101,-3.9101,-3.9101,-3.9101,-3.9101,-3.9101,-3.9059,-3.8979,-3.8906,-3.8851,-3.8807,-3.8719,-3.8707,-3.8707,-3.8707,-3.8707,-3.8707,-3.8707,-3.8707,-3.8707,-3.8707,-3.8707,-3.8707,0.0,0.0,-1.0062,-1.0875,0.0,0.0,0.0,0.0,0.0,0.0,0.0,-1.3115,0.0,0.0,0.0,-1.317,0.0,0.0,0.0,0.0,0.0,0.0,0.0,0.0,0.0,0.0,0.0,0.0,0.0,0.0,0.0,0.0,-1.8573,-1.9281,0.0,-1.8952,0.0,0.0,0.0,0.0,-1.8154,-1.8191,-1.8117,-1.7374,0.0,0.0,0.0,0.0,0.0,0.0,0.0,0.0,0.0,0.0,-1.6435,-1.8545,-1.9845,-2.0915,0.0,0.0,0.0,0.0,0.0,0.0,0.0,0.0,0.0,0.0,0.0,0.0,0.0,0.0,0.0,0.0,0.0,0.0,0.0,0.0,0.0,0.0,0.0,0.0,0.0,0.0,0.0,0.0,0.0,0.0,0.0,0.0,0.0,0.0,-3.899,-3.9027,-3.9101,-3.9101,-3.9064,0.0,-3.899,-3.8952,-3.8864,-3.8947,-3.8925,-3.8792,-3.8719,-3.8707,-3.8707,-3.8707,-3.8707,-3.8707,-3.8707,-3.8707,-3.8707,-3.8707,-3.8707,-3.8707,0.0,0.0,-1.0898,-1.1709,0.0,0.0,0.0,0.0,-1.2357,-1.2357,-1.182,-1.165,-1.2283,-1.1801,0.0,-1.2302,-1.1783,0.0,0.0,0.0,0.0,0.0,0.0,0.0,0.0,0.0,0.0,0.0,0.0,0.0,0.0,0.0,0.0,-1.7569,0.0,-1.7738,0.0,0.0,0.0,-1.6465,-1.7096,-1.7356,-1.7337,-1.717,-1.6594,0.0,0.0,0.0,0.0,0.0,0.0,0.0,-1.639,-1.683,-1.6824,-1.6713,-1.858,-2.0594,0.0,-2.2271,0.0,0.0,0.0,0.0,0.0,0.0,0.0,0.0,0.0,0.0,0.0,0.0,0.0,0.0,0.0,0.0,0.0,0.0,0.0,0.0,0.0,0.0,0.0,0.0,0.0,0.0,0.0,0.0,0.0,0.0,0.0,-3.8135,-3.8154,-3.8451,-3.9082,-3.9101,-3.8785,0.0,-3.8154,-3.7811,-3.7187,-3.8395,-3.8851,-3.8719,-3.8707,-3.8707,-3.8707,-3.8707,-3.8707,-3.8707,-3.8707,-3.8707,-3.8707,-3.8707,-3.8707,-3.8707,0.0,0.0,0.0,0.0,0.0,0.0,0.0,0.0,-1.2247,-1.2614,-1.1966,-1.1631,-1.2058,-1.1375,0.0,0.0,-1.1132,-1.1077,0.0,0.0,0.0,0.0,0.0,0.0,0.0,0.0,0.0,0.0,0.0,0.0,0.0,0.0,0.0,-1.8156,0.0,-1.7602,0.0,0.0,0.0,-1.5945,-1.6353,-1.652,-1.652,-1.652,-1.6038,-1.5338,-1.5338,0.0,0.0,0.0,0.0,0.0,0.0,0.0,-1.5977,-1.6318,-1.7895,-1.9667,0.0,0.0,0.0,0.0,0.0,0.0,0.0,0.0,0.0,0.0,0.0,0.0,0.0,0.0,0.0,0.0,0.0,0.0,0.0,0.0,0.0,0.0,0.0,0.0,0.0,0.0,0.0,0.0,0.0,0.0,0.0,-3.6666,-3.6904,-3.7312,-3.7318,-3.7522,-3.7949,-3.7949,-3.7745,-3.7318,-3.7318,-3.7074,-3.6641,-3.7794,-3.8265,-3.818,-3.818,-3.8165,-3.8102,-3.7716,-3.7551,-3.7551,-3.7551,-3.7551,-3.7606,-3.7973,-3.812,-3.8175,0.0,0.0,0.0,0.0,0.0,0.0,0.0,0.0,0.0,-1.301,-1.2504,-1.21,-1.21,-1.1269,-1.0691,0.0,0.0,0.0,-1.0893,0.0,0.0,0.0,0.0,0.0,0.0,0.0,0.0,0.0,0.0,0.0,0.0,0.0,0.0,-1.9133,0.0,0.0,0.0,0.0,-1.5481,-1.5462,-1.5314,-1.5258,-1.5258,-1.5258,-1.4942,-1.4484,-1.4484,-1.4576,-1.4725,-1.4855,0.0,0.0,0.0,0.0,-1.4862,-1.6196,-1.7246,-1.8433,0.0,0.0,0.0,0.0,0.0,0.0,0.0,0.0,0.0,0.0,0.0,0.0,0.0,0.0,0.0,0.0,0.0,0.0,0.0,0.0,0.0,0.0,0.0,0.0,0.0,0.0,0.0,0.0,0.0,0.0,-3.6192,-3.6252,-3.6346,-3.6495,-3.6495,-3.6569,-3.6699,-3.6699,-3.663,-3.6495,-3.6346,-3.6252,-3.621,-3.6971,-3.7345,-3.7407,-3.7407,-3.7378,-3.7265,-3.6603,-3.6332,-3.6332,-3.6332,-3.6317,-3.6395,-3.7199,-3.7492,-3.7621,0.0,0.0,0.0,0.0,0.0,0.0,0.0,0.0,0.0,0.0,-1.2164,-1.2104,-1.2105,-1.0754,-0.9864,-0.9864,-0.9864,-1.0153,0.0,0.0,0.0,0.0,0.0,0.0,0.0,0.0,0.0,0.0,0.0,0.0,0.0,0.0,0.0,-1.825,0.0,0.0,0.0,0.0,-1.3777,-1.3759,-1.2993,-1.2696,-1.2696,-1.2696,-1.3105,-1.3667,-1.3667,-1.4112,-1.4818,-1.5499,-1.5282,0.0,0.0,0.0,0.0,0.0,-1.5974,-1.7226,0.0,0.0,0.0,0.0,0.0,0.0,0.0,0.0,0.0,0.0,0.0,0.0,0.0,0.0,0.0,0.0,0.0,0.0,0.0,0.0,0.0,0.0,0.0,0.0,0.0,0.0,0.0,0.0,0.0,0.0,-3.4519,-3.4531,-3.4878,-3.564,-3.5659,-3.5993,-3.6686,-3.6699,-3.6346,-3.5659,-3.4884,-3.4531,-3.4556,-3.5398,-3.6112,-3.6648,-3.6648,-3.6648,-3.6616,-3.6505,-3.644,-3.6384,-3.6384,-3.6342,-3.6395,-3.7199,-3.7492,-3.7621,0.0,0.0,0.0,0.0,0.0,0.0,0.0,0.0,0.0,0.0,0.0,-1.2105,-1.2147,-1.1089,-1.0194,-0.9736,-0.9706,0.0,0.0,0.0,0.0,0.0,0.0,0.0,0.0,0.0,0.0,0.0,0.0,0.0,0.0,-1.7275,-1.8071,0.0,0.0,0.0,0.0,0.0,0.0,-1.3518,-1.3569,-1.3866,-1.4163,-1.3272,-1.3741,-1.4725,-1.3815,0.0,0.0,-1.4966,-1.498,-1.4757,-1.5064,0.0,0.0,0.0,0.0,0.0,0.0,0.0,0.0,0.0,0.0,0.0,0.0,0.0,0.0,0.0,0.0,0.0,0.0,0.0,0.0,0.0,0.0,0.0,0.0,0.0,0.0,0.0,0.0,0.0,0.0,0.0,0.0,0.0,0.0,-3.4197,-3.4197,-3.4197,-3.4395,-3.4767,-3.4773,-3.4952,-3.5293,-3.5293,-3.5107,-3.4767,-3.4383,-3.4197,-3.4197,-3.4599,-3.5187,-3.5885,-3.588,-3.5853,-3.5794,-3.5269,-3.5026,-3.4999,-3.4958,-3.4936,-3.5,-3.5807,-3.6101,-3.6229,0.0,0.0,0.0,0.0,0.0,0.0,0.0,0.0,0.0,0.0,0.0,-1.2055,-1.1888,0.0,0.0,0.0,-0.9691,0.0,0.0,0.0,0.0,0.0,0.0,0.0,0.0,0.0,0.0,0.0,0.0,0.0,-1.8089,-1.7704,-1.9271,0.0,-2.0518,0.0,0.0,0.0,0.0,-1.4149,-1.4539,-1.5059,-1.5499,-1.4725,-1.5295,-1.6297,0.0,0.0,0.0,0.0,0.0,0.0,0.0,0.0,0.0,0.0,0.0,0.0,0.0,0.0,0.0,0.0,0.0,0.0,0.0,0.0,0.0,0.0,0.0,0.0,0.0,0.0,0.0,0.0,0.0,0.0,0.0,0.0,0.0,0.0,0.0,0.0,0.0,0.0,0.0,0.0,0.0,-3.4197,-3.4197,-3.4197,-3.4197,-3.4197,-3.4197,-3.4197,-3.4197,-3.4197,-3.4197,-3.4197,-3.4197,-3.4197,-3.4197,-3.4197,-3.4544,-3.5093,-3.5087,-3.508,-3.496,-3.4249,-3.3934,-3.3921,-3.3842,-3.382,-3.3899,-3.4711,-3.5004,-3.5133,0.0,0.0,0.0,0.0,0.0,0.0,0.0,0.0,0.0,0.0,0.0,-1.1888,-1.1068,-1.0934,-1.0576,-0.9779,-0.9702,0.0,0.0,0.0,0.0,0.0,0.0,0.0,0.0,0.0,0.0,0.0,0.0,0.0,-1.8115,-1.8831,-2.0931,-2.3969,-2.1598,-1.966,-1.8109,0.0,0.0,-1.5704,-1.4985,-1.4725,-1.4929,-1.6353,-1.7448,-1.7968,0.0,0.0,0.0,0.0,0.0,0.0,0.0,0.0,0.0,0.0,0.0,0.0,0.0,0.0,0.0,0.0,0.0,0.0,0.0,0.0,0.0,0.0,0.0,0.0,0.0,0.0,0.0,0.0,0.0,0.0,0.0,0.0,0.0,0.0,0.0,0.0,0.0,0.0,0.0,0.0,0.0,-3.4197,-3.4197,-3.4197,-3.4197,-3.4197,-3.4197,-3.4197,-3.4197,-3.4197,-3.4197,-3.4197,-3.4197,-3.4197,-3.4197,-3.4197,-3.4216,-3.4271,-3.4271,-3.4271,-3.4259,-3.4142,-3.4049,-3.3985,-3.3921,-3.3873,-3.3899,-3.4711,-3.5004,-3.5133,0.0,0.0,0.0,0.0,0.0,0.0,0.0,0.0,0.0,0.0,0.0,0.0,0.0,-1.0934,-1.0586,-0.9776,-0.9743,0.0,0.0,0.0,0.0,0.0,0.0,0.0,0.0,0.0,0.0,0.0,0.0,-1.2614,-1.6555,-1.6334,-1.7674,-2.0299,-2.0502,-2.0275,-1.9608,-1.7534,0.0,0.0,-1.6706,-1.7356,0.0,-1.7857,-1.8729,-1.9694,0.0,0.0,0.0,0.0,0.0,0.0,0.0,-1.4055,-1.3832,-1.3493,0.0,0.0,0.0,0.0,0.0,0.0,0.0,0.0,0.0,0.0,0.0,0.0,0.0,0.0,0.0,0.0,0.0,0.0,0.0,0.0,0.0,0.0,0.0,0.0,0.0,0.0,0.0,0.0,0.0,0.0,0.0,0.0,-3.2597,-3.2597,-3.262,-3.2667,-3.2667,-3.2908,-3.3417,-3.3937,-3.3937,-3.3429,-3.3429,-3.3169,-3.2685,-3.3187,-3.315,-3.2723,-3.3751,-3.4197,-3.4197,-3.4124,-3.4061,-3.3998,-3.3921,-3.3855,-3.3825,-3.4119,-3.4215,-3.4284,0.0,0.0,0.0,-1.4856,0.0,-1.241,-1.2335,-1.0888,0.0,0.0,0.0,0.0,0.0,0.0,-1.0912,-0.9863,-0.9811,0.0,0.0,0.0,0.0,0.0,0.0,0.0,0.0,0.0,0.0,0.0,0.0,0.0,0.0,-1.4622,-1.5796,-1.8115,-1.8422,-1.9162,0.0,0.0,0.0,-1.7232,0.0,0.0,-2.0066,0.0,-2.1283,0.0,0.0,0.0,0.0,0.0,0.0,0.0,0.0,-1.4129,-1.3114,-1.3364,0.0,0.0,0.0,0.0,0.0,0.0,0.0,0.0,0.0,0.0,0.0,0.0,0.0,0.0,0.0,0.0,0.0,0.0,0.0,0.0,0.0,0.0,0.0,0.0,0.0,0.0,0.0,0.0,0.0,0.0,0.0,0.0,-3.1691,-3.1714,-3.1748,-3.1794,-3.1794,-3.2072,-3.2593,-3.3131,-3.3131,-3.2611,-3.2611,-3.2314,-3.1831,-3.2351,-3.2314,-3.1868,-3.2915,-3.3559,-3.3807,-3.4012,-3.4061,-3.3998,-3.3921,-3.3855,-3.3807,-3.3807,-3.3807,-3.3807,-1.5059,-1.4996,-1.4927,-1.4984,-1.364,-1.2521,-1.245,-1.0976,-1.0155,-1.0945,0.0,0.0,0.0,0.0,0.0,0.0,0.0,0.0,-0.9899,0.0,0.0,0.0,0.0,0.0,0.0,0.0,0.0,0.0,0.0,0.0,0.0,0.0,-1.5668,-1.7858,-1.5509,-1.6251,-1.9262,0.0,-1.9418,-1.9566,0.0,-2.0752,-2.1216,0.0,0.0,0.0,-2.3564,-2.2757,0.0,0.0,0.0,0.0,0.0,-1.4203,-1.2391,-1.3253,-1.3465,0.0,0.0,0.0,0.0,0.0,0.0,0.0,0.0,0.0,0.0,0.0,0.0,0.0,0.0,0.0,0.0,0.0,0.0,0.0,0.0,0.0,0.0,0.0,0.0,0.0,0.0,0.0,0.0,0.0,0.0,-3.1617,-3.1635,-3.1704,-3.1738,-3.1738,-3.1756,-3.1756,-3.1756,-3.1794,-3.1794,-3.1756,-3.1756,-3.1756,-3.1738,-3.1756,-3.1756,-3.1738,-3.1775,-3.224,-3.299,-3.3747,-3.4043,-3.3998,-3.3934,-3.3855,-3.3807,-3.3807,-3.3807,-3.3807,-1.5089,-1.5078,-1.5048,-1.5063,-1.4204,-1.3484,-1.3429,-1.2468,-1.1801,0.0,0.0,0.0,0.0,0.0,0.0,0.0,0.0,0.0,-1.0087,-1.0054,-1.0068,-1.0073,-1.0297,0.0,0.0,0.0,0.0,0.0,0.0,0.0,0.0,0.0,0.0,0.0,-1.3928,-1.4448,-1.5864,-1.5937,0.0,0.0,-1.9752,-2.0915,0.0,0.0,0.0,0.0,0.0,-2.4491,-2.3748,0.0,-2.2155,-2.0311,0.0,0.0,0.0,-1.3364,-1.3831,0.0,-1.4482,0.0,0.0,0.0,0.0,0.0,0.0,0.0,0.0,0.0,0.0,0.0,0.0,0.0,0.0,0.0,0.0,0.0,0.0,0.0,0.0,0.0,0.0,0.0,0.0,0.0,0.0,0.0,-2.9793,-2.985,-2.9895,-2.9993,-3.0065,-3.0065,-3.0623,-3.092,-3.092,-3.1515,-3.1515,-3.092,-3.092,-3.0623,-3.0084,-3.066,-3.0604,-3.0121,-3.1292,-3.1608,-3.1366,-3.2737,-3.3592,-3.3998,-3.3985,-3.3895,-3.3807,-3.3807,-3.3807,-3.3807,-1.5096,-1.5096,-1.5099,-1.5094,-1.4705,-1.4389,-1.4356,-1.3579,-1.3087,0.0,0.0,0.0,0.0,0.0,0.0,0.0,0.0,0.0,-1.0153,-1.0104,-1.0091,-1.0096,-1.0096,-1.0476,0.0,0.0,0.0,0.0,0.0,0.0,0.0,0.0,0.0,0.0,-1.1949,-1.2459,-1.3519,-1.3219,0.0,0.0,-1.993,0.0,0.0,-2.3878,-2.4393,0.0,0.0,0.0,-2.5086,-2.5084,-2.3686,0.0,0.0,0.0,-1.5369,-1.4619,0.0,0.0,0.0,0.0,0.0,0.0,0.0,0.0,0.0,0.0,0.0,0.0,0.0,0.0,0.0,0.0,0.0,0.0,0.0,0.0,0.0,0.0,0.0,0.0,0.0,0.0,0.0,0.0,0.0,-2.9005,-2.9096,-2.9178,-2.9283,-2.9365,-2.9396,-2.9396,-2.9842,-3.0103,-3.0103,-3.0567,-3.0567,-3.0103,-3.0103,-2.9842,-2.9425,-2.988,-2.9842,-2.9452,-3.0381,-3.0716,-3.066,-3.1608,-3.2597,-3.3537,-3.3512,-3.3639,-3.3847,-3.382,-3.3807,-3.3807,0.0,-1.5096,-1.5138,-1.5225,-1.5237,-1.5271,-1.5358,-1.4679,-1.4399,0.0,0.0,0.0,0.0,0.0,0.0,0.0,0.0,0.0,-1.0447,-1.0202,-1.0091,-1.0099,-1.0096,-1.0438,-1.116,0.0,0.0,0.0,0.0,0.0,0.0,0.0,0.0,0.0,-1.0054,-1.0545,-1.1906,-1.1549,0.0,-1.7118,-2.0083,-2.159,0.0,0.0,-2.5155,0.0,-2.6624,-2.668,-2.5925,-2.5911,-2.4308,0.0,0.0,-1.8668,-1.8277,-1.6688,-1.6781,0.0,0.0,0.0,0.0,0.0,0.0,0.0,-2.0472,-1.9546,0.0,0.0,0.0,0.0,0.0,0.0,0.0,0.0,0.0,0.0,0.0,0.0,0.0,0.0,0.0,0.0,0.0,-2.873,-2.873,-2.873,-2.8854,-2.9021,-2.9237,-2.9266,-2.9304,-2.9407,-2.9396,-2.9396,-2.9396,-2.9396,-2.9396,-2.9396,-2.9396,-2.9396,-2.9396,-2.9396,-2.9396,-2.9396,-2.9396,-2.9805,-3.0474,-3.0474,-3.1388,-3.2784,-3.2797,-3.3203,-3.3771,-3.381,-3.382,-3.3807,-1.5096,-1.5096,-1.5325,-1.6013,-1.6143,-1.6353,-1.7011,-1.6965,-1.6879,-1.6981,0.0,0.0,0.0,0.0,0.0,0.0,0.0,0.0,0.0,-1.0882,-1.0095,-1.0093,-1.0103,-1.0173,-1.0323,-1.0806,0.0,0.0,0.0,0.0,0.0,0.0,0.0,0.0,-0.9879,-0.997,-1.0431,-1.2868,0.0,-1.6159,-1.7412,0.0,-2.3167,-2.3601,-2.423,-2.4969,-2.5984,-2.623,-2.6042,0.0,-2.5179,-2.3848,0.0,0.0,0.0,0.0,0.0,-1.9808,-1.9052,-1.9308,-1.9557,0.0,0.0,0.0,0.0,-1.7477,0.0,0.0,0.0,0.0,0.0,0.0,0.0,0.0,0.0,0.0,0.0,0.0,0.0,0.0,0.0,0.0,0.0,-2.706,-2.706,-2.706,-2.714,-2.7528,-2.8322,-2.8344,-2.8672,-2.9388,-2.9396,-2.9396,-2.9396,-2.9396,-2.9396,-2.9396,-2.9396,-2.9396,-2.9396,-2.9396,-2.9396,-2.9396,-2.9396,-2.9489,-2.9619,-2.9619,-3.0535,-3.2006,-3.2624,-3.289,-3.2998,-3.3642,-3.386,-3.3807,-1.5096,-1.5096,-1.536,-1.6254,-1.6735,-1.7274,-1.8115,-1.8242,-1.8242,0.0,0.0,0.0,0.0,0.0,0.0,0.0,0.0,0.0,0.0,0.0,-1.0743,-1.0743,-1.0325,-1.0103,-1.0096,-1.0496,-1.0466,0.0,0.0,0.0,0.0,0.0,0.0,0.0,0.0,-1.0906,-1.1776,0.0,-1.4364,-1.6017,-1.8498,0.0,-2.3411,-2.395,-2.4471,-2.5069,-2.6015,-2.6314,-2.6236,-2.61,-2.545,0.0,0.0,-2.2856,-2.2492,0.0,-2.1377,-2.1807,0.0,0.0,-2.0966,-2.0232,0.0,0.0,0.0,0.0,0.0,0.0,0.0,0.0,0.0,0.0,0.0,0.0,0.0,0.0,0.0,0.0,0.0,0.0,0.0,0.0,0.0,-2.6602,-2.6605,-2.6654,-2.6682,-2.6927,-2.7421,-2.749,-2.7706,-2.8133,-2.8542,-2.8746,-2.8746,-2.9174,-2.9396,-2.9396,-2.9396,-2.9396,-2.9396,-2.9396,-2.9396,-2.9396,-2.9396,-2.9396,-2.9396,-2.9396,-2.9869,-3.0624,-3.1406,-3.1892,-3.2201,-3.2581,-3.2647,-3.2651,-1.5096,-1.5096,-1.536,-1.6254,-1.7064,-1.789,-1.8773,-1.9039,0.0,0.0,0.0,0.0,0.0,0.0,0.0,0.0,0.0,0.0,0.0,0.0,0.0,-1.1873,-1.0894,-1.0421,-1.0584,-1.0428,-1.023,0.0,0.0,0.0,0.0,0.0,0.0,0.0,0.0,0.0,0.0,0.0,0.0,-1.7077,0.0,-2.2241,-2.2981,-2.4252,-2.4739,-2.4914,-2.5978,-2.639,-2.6382,-2.6053,0.0,-2.4903,-2.4182,-2.4324,0.0,0.0,0.0,0.0,0.0,0.0,0.0,0.0,0.0,-2.006,0.0,0.0,0.0,-1.9604,0.0,0.0,0.0,0.0,0.0,0.0,0.0,0.0,0.0,0.0,0.0,0.0,0.0,0.0,0.0,-2.5768,-2.5825,-2.6199,-2.5935,-2.6003,-2.6513,-2.6627,-2.6739,-2.6888,-2.7538,-2.7947,-2.8096,-2.8802,-2.9229,-2.9396,-2.9396,-2.9396,-2.9396,-2.9396,-2.9396,-2.9396,-2.9396,-2.9396,-2.9396,-2.9396,-2.9396,-2.9471,-3.0234,-3.0872,-3.1394,-3.1501,-3.1477,-3.1519,-1.5096,-1.5096,-1.536,-1.6254,-1.7064,-1.7898,-1.8775,-1.9564,0.0,0.0,0.0,0.0,0.0,0.0,0.0,0.0,0.0,0.0,-1.7103,0.0,0.0,-1.3629,-1.2094,-1.1583,-1.2295,-1.1621,-1.0878,-1.0087,0.0,0.0,0.0,0.0,-1.051,-1.1457,-1.206,0.0,0.0,0.0,-1.7469,0.0,-2.1035,-2.1237,0.0,-2.3106,-2.3834,-2.4079,-2.507,-2.5937,-2.6465,0.0,-2.5748,-2.606,0.0,-2.4905,0.0,0.0,0.0,0.0,0.0,0.0,0.0,0.0,-2.2383,0.0,0.0,0.0,-1.8812,-1.7568,0.0,0.0,0.0,0.0,0.0,0.0,0.0,0.0,0.0,0.0,0.0,0.0,0.0,0.0,0.0,0.0,-2.2932,-2.4383,-2.3225,-2.3388,-2.5522,-2.5773,-2.6163,-2.6869,-2.6981,-2.7371,-2.8096,-2.8207,-2.8635,-2.9396,-2.9396,-2.9396,-2.9396,-2.9396,-2.9396,-2.9396,-2.9396,-2.9396,-2.9396,-2.9396,-2.9396,-2.9471,-3.0288,-3.0605,-3.0687,-3.135,-3.1556,-3.1483,-1.5096,-1.5096,-1.536,-1.6254,-1.6671,-1.7355,-1.8707,-2.0065,0.0,0.0,0.0,0.0,0.0,0.0,0.0,0.0,0.0,-1.9138,0.0,0.0,0.0,-1.5423,-1.3778,-1.2771,-1.2598,-1.1806,-1.0971,-1.0108,-1.0435,0.0,0.0,0.0,-1.1272,-1.3583,-1.3882,0.0,-1.7907,0.0,0.0,0.0,0.0,0.0,0.0,-2.3505,-2.4618,-2.4718,-2.5153,-2.5538,-2.5788,0.0,-2.5447,0.0,0.0,0.0,0.0,0.0,0.0,0.0,0.0,0.0,0.0,0.0,0.0,0.0,0.0,0.0,-1.9476,0.0,0.0,0.0,0.0,0.0,0.0,0.0,0.0,0.0,0.0,0.0,0.0,0.0,0.0,0.0,0.0,0.0,0.0,0.0,0.0,-2.2548,-2.4035,-2.4634,-2.5124,-2.5503,-2.5968,-2.6368,-2.6702,-2.7631,-2.8282,-2.8653,-2.9155,-2.9396,-2.9407,-2.9491,-2.9522,-2.9531,-2.9636,-2.9617,-2.9531,-2.9598,-2.9589,-2.9557,-2.9963,-2.9994,-2.9776,-3.0049,-3.012,-3.0105,-1.5099,0.0,0.0,0.0,-1.623,-1.6972,-1.8666,-2.021,-2.0964,0.0,0.0,0.0,-2.1831,-2.187,0.0,0.0,0.0,-2.135,0.0,0.0,-1.8254,-1.7888,-1.5788,0.0,0.0,0.0,-1.133,-1.047,0.0,0.0,0.0,0.0,0.0,-1.4521,0.0,-1.7068,-1.9729,0.0,0.0,-2.0461,-2.0653,-2.1007,-2.1632,-2.4004,-2.5076,-2.5308,-2.5308,-2.5308,-2.5308,-2.5308,-2.5238,0.0,-2.5264,0.0,0.0,0.0,0.0,0.0,-2.4994,0.0,0.0,0.0,0.0,0.0,0.0,0.0,0.0,0.0,0.0,0.0,0.0,0.0,0.0,0.0,0.0,0.0,0.0,0.0,0.0,0.0,0.0,0.0,0.0,0.0,0.0,0.0,0.0,0.0,-2.3027,-2.3709,-2.4206,-2.45,-2.5076,-2.5485,-2.5708,-2.6898,-2.7727,-2.8184,-2.8866,-2.9306,-2.955,-2.9645,-2.9689,-2.9698,-2.9836,-2.982,-2.9698,-2.9767,-2.9742,-2.9654,-2.9736,-2.958,-2.932,-2.9232,-2.9112,-2.9102,-1.5094,-1.5094,0.0,0.0,0.0,-1.6994,-1.8724,-1.9758,-2.0327,0.0,0.0,0.0,0.0,0.0,0.0,0.0,0.0,-2.274,-2.2682,0.0,-2.0558,-2.1312,-1.8177,-1.6776,0.0,0.0,0.0,0.0,0.0,0.0,0.0,0.0,0.0,0.0,0.0,-1.7347,-1.8954,-2.0618,-2.2708,-2.4765,-2.3235,-2.3616,-2.5038,0.0,-2.4507,-2.5308,-2.5308,0.0,0.0,-2.5308,-2.5303,0.0,0.0,0.0,0.0,0.0,0.0,0.0,0.0,0.0,0.0,-2.2981,0.0,0.0,0.0,0.0,-2.0966,0.0,0.0,0.0,0.0,0.0,0.0,0.0,0.0,0.0,0.0,0.0,0.0,0.0,0.0,0.0,0.0,0.0,0.0,0.0,0.0,0.0,-2.2935,-2.3179,-2.3638,-2.4462,-2.4537,-2.4908,-2.5689,-2.5884,-2.6775,-2.8387,-2.855,-2.9066,-2.9886,-2.9886,-2.9894,-2.9894,-2.9894,-2.9894,-2.9886,-2.9817,-2.9801,-2.9784,-2.9725,-2.9699,-2.9672,-2.9454,-2.9275,-2.9096,0.0,0.0,0.0,0.0,0.0,-1.6378,-1.8639,-2.0188,0.0,0.0,0.0,0.0,0.0,0.0,-2.4105,0.0,0.0,-2.4235,-2.3701,-2.3124,0.0,0.0,0.0,-1.9427,0.0,0.0,0.0,0.0,0.0,0.0,0.0,0.0,0.0,0.0,0.0,-1.8024,0.0,0.0,0.0,0.0,0.0,-2.3775,-2.5264,0.0,0.0,-2.5308,-2.5308,-2.5308,0.0,-2.5308,-2.5308,-2.5308,-2.5308,-2.5308,-2.5303,-2.5297,-2.5297,0.0,0.0,0.0,-2.4978,-2.3795,0.0,0.0,0.0,0.0,0.0,0.0,0.0,0.0,0.0,0.0,0.0,0.0,0.0,0.0,0.0,0.0,0.0,0.0,0.0,0.0,0.0,0.0,0.0,0.0,0.0,0.0,0.0,-2.3633,-2.4403,-2.4753,-2.4753,-2.4904,-2.516,-2.5733,-2.6322,-2.6888,-2.8047,-2.8752,-2.9071,-2.9737,-3.0037,-3.0037,-3.0174,-3.0161,-3.0037,-3.0092,-3.0049,-2.9939,-3.0,-2.9945,-2.9813,-2.9598,-2.9484,-2.9405,-1.6804,0.0,0.0,0.0,0.0,0.0,0.0,0.0,0.0,0.0,-2.2293,0.0,-2.2293,0.0,-2.4293,0.0,-2.5308,-2.5077,-2.4567,-2.4259,0.0,-2.3697,-2.2581,0.0,0.0,0.0,0.0,0.0,0.0,-1.3736,0.0,0.0,0.0,0.0,0.0,0.0,0.0,0.0,-2.3432,0.0,0.0,-2.4346,0.0,0.0,-2.5308,-2.5308,0.0,-2.5308,-2.5308,-2.5308,-2.5308,-2.5308,-2.5308,-2.5308,-2.5303,-2.5307,-2.5302,-2.5297,-2.5252,-2.5276,0.0,-2.4216,-2.3573,0.0,-2.1741,0.0,0.0,0.0,0.0,0.0,0.0,0.0,0.0,0.0,0.0,0.0,0.0,0.0,0.0,0.0,0.0,0.0,0.0,0.0,-1.8093,-1.933,0.0,0.0,0.0,0.0,-2.4566,-2.4883,-2.4902,-2.4902,-2.4902,-2.5454,-2.5892,-2.6222,-2.7665,-2.8505,-2.8817,-2.978,-3.0202,-3.0209,-3.0349,-3.0336,-3.0202,-3.028,-3.0221,-3.0102,-3.018,-3.0123,-2.9984,-2.9777,-2.9662,-2.9589,0.0,0.0,0.0,0.0,-1.7972,0.0,0.0,0.0,-2.2601,0.0,-2.2115,-2.2288,-2.2855,-2.3385,-2.4115,-2.5212,-2.5308,0.0,-2.5308,-2.4582,0.0,0.0,-2.3774,-2.2913,-2.2874,0.0,0.0,0.0,0.0,0.0,0.0,0.0,0.0,0.0,-1.5734,0.0,-1.928,-2.2628,-2.4524,-2.5308,-2.5308,-2.5308,-2.5308,-2.5308,-2.5308,-2.5308,-2.5308,-2.5308,-2.5308,-2.5308,-2.5308,-2.5308,-2.5308,-2.5308,-2.5308,-2.5308,-2.5308,-2.5303,-2.5297,-2.5292,-2.51,-2.4269,0.0,0.0,0.0,0.0,-2.3765,0.0,0.0,0.0,0.0,0.0,0.0,0.0,0.0,0.0,0.0,0.0,0.0,0.0,0.0,0.0,0.0,0.0,-1.688,-1.9033,-1.8777,0.0,0.0,0.0,-2.4043,-2.4884,-2.4922,-2.4922,-2.4922,-2.5056,-2.5535,-2.6357,-2.736,-2.8242,-2.9011,-2.989,-3.0308,-3.0346,-3.0346,-3.0365,-3.0379,-3.0336,-3.0304,-3.0298,-3.0221,-3.0207,-3.0187,-2.9984,-2.9796,-2.9617,-1.7799,-1.8577,-1.9327,0.0,-1.9142,-1.9704,0.0,0.0,0.0,0.0,-2.3712,-2.3558,-2.4558,-2.4788,-2.4981,-2.5269,-2.5308,0.0,0.0,0.0,0.0,-2.5288,-2.4885,-2.4389,-2.3783,-2.1485,0.0,-1.9327,0.0,0.0,-1.5792,0.0,0.0,0.0,0.0,0.0,-2.0119,-2.2239,-2.3966,-2.5308,-2.5308,-2.5308,0.0,0.0,-2.5308,-2.5308,-2.5308,-2.5308,-2.5308,-2.5308,-2.5308,-2.5308,-2.5308,-2.5308,-2.5308,-2.5308,-2.5308,-2.5303,-2.5298,-2.5298,-2.5259,-2.5029,-2.4476,-2.3895,0.0,0.0,0.0,0.0,0.0,0.0,0.0,0.0,0.0,0.0,0.0,0.0,0.0,0.0,0.0,0.0,0.0,0.0,0.0,0.0,-1.734,-1.7781,-1.8419,0.0,0.0,0.0,0.0,-2.5149,-2.5206,-2.5206,-2.5206,-2.5233,-2.5364,-2.5594,-2.6509,-2.7044,-2.7274,-2.814,-2.8871,-2.9429,-2.9429,-2.9794,-3.0379,-3.0336,-3.0304,-3.0298,-3.0221,-3.02,-3.0192,-3.0142,-3.0003,-2.983,-1.9408,0.0,0.0,-2.1897,0.0,0.0,-2.3086,0.0,0.0,-2.5115,-2.5173,0.0,-2.6351,-2.6654,-2.6596,-2.6096,-2.6288,0.0,0.0,0.0,0.0,-2.5327,-2.5308,-2.5096,-2.462,-2.3212,0.0,-2.0308,0.0,0.0,-1.5907,0.0,0.0,0.0,0.0,-1.7696,0.0,-2.2336,-2.412,-2.5308,-2.5308,0.0,0.0,-2.5308,-2.5308,-2.5308,-2.5308,-2.5308,-2.5308,-2.5308,-2.5308,-2.5308,-2.5308,-2.5308,-2.5308,-2.5308,-2.5308,-2.5308,-2.5308,-2.5308,-2.5308,-2.5308,-2.4933,-2.449,-2.4163,-2.4337,-2.4471,0.0,0.0,0.0,0.0,0.0,0.0,0.0,0.0,0.0,0.0,0.0,0.0,0.0,0.0,0.0,0.0,0.0,-1.7055,-1.7243,-1.8246,0.0,0.0,0.0,0.0,-2.4697,-2.5101,-2.5298,-2.5308,-2.5308,-2.5308,-2.5308,-2.6173,-2.6601,-2.664,-2.7505,-2.8338,-2.9107,-2.9107,-2.9583,-3.0404,-3.0367,-3.0342,-3.0336,-3.0267,-3.0226,-3.0211,-3.0211,-3.0128,-3.0034,0.0,0.0,0.0,0.0,0.0,0.0,0.0,-2.4928,0.0,-2.5615,0.0,-2.725,-2.7928,-2.8423,-2.8308,-2.7308,0.0,-2.7255,-2.5731,-2.6231,-2.625,-2.55,-2.5365,-2.5308,-2.5308,-2.5077,0.0,0.0,0.0,0.0,0.0,0.0,0.0,0.0,0.0,0.0,0.0,-2.2744,-2.4567,0.0,-2.5308,-2.5308,-2.5308,-2.5308,-2.5308,-2.5308,-2.5308,-2.5308,-2.5308,-2.5308,-2.5308,-2.5308,-2.5308,-2.5308,-2.5308,-2.5308,-2.5308,-2.5308,-2.5308,-2.5308,-2.5308,-2.5308,-2.5308,-2.5115,-2.4413,-2.4793,-2.5096,-2.4394,-2.4817,-2.5264,0.0,0.0,0.0,0.0,0.0,0.0,0.0,0.0,0.0,0.0,0.0,0.0,0.0,0.0,-1.6574,-1.7037,0.0,0.0,0.0,0.0,0.0,-2.3996,-2.4735,0.0,-2.5308,0.0,-2.5308,-2.5308,-2.6077,-2.6428,-2.6467,-2.7217,-2.8011,-2.878,-2.8896,-2.9429,-3.0231,-3.0346,-3.0379,-3.0373,-3.0311,-3.0253,-3.0192,-3.0211,-3.0211,-3.0211,0.0,0.0,0.0,0.0,0.0,-2.5986,-2.614,-2.5673,-2.5827,-2.7255,-2.7192,-2.7404,-2.8442,-2.8635,-2.8615,-2.8423,-2.8082,0.0,0.0,0.0,0.0,-2.639,-2.5673,-2.5308,-2.5308,-2.3947,-2.2601,0.0,-1.9177,-1.7507,0.0,0.0,0.0,0.0,0.0,0.0,-2.1196,-2.324,0.0,-2.5308,-2.5308,-2.5308,-2.5308,-2.5308,-2.5308,-2.5308,-2.5308,-2.5308,-2.5308,-2.5308,-2.5308,-2.5308,-2.5308,-2.5308,-2.5308,-2.5308,-2.5308,-2.5308,-2.5308,-2.5308,-2.5308,-2.5308,-2.5308,-2.5269,-2.5115,-2.5192,-2.5269,-2.5115,-2.5207,-2.5091,-2.4432,0.0,0.0,0.0,0.0,0.0,0.0,0.0,0.0,0.0,0.0,0.0,0.0,0.0,0.0,0.0,0.0,0.0,0.0,0.0,0.0,0.0,0.0,0.0,0.0,0.0,-2.5308,-2.5308,-2.5442,-2.5538,-2.5538,-2.5692,-2.6212,-2.7082,-2.7794,-2.8569,-2.9371,-3.0096,-3.0373,-3.0329,-3.0305,-3.026,-3.02,-3.0199,-3.0211,-3.0211,0.0,0.0,0.0,0.0,0.0,0.0,0.0,-2.6928,0.0,-2.7799,-2.8005,-2.8294,-2.8852,-2.9308,-2.9404,-2.8948,-2.9083,-2.8832,-2.7953,-2.789,-2.7717,-2.7294,-2.6447,0.0,-2.5962,-2.4731,-2.3235,-2.1504,-1.985,-1.8177,0.0,0.0,0.0,0.0,0.0,-1.9431,0.0,0.0,0.0,-2.5308,-2.5308,-2.5308,-2.5308,-2.5308,-2.5308,-2.5308,-2.5308,-2.5308,-2.5308,-2.5308,-2.5308,-2.5308,-2.5308,-2.5308,-2.5308,-2.5308,-2.5308,-2.5308,-2.5308,-2.5308,-2.5308,-2.5308,-2.5308,-2.5308,-2.5308,-2.5308,-2.5308,-2.5308,-2.5308,-2.5058,-2.424,-2.3394,0.0,0.0,0.0,0.0,0.0,0.0,0.0,0.0,0.0,0.0,0.0,0.0,0.0,0.0,0.0,0.0,0.0,0.0,0.0,0.0,0.0,0.0,0.0,0.0,0.0,-2.5308,-2.5308,-2.5308,-2.5308,-2.5308,-2.5788,-2.6659,-2.7525,-2.8357,-2.9165,-3.0008,-3.0329,-3.0292,-3.0254,-3.024,-3.0206,-3.0192,-3.0211,-3.0211,0.0,-2.5013,0.0,0.0,-2.5648,0.0,-2.7735,-2.8216,-2.8429,-2.8429,-2.8986,-2.9371,-2.9371,-2.9981,-3.0115,-2.9429,-3.0,-2.9846,-2.8525,-2.9025,-2.9011,-2.8184,-2.7332,-2.6794,-2.6601,-2.5923,-2.4327,0.0,0.0,0.0,0.0,0.0,-1.583,-1.6118,0.0,0.0,0.0,0.0,-2.4567,-2.5308,-2.5308,-2.5308,-2.5308,-2.5308,-2.5308,-2.5308,-2.5308,-2.5308,-2.5308,-2.5308,-2.5308,-2.5308,-2.5308,-2.5308,-2.5308,-2.5308,-2.5308,-2.5308,-2.5308,-2.5308,-2.5308,-2.5308,-2.5308,-2.5308,-2.5308,-2.5308,-2.5308,-2.5308,-2.5308,-2.5058,-2.424,-2.3682,0.0,0.0,0.0,0.0,0.0,0.0,0.0,0.0,0.0,0.0,0.0,0.0,0.0,0.0,0.0,0.0,0.0,0.0,0.0,0.0,0.0,-2.4169,-2.5038,0.0,-2.5308,0.0,-2.5308,-2.5308,-2.5308,-2.5308,-2.5673,-2.6385,-2.7448,-2.8448,-2.9404,-3.0041,-3.0299,-3.0286,-3.0227,-3.0194,-3.0199,-3.0192,-3.0211,-3.0211,0.0,0.0,0.0,0.0,0.0,0.0,0.0,-2.927,-3.0173,-3.0173,-3.0231,-3.0288,-3.0288,-3.0346,-3.0365,-3.0288,-3.0346,-3.0327,-3.0173,-3.0231,-2.989,-2.903,-2.8203,-2.7409,-2.6621,-2.6524,-2.5236,0.0,0.0,0.0,0.0,0.0,-1.7891,-1.8722,0.0,0.0,0.0,-2.3725,-2.4567,-2.5308,-2.5308,-2.5308,-2.5308,-2.5308,-2.5308,-2.5308,-2.5308,-2.5308,-2.5308,-2.5308,-2.5308,-2.5308,-2.5308,-2.5308,-2.5308,-2.5308,-2.5308,-2.5308,-2.5308,-2.5308,-2.5308,-2.5308,-2.5308,-2.5308,-2.5308,-2.5308,-2.5308,-2.5308,-2.5308,-2.5058,-2.424,-2.462,-2.4577,0.0,0.0,0.0,0.0,0.0,0.0,0.0,0.0,0.0,0.0,0.0,0.0,0.0,0.0,0.0,0.0,0.0,0.0,-2.1543,0.0,-2.3332,-2.4202,-2.4947,0.0,-2.5308,-2.5308,-2.5308,-2.5308,-2.5308,-2.5346,-2.5519,-2.7178,-2.8764,-3.0195,-3.0273,-3.0292,-3.0286,-3.0227,-3.0207,-3.02,-3.0199,-3.0211,-3.0211,0.0,0.0,0.0,0.0,0.0,0.0,0.0,-3.0238,-3.0633,-3.0633,-3.0496,-3.0404,-3.0404,-3.0404,-3.0404,-3.0404,-3.0404,-3.0404,-3.0404,-3.0404,-3.0231,-2.991,-2.9063,-2.8453,-2.8102,-2.7101,-2.5851,0.0,0.0,0.0,0.0,0.0,0.0,0.0,0.0,-2.2759,-2.3663,-2.5029,-2.5818,-2.618,-2.667,-2.6602,-2.6258,-2.6747,-2.6307,-2.5495,-2.6006,-2.5836,-2.5365,-2.5418,-2.5365,-2.5308,-2.5308,-2.5308,-2.5308,-2.5308,-2.5308,-2.5308,-2.5308,-2.5308,-2.5308,-2.5308,-2.5308,-2.5308,-2.5308,-2.5308,-2.5308,-2.5308,-2.5308,-2.5192,-2.4889,-2.4697,-2.4524,0.0,0.0,0.0,0.0,0.0,0.0,0.0,0.0,0.0,0.0,0.0,0.0,0.0,0.0,-1.5622,-1.6821,0.0,0.0,-2.0719,0.0,-2.3212,-2.4091,-2.4909,-2.5308,-2.5308,-2.5308,-2.5308,-2.5308,-2.5308,-2.5865,-2.6909,-2.7542,-2.8779,-3.0304,-3.026,-3.0234,-3.0234,-3.0219,-3.0206,-3.0206,-3.0192,-3.0211,-3.0211,-2.5863,0.0,-2.7952,0.0,-3.08,-3.08,-3.08,-3.08,-3.08,-3.08,-3.0646,-3.0496,-3.0421,-3.0404,-3.0414,-3.0465,-3.0425,-3.0421,-3.0436,-3.0402,-3.0404,-3.0404,-2.9813,0.0,-2.9107,-2.7928,-2.6928,-2.6058,-2.437,0.0,0.0,-2.1793,0.0,0.0,-2.3428,-2.4259,-2.4937,-2.6391,-2.7049,-2.7133,-2.7724,-2.7648,-2.7242,-2.781,-2.7297,-2.6342,-2.6953,-2.6767,-2.6199,-2.6249,-2.6024,-2.5689,-2.5434,-2.5354,-2.5331,-2.5331,-2.5331,-2.5331,-2.5331,-2.5335,-2.5357,-2.5357,-2.5357,-2.5357,-2.5357,-2.5357,-2.5348,-2.5336,-2.5354,-2.5359,-2.5317,-2.4855,-2.458,-2.4894,0.0,0.0,0.0,0.0,0.0,0.0,0.0,-2.0408,0.0,0.0,0.0,0.0,0.0,-1.6512,-1.7137,0.0,0.0,0.0,0.0,0.0,0.0,-2.4909,-2.5308,-2.5308,-2.5308,-2.5308,-2.5308,-2.5308,-2.625,-2.789,-2.7832,-2.8756,-3.0286,-3.0241,-3.0207,-3.0194,-3.0199,-3.0211,-3.0211,-3.0211,-3.0192,-3.0199,-2.5707,-2.842,-3.0742,-3.0781,-3.08,-3.08,-3.08,-3.08,-3.08,-3.08,-3.0799,-3.068,-3.0436,-3.0404,-3.0441,-3.0598,-3.0482,-3.0436,-3.0492,-3.0433,-3.0404,0.0,0.0,-2.9987,-2.9127,-2.9088,-2.8684,-2.7876,0.0,0.0,-2.525,-2.4432,-2.4052,-2.4149,-2.5813,-2.6563,-2.6626,-2.7574,-2.7984,-2.7992,-2.8074,-2.8081,-2.8084,-2.8103,-2.8084,-2.8064,-2.8084,-2.8084,-2.8064,-2.8064,-2.7498,-2.664,-2.5776,-2.5453,-2.541,-2.541,-2.541,-2.541,-2.541,-2.5446,-2.5501,-2.5501,-2.5501,-2.5501,-2.5501,-2.5501,-2.548,-2.5406,-2.5453,-2.5457,-2.5322,-2.5348,-2.5116,-2.4258,0.0,0.0,0.0,0.0,0.0,0.0,0.0,-1.9354,-2.0192,0.0,0.0,0.0,0.0,0.0,0.0,0.0,0.0,-2.1423,-2.3182,0.0,-2.411,-2.4909,-2.5308,-2.5308,-2.5308,-2.5308,-2.5308,-2.5308,-2.625,-2.789,-2.7832,-2.8744,-3.0286,-3.0227,-3.0194,-3.0211,-3.0211,-3.0211,-3.0211,-3.0211,-3.0206,-3.0207,-2.918,-3.0059,-3.08,-3.08,-3.08,-3.08,-3.08,-3.08,-3.08,-3.08,-3.08,-3.0767,-3.0669,-3.0661,-3.0697,0.0,-3.0655,-3.0602,0.0,-3.0533,-3.0482,-3.0531,-3.0487,-3.0371,-3.0128,-2.9505,-2.908,-2.8916,0.0,0.0,0.0,-2.695,-2.6837,-2.6856,-2.7372,-2.7625,-2.7683,-2.8581,-2.8991,-2.9069,-2.9583,-2.9524,-2.9173,-2.9688,-2.9189,-2.8315,-2.8902,-2.871,-2.8182,-2.8228,-2.8026,-2.7714,-2.7488,-2.653,-2.547,-2.547,-2.547,-2.547,-2.547,-2.5486,-2.5501,-2.5501,-2.5501,-2.5501,-2.5501,-2.5501,-2.5495,-2.5473,-2.545,-2.5414,-2.5378,-2.5359,-2.525,-2.4971,-2.5135,0.0,0.0,0.0,0.0,0.0,0.0,-2.06,0.0,-2.0292,0.0,0.0,0.0,0.0,0.0,0.0,0.0,0.0,-2.2893,0.0,-2.411,-2.4909,-2.5308,-2.5308,-2.5308,-2.5308,-2.5308,-2.5308,-2.625,-2.789,-2.7832,-2.8756,-3.0305,-3.0286,-3.0266,-3.0279,-3.0279,-3.0279,-3.0279,-3.0279,-3.0266,-3.0273,-3.0803,-3.08,-3.08,-3.08,-3.08,-3.08,-3.08,-3.08,-3.08,-3.08,-3.08,-3.08,-3.08,-3.08,0.0,-3.08,-3.0728,-3.0667,-3.0708,-3.0602,-3.056,-3.0593,-3.0564,-3.056,-3.0593,0.0,0.0,-2.9842,-2.8965,-2.8387,-2.8103,-2.8103,-2.8103,-2.8103,-2.843,-2.8586,-2.8647,-2.9524,-2.9905,-2.9992,-3.048,-3.0412,-3.0098,-3.0567,-3.0102,-2.9318,-2.9865,-2.9679,-2.9179,-2.9214,-2.9015,-2.873,-2.8786,-2.7753,-2.6478,-2.6128,-2.579,-2.5534,-2.5534,-2.5549,-2.5585,-2.5585,-2.5585,-2.5585,-2.5585,-2.5585,-2.5578,-2.5539,-2.5524,-2.5498,-2.5446,-2.5421,-2.5395,-2.5382,-2.5378,-2.5099,-2.424,0.0,0.0,0.0,0.0,0.0,0.0,-2.1733,0.0,0.0,0.0,0.0,0.0,0.0,0.0,-2.1716,-2.3562,0.0,-2.4548,-2.5058,-2.5308,-2.5308,-2.5308,-2.5308,-2.5308,-2.5635,-2.6563,-2.7909,-2.8176,-2.9048,-3.0304,-3.0299,-3.0305,-3.0292,-3.0292,-3.0292,-3.0292,-3.0292,-3.0299,-3.0311,-3.0827,-3.0804,0.0,0.0,-3.08,0.0,-3.08,-3.08,-3.08,-3.08,-3.08,-3.08,-3.08,-3.08,-3.08,-3.08,0.0,0.0,0.0,-3.0642,-3.0603,-3.061,-3.0607,-3.0603,-3.061,-3.0603,-3.0603,-3.0603,-2.9855,-2.9084,-2.829,-2.829,-2.829,-2.8309,-2.9142,-2.9509,-2.9551,-3.0365,-3.0713,-3.0717,-3.0771,-3.08,-3.08,-3.08,-3.08,-3.08,-3.08,-3.08,-3.08,-3.08,-3.0294,-2.967,-2.967,-2.9084,-2.8181,-2.7199,-2.633,-2.5683,-2.5625,-2.565,-2.5707,-2.5707,-2.5707,-2.5707,-2.5707,-2.5707,-2.5681,-2.5613,-2.565,-2.565,-2.5529,-2.5549,-2.5563,-2.5513,-2.5443,-2.5114,-2.4233,0.0,0.0,0.0,0.0,0.0,0.0,-2.3001,-2.3315,0.0,0.0,0.0,0.0,0.0,-2.2436,-2.4052,-2.4889,-2.5308,-2.5308,-2.5308,-2.5308,-2.5308,-2.5308,-2.5308,-2.5327,-2.6192,-2.7082,-2.7934,-2.8742,-2.9552,-3.031,-3.031,-3.0311,-3.0318,-3.0318,-3.0318,-3.0318,-3.0318,-3.0318,-3.0304,0.0,0.0,-3.0856,-3.0804,-3.08,-3.08,-3.08,-3.08,-3.08,-3.08,-3.08,-3.08,-3.08,-3.08,-3.08,-3.08,-3.0768,-3.0764,-3.0771,-3.0717,-3.0706,-3.0758,-3.0691,-3.0709,-3.0758,-3.0709,-3.0672,-3.0672,-3.0533,-3.0352,-3.0157,-3.0157,-3.0157,-3.0177,-3.0372,-3.0468,-3.0489,-3.069,-3.0771,-3.0773,-3.0798,-3.08,-3.08,-3.08,-3.08,-3.08,-3.08,-3.08,-3.08,-3.08,-3.0664,-3.0528,-3.0528,-2.9943,-2.8986,-2.744,-2.6832,-2.652,-2.5855,-2.5683,-2.5707,-2.5707,-2.5707,-2.5707,-2.5707,-2.5707,-2.5705,-2.568,-2.5647,-2.5609,-2.5589,-2.5544,-2.5518,-2.5504,-2.4938,-2.4214,-2.3406,-2.3115,0.0,0.0,-2.2987,-2.3476,-2.3018,-2.4133,-2.4163,0.0,0.0,0.0,0.0,-2.3456,-2.3736,-2.4091,-2.4889,-2.5308,-2.5308,-2.5308,-2.5308,-2.5308,-2.5308,-2.5308,-2.5327,-2.6192,-2.7082,-2.7934,-2.8742,-2.9602,-3.0373,-3.0373,-3.0392,-3.038,-3.038,-3.038,-3.038,-3.038,-3.0386,-3.0373,-3.1211,-3.2168,-3.3222,-3.3179,-3.1889,-3.0853,-3.0853,-3.2162,-3.3176,-3.3184,-3.3182,-3.2576,-3.0976,-3.2213,-3.2547,-3.0984,-3.0823,-3.08,-3.08,-3.0767,-3.0765,-3.08,-3.0767,-3.0765,-3.08,-3.0767,-3.0757,-3.0757,-3.0774,-3.08,-3.08,-3.08,-3.08,-3.08,-3.08,-3.08,-3.08,-3.08,-3.08,-3.08,-3.08,-3.08,-3.08,-3.08,-3.08,-3.08,-3.08,-3.08,-3.08,-3.08,-3.08,-3.08,-3.08,-3.0509,-2.9884,-2.8577,-2.7621,-2.6801,-2.5941,-2.5707,-2.5707,-2.5707,-2.5707,-2.5707,-2.5707,-2.5707,-2.5707,-2.5707,-2.5677,-2.5645,-2.5645,-2.5611,-2.5459,-2.5065,-2.4931,-2.444,-2.3216,-2.335,0.0,-2.2946,-2.3722,-2.4267,-2.4194,-2.5002,-2.4953,-2.3538,0.0,0.0,-2.4175,-2.4561,-2.4756,-2.4692,-2.5082,-2.5308,-2.5308,-2.5308,-2.5308,-2.5308,-2.5308,-2.5308,-2.5346,-2.6621,-2.7448,-2.7972,-2.9179,-2.9967,-3.0404,-3.0404,-3.0404,-3.0404,-3.0404,-3.0404,-3.0404,-3.0404,-3.0404,-3.0404,-3.2246,-3.4004,-3.5996,-3.5996,-3.3594,-3.168,-3.168,-3.4121,-3.5995,-3.6001,-3.5999,-3.4866,-3.192,-3.4232,-3.4723,-3.156,-3.1221,-3.1097,-3.0823,-3.0823,-3.0823,-3.0823,-3.0823,-3.0823,-3.0823,-3.0823,-3.0823,-3.0823,-3.0823,-3.0823,-3.0822,-3.0822,-3.0822,-3.0822,-3.0822,-3.0822,-3.0822,-3.0822,-3.0801,-3.08,-3.08,-3.08,-3.08,-3.08,-3.0801,-3.0822,-3.0822,-3.0822,-3.0822,-3.0822,-3.0801,-3.08,-3.08,-3.08,-3.0645,-2.9846,-2.8559,-2.7173,-2.6176,-2.5805,-2.5707,-2.5707,-2.5707,-2.5707,-2.5707,-2.5707,-2.5707,-2.5707,-2.5707,-2.5707,-2.5707,-2.5707,-2.5414,-2.4534,-2.5023,-2.4941,-2.332,0.0,-2.4329,-2.4329,-2.4427,-2.4796,-2.5533,-2.563,-2.5595,-2.5532,-2.5529,-2.5529,0.0,-2.5521,-2.5492,-2.5429,-2.5365,-2.5331,-2.5331,-2.5331,-2.5331,-2.5331,-2.5331,-2.5331,-2.537,-2.6993,-2.7739,-2.782,-2.949,-3.021,-3.0212,-3.0346,-3.0404,-3.0404,-3.0404,-3.0404,-3.0404,-3.0404,-3.0404,-3.0404,-3.5312,-3.5644,-3.5996,-3.5996,-3.5566,-3.5215,-3.5215,-3.5664,-3.5996,-3.5995,-3.5995,-3.5781,-3.5253,-3.5683,-3.5195,-3.3183,-3.3005,-3.2397,-3.0971,-3.0873,-3.0873,-3.0873,-3.0873,-3.0873,-3.0873,-3.0873,-3.0873,-3.0873,-3.0873,-3.0871,-3.0887,-3.0887,-3.0887,-3.0887,-3.0887,-3.0887,-3.0887,-3.0887,-3.0845,-3.08,-3.08,-3.08,-3.08,-3.08,-3.0843,-3.0887,-3.0887,-3.0887,-3.0887,-3.0887,-3.0844,-3.08,-3.08,-3.08,-3.0645,-2.9831,-2.9402,-2.8856,-2.7231,-2.6254,-2.5707,-2.5707,-2.5707,-2.5707,-2.5707,-2.5707,-2.5707,-2.5707,-2.5707,-2.5707,-2.5707,-2.5707,-2.5414,-2.4534,-2.4514,-2.4241,-2.3244,0.0,-2.4374,-2.4374,-2.5038,-2.5547,-2.5663,-2.5682,-2.5681,-2.5676,-2.5676,-2.5676,-2.5676,-2.563,-2.5587,-2.5561,-2.5507,-2.547,-2.547,-2.547,-2.547,-2.547,-2.547,-2.547,-2.5509,-2.6514,-2.6943,-2.6975,-2.8671,-2.9355,-2.9357,-3.0096,-3.0404,-3.0404,-3.0404,-3.0404,-3.0404,-3.0404,-3.0404,-3.0404,-3.5996,-3.5996,-3.5996,-3.5996,-3.5996,-3.5996,-3.5996,-3.5996,-3.5996,-3.5996,-3.5996,-3.5996,-3.5996,-3.5996,-3.5684,-3.4863,-3.4238,-3.3417,-3.2323,-3.2244,-3.2242,-3.2242,-3.1793,-3.1343,-3.0914,-3.0894,-3.0894,-3.0894,-3.0894,-3.0894,-3.0892,-3.0892,-3.0892,-3.0892,-3.0892,-3.0892,-3.0892,-3.0892,-3.0871,-3.085,-3.085,-3.085,-3.085,-3.085,-3.0871,-3.0892,-3.0892,-3.0892,-3.0892,-3.0892,-3.0871,-3.085,-3.085,-3.085,-3.0771,-3.0403,-2.9308,-2.8017,-2.7216,-2.6354,-2.5707,-2.5707,-2.5707,-2.5707,-2.5707,-2.5707,-2.5707,-2.5707,-2.5707,-2.5707,-2.5707,-2.5707,-2.5414,-2.4534,-2.4789,0.0,0.0,-2.4554,-2.5101,-2.5101,-2.5453,-2.5707,-2.5707,-2.5707,-2.5707,-2.5707,-2.5707,-2.5707,-2.5707,-2.5676,-2.565,-2.565,-2.5549,-2.5501,-2.5501,-2.5501,-2.5501,-2.5501,-2.5501,-2.5501,-2.552,-2.6391,-2.678,-2.6826,-2.8063,-2.8581,-2.8586,-2.9007,-2.94,-2.976,-2.976,-3.0012,-3.0404,-3.0404,-3.0404,-3.0404,-3.5996,-3.5996,-3.5996,-3.5996,-3.5996,-3.5996,-3.5996,-3.5996,-3.5996,-3.5996,-3.5996,-3.5996,-3.5996,-3.5996,-3.5996,-3.5996,-3.5195,-3.4414,-3.375,-3.3886,-3.3826,-3.3415,-3.2751,-3.2107,-3.1482,-3.1482,-3.1384,-3.1209,-3.1209,-3.1091,-3.0895,-3.0895,-3.0895,-3.0895,-3.0895,-3.0895,-3.0895,-3.0895,-3.0895,-3.0894,-3.0894,-3.0894,-3.0894,-3.0894,-3.0895,-3.0895,-3.0895,-3.0895,-3.0895,-3.0895,-3.0895,-3.0894,-3.0894,-3.0894,-3.0894,-3.0895,-2.9331,-2.7513,-2.7102,-2.6357,-2.5691,-2.5691,-2.5691,-2.5691,-2.5691,-2.571,-2.5709,-2.5691,-2.5709,-2.5707,-2.5708,-2.5708,-2.5414,-2.4534,0.0,0.0,0.0,-2.5159,-2.5707,-2.5707,-2.5707,-2.5707,-2.5707,-2.5707,-2.5707,-2.5707,-2.5707,-2.5707,-2.5707,-2.5707,-2.5707,-2.5707,-2.5601,-2.5542,-2.5542,-2.5542,-2.5542,-2.5542,-2.5542,-2.5542,-2.5561,-2.624,-2.654,-2.6568,-2.7436,-2.7815,-2.7802,-2.8013,-2.8427,-2.8932,-2.8932,-2.9434,-3.0117,-3.0117,-3.0235,-3.0404,-3.5996,-3.5996,-3.5996,-3.5996,-3.5996,-3.5996,-3.5996,-3.5996,-3.5996,-3.5996,-3.5996,-3.5996,-3.5996,-3.5996,-3.5996,-3.5996,-3.5918,-3.5508,-3.4668,-3.5351,-3.5098,-3.3476,-3.334,-3.3281,-3.3223,-3.3223,-3.2851,-3.2109,-3.2109,-3.1699,-3.0897,-3.0897,-3.0897,-3.0897,-3.0897,-3.0897,-3.0897,-3.0897,-3.0896,-3.0894,-3.0894,-3.0894,-3.0894,-3.0894,-3.0895,-3.0897,-3.0897,-3.0897,-3.0897,-3.0897,-3.0896,-3.0894,-3.0894,-3.0894,-3.0895,-3.0897,-3.0194,-2.9061,-2.7439,-2.6364,-2.5699,-2.5699,-2.5699,-2.5699,-2.5699,-2.5696,-2.5694,-2.5699,-2.5694,-2.5708,-2.5693,-2.571,-2.5414,-2.4534,0.0,0.0,-2.4514,-2.5159,-2.5707,-2.5707,-2.5707,-2.5707,-2.5707,-2.5707,-2.5707,-2.5707,-2.5707,-2.5707,-2.5707,-2.5707,-2.5707,-2.5707,-2.5684,-2.5682,-2.5682,-2.5682,-2.5682,-2.5682,-2.5682,-2.5682,-2.5682,-2.5741,-2.5746,-2.5732,-2.6602,-2.6945,-2.6951,-2.7764,-2.8126,-2.818,-2.818,-2.8636,-2.9298,-2.9298,-2.976,-3.0404,-3.5996,-3.5996,-3.5996,-3.5996,-3.5996,-3.5996,-3.5996,-3.5996,-3.5996,-3.5996,-3.5996,-3.5996,-3.5996,-3.5996,-3.5996,-3.5996,-3.5996,-3.5859,-3.5527,-3.582,-3.5469,-3.4258,-3.4219,-3.3945,-3.3418,-3.3398,-3.3242,-3.2949,-3.2949,-3.2773,-3.2441,-3.2441,-3.2441,-3.2422,-3.1933,-3.1719,-3.1679,-3.1133,-3.0898,-3.0898,-3.0898,-3.0898,-3.0898,-3.0898,-3.0898,-3.0898,-3.0898,-3.0898,-3.0898,-3.0898,-3.0898,-3.0898,-3.0898,-3.0898,-3.0898,-3.0898,-3.0273,-2.9336,-2.8125,-2.7167,-2.6384,-2.5837,-2.57,-2.57,-2.57,-2.5699,-2.5698,-2.57,-2.5698,-2.5697,-2.5698,-2.5697,-2.5597,-2.5262,0.0,-2.5573,-2.5258,-2.5492,-2.5707,-2.5707,-2.5707,-2.5707,-2.5707,-2.5707,-2.5707,-2.5707,-2.5707,-2.5707,-2.5707,-2.5707,-2.5707,-2.5707,-2.5707,-2.5707,-2.5707,-2.5707,-2.5707,-2.5707,-2.5707,-2.5707,-2.5707,-2.5707,-2.5682,-2.5673,-2.6002,-2.6131,-2.6139,-2.6488,-2.6918,-2.7412,-2.7957,-2.8599,-2.9334,-2.9866,-3.0253,-3.0528,-3.5996,-3.5996,-3.5996,-3.5996,-3.5996,-3.5996,-3.5996,-3.5996,-3.5996,-3.5996,-3.5996,-3.5996,-3.5996,-3.5996,-3.5996,-3.5996,-3.5996,-3.5996,-3.5996,-3.5996,-3.5723,-3.5137,-3.5117,-3.4824,-3.4238,-3.4219,-3.4082,-3.3809,-3.3809,-3.3672,-3.3398,-3.3398,-3.3398,-3.3379,-3.2812,-3.2441,-3.2168,-3.1562,-3.1152,-3.0898,-3.0898,-3.0898,-3.0898,-3.0898,-3.0898,-3.0898,-3.0898,-3.0898,-3.0898,-3.0898,-3.0898,-3.0898,-3.0898,-3.0898,-3.0898,-3.0898,-3.0488,-2.9824,-2.8945,-2.8066,-2.7128,-2.5994,-2.5702,-2.5702,-2.5702,-2.5701,-2.5701,-2.5702,-2.5701,-2.57,-2.5701,-2.57,-2.5699,-2.5696,-2.5696,-2.5695,-2.5693,-2.5693,-2.5692,-2.5709,-2.5709,-2.5709,-2.5707,-2.5707,-2.5707,-2.5707,-2.5707,-2.5707,-2.5707,-2.5707,-2.5707,-2.5707,-2.5707,-2.5707,-2.5707,-2.5707,-2.5707,-2.5707,-2.5707,-2.5707,-2.5707,-2.5707,-2.5707,-2.5707,-2.5707,-2.5707,-2.5707,-2.5707,-2.6027,-2.6589,-2.7174,-2.7885,-2.8611,-2.922,-2.9596,-2.9845,-3.5996,-3.5996,-3.5996,-3.5996,-3.5996,-3.5996,-3.5996,-3.5996,-3.5996,-3.5996,-3.5996,-3.5996,-3.5996,-3.5996,-3.5996,-3.5996,-3.5996,-3.5996,-3.5996,-3.5996,-3.5996,-3.5996,-3.5996,-3.5996,-3.5996,-3.5996,-3.5586,-3.4707,-3.4707,-3.4277,-3.3418,-3.3418,-3.3418,-3.3418,-3.3418,-3.2969,-3.2226,-3.2207,-3.1719,-3.0918,-3.0918,-3.0918,-3.0918,-3.0918,-3.0918,-3.0918,-3.0898,-3.0898,-3.0898,-3.0898,-3.0898,-3.0898,-3.0898,-3.0898,-3.0898,-3.0898,-3.0898,-3.0703,-2.9844,-2.8965,-2.7891,-2.6152,-2.5703,-2.5703,-2.5703,-2.5703,-2.5703,-2.5703,-2.5702,-2.57,-2.5702,-2.5701,-2.57,-2.57,-2.57,-2.57,-2.57,-2.57,-2.5699,-2.5694,-2.5694,-2.5692,-2.5708,-2.5707,-2.5707,-2.5707,-2.5707,-2.5707,-2.5707,-2.5707,-2.5707,-2.5707,-2.5707,-2.5707,-2.5707,-2.5707,-2.5707,-2.5707,-2.5707,-2.5707,-2.5707,-2.5707,-2.5707,-2.5707,-2.5707,-2.5707,-2.5707,-2.5707,-2.5707,-2.5707,-2.5707,-2.6196,-2.6898,-2.6918,-2.7429,-2.823,-3.5996,-3.5996,-3.5996,-3.5996,-3.5996,-3.5996,-3.5996,-3.5996,-3.5996,-3.5996,-3.5996,-3.5996,-3.5996,-3.5996,-3.5996,-3.5996,-3.5996,-3.5996,-3.5996,-3.5996,-3.5996,-3.5996,-3.5996,-3.5996,-3.5996,-3.5996,-3.5879,-3.5605,-3.5605,-3.5488,-3.5215,-3.5215,-3.5215,-3.5195,-3.459,-3.418,-3.3906,-3.3301,-3.2891,-3.2656,-3.2656,-3.2656,-3.2598,-3.2031,-3.1816,-3.1738,-3.1113,-3.0898,-3.0898,-3.0898,-3.0898,-3.0898,-3.0898,-3.0898,-3.0898,-3.0898,-3.0898,-3.0703,-2.9844,-2.9414,-2.8789,-2.7051,-2.6152,-2.5703,-2.5703,-2.5703,-2.5703,-2.5703,-2.5703,-2.5703,-2.5703,-2.5703,-2.5703,-2.5702,-2.5702,-2.5702,-2.57,-2.57,-2.57,-2.5699,-2.5699,-2.5698,-2.5698,-2.5697,-2.5696,-2.5692,-2.5709,-2.5707,-2.5707,-2.5707,-2.5707,-2.5707,-2.5707,-2.5707,-2.5707,-2.5707,-2.5707,-2.5707,-2.5707,-2.5707,-2.5707,-2.5707,-2.5707,-2.5707,-2.5707,-2.5707,-2.5707,-2.5707,-2.5707,-2.5765,-2.6372,-2.6758,-2.7042,-2.7666,-2.8029,-2.8269,-3.5888,-3.5908,-3.5924,-3.5924,-3.5924,-3.5924,-3.5924,-3.5918,-3.5914,-3.5914,-3.5947,-3.5953,-3.5953,-3.5976,-3.5996,-3.5996,-3.5996,-3.5996,-3.5996,-3.5996,-3.5996,-3.5996,-3.5996,-3.5996,-3.5996,-3.5996,-3.5996,-3.5996,-3.5996,-3.5996,-3.5996,-3.5996,-3.5996,-3.5976,-3.5449,-3.5019,-3.4668,-3.4141,-3.3711,-3.3398,-3.3398,-3.3398,-3.3359,-3.2851,-3.248,-3.2129,-3.1601,-3.1191,-3.0898,-3.0898,-3.0898,-3.0898,-3.0898,-3.0898,-3.0898,-3.0898,-3.0898,-3.0781,-3.0254,-2.9863,-2.9355,-2.8281,-2.7109,-2.6113,-2.5781,-2.5703,-2.5703,-2.5703,-2.5703,-2.5703,-2.5703,-2.5703,-2.5703,-2.5703,-2.5703,-2.5703,-2.5702,-2.5702,-2.5702,-2.5701,-2.5701,-2.5701,-2.57,-2.57,-2.5699,-2.5697,-2.5695,-2.5693,-2.571,-2.571,-2.5709,-2.5707,-2.5707,-2.5707,-2.5707,-2.5707,-2.5707,-2.5707,-2.5707,-2.5707,-2.5707,-2.5707,-2.5707,-2.5707,-2.5707,-2.5707,-2.5707,-2.5707,-2.5707,-2.5746,-2.6274,-2.6489,-2.6547,-2.7073,-2.7268,-2.7325,-3.5711,-3.5756,-3.5794,-3.5794,-3.5794,-3.5797,-3.5805,-3.5795,-3.5806,-3.579,-3.5853,-3.589,-3.589,-3.595,-3.5976,-3.5996,-3.5996,-3.5996,-3.5996,-3.5996,-3.5996,-3.5976,-3.5976,-3.5976,-3.5976,-3.5996,-3.5996,-3.5996,-3.5996,-3.5996,-3.5996,-3.5996,-3.5996,-3.5996,-3.5996,-3.5566,-3.4824,-3.4824,-3.4355,-3.3633,-3.3633,-3.3633,-3.3613,-3.3535,-3.3066,-3.2402,-3.2324,-3.1758,-3.0996,-3.0937,-3.0898,-3.0898,-3.0898,-3.0898,-3.0898,-3.0898,-3.0898,-3.0898,-3.0898,-3.0312,-2.9707,-2.9629,-2.8398,-2.6972,-2.6035,-2.582,-2.5781,-2.5723,-2.5703,-2.5703,-2.5703,-2.5703,-2.5703,-2.5703,-2.5703,-2.5703,-2.5703,-2.5703,-2.5703,-2.5703,-2.5703,-2.5702,-2.57,-2.57,-2.57,-2.57,-2.57,-2.5699,-2.5694,-2.5694,-2.5693,-2.5709,-2.5709,-2.5708,-2.5708,-2.5708,-2.5707,-2.5707,-2.5707,-2.5707,-2.5707,-2.5707,-2.5707,-2.5707,-2.5707,-2.5707,-2.5707,-2.5707,-2.5707,-2.5707,-2.5707,-2.5707,-2.5707,-2.5707,-2.5707,-2.5805,-3.5626,-3.5687,-3.5718,-3.5718,-3.5718,-3.5736,-3.579,-3.5794,-3.5801,-3.5794,-3.5816,-3.5829,-3.5829,-3.5838,-3.5857,-3.5922,-3.5974,-3.5975,-3.5924,-3.5923,-3.5895,-3.5847,-3.5845,-3.5845,-3.5845,-3.5951,-3.5996,-3.5996,-3.5996,-3.5996,-3.5996,-3.5996,-3.5996,-3.5996,-3.5996,-3.5898,-3.5723,-3.5723,-3.5605,-3.5449,-3.5449,-3.5408,-3.528,-3.4667,-3.4275,-3.3991,-3.3378,-3.2617,-3.1816,-3.1133,-3.0898,-3.0898,-3.0898,-3.0898,-3.0898,-3.0898,-3.0898,-3.0898,-3.0898,-3.0762,-3.0449,-2.9766,-2.9274,-2.8565,-2.705,-2.6719,-2.6523,-2.584,-2.5703,-2.5703,-2.5703,-2.5703,-2.5703,-2.5703,-2.5703,-2.5703,-2.5703,-2.5703,-2.5703,-2.5703,-2.5703,-2.5703,-2.5703,-2.5703,-2.5702,-2.5702,-2.5701,-2.57,-2.5699,-2.5699,-2.5699,-2.5698,-2.5698,-2.5696,-2.5693,-2.5692,-2.5691,-2.5707,-2.5707,-2.5707,-2.5707,-2.5707,-2.5707,-2.5707,-2.5707,-2.5707,-2.5707,-2.5707,-2.5707,-2.5707,-2.5707,-2.5707,-2.5707,-2.5707,-2.5707,-2.5726,-3.5596,-3.5633,-3.5645,-3.5645,-3.5645,-3.566,-3.5694,-3.5703,-3.5721,-3.5741,-3.5741,-3.5742,-3.5742,-3.5774,-3.5802,-3.5847,-3.5889,-3.5892,-3.5851,-3.5849,-3.5838,-3.5794,-3.5791,-3.5791,-3.5791,-3.5861,-3.5923,-3.5951,-3.5976,-3.5996,-3.5996,-3.5996,-3.5996,-3.5996,-3.5996,-3.5976,-3.5951,-3.5951,-3.5928,-3.5899,-3.5899,-3.5889,-3.5812,-3.5384,-3.4949,-3.4503,-3.4075,-3.3151,-3.2026,-3.1148,-3.0855,-3.0855,-3.0855,-3.0831,-3.0804,-3.0804,-3.0804,-3.0804,-3.0804,-3.0804,-3.0706,-3.0238,-3.0109,-2.964,-2.8007,-2.7573,-2.729,-2.644,-2.6279,-2.6158,-2.5776,-2.57,-2.5701,-2.5703,-2.5703,-2.5703,-2.57,-2.57,-2.5698,-2.5651,-2.5649,-2.5653,-2.5699,-2.57,-2.5702,-2.5703,-2.5703,-2.5702,-2.5701,-2.5701,-2.57,-2.5698,-2.5698,-2.5696,-2.5691,-2.5691,-2.5709,-2.5707,-2.5707,-2.5707,-2.5707,-2.5707,-2.5707,-2.5707,-2.5707,-2.5707,-2.5707,-2.5707,-2.5707,-2.5707,-2.5707,-2.5707,-2.5707,-2.5707,-2.5707,-2.5707,-3.5579,-3.5585,-3.5591,-3.5591,-3.5591,-3.5604,-3.5595,-3.5595,-3.5626,-3.5687,-3.5669,-3.5683,-3.5687,-3.5732,-3.5774,-3.5774,-3.5786,-3.5805,-3.5777,-3.5774,-3.5771,-3.5778,-3.5778,-3.5778,-3.5778,-3.5791,-3.5824,-3.5887,-3.5948,-3.5974,-3.5974,-3.5974,-3.5974,-3.5974,-3.5974,-3.5928,-3.5887,-3.5887,-3.5849,-3.5791,-3.5791,-3.5786,-3.5777,-3.5808,-3.5335,-3.472,-3.4712,-3.3687,-3.2175,-3.13,-3.0911,-3.0774,-3.0774,-3.0737,-3.0709,-3.0709,-3.0709,-3.0709,-3.0709,-3.0709,-3.0709,-3.0709,-3.0684,-3.0347,-2.9016,-2.8507,-2.81,-2.7276,-2.7101,-2.6891,-2.6221,-2.5992,-2.5901,-2.5914,-2.5779,-2.5679,-2.5684,-2.5681,-2.5654,-2.5605,-2.5601,-2.5614,-2.568,-2.5681,-2.5689,-2.5681,-2.5682,-2.5682,-2.5683,-2.5683,-2.5703,-2.57,-2.5697,-2.5694,-2.5691,-2.569,-2.571,-2.571,-2.571,-2.5709,-2.5707,-2.5707,-2.5707,-2.5707,-2.5707,-2.5707,-2.5707,-2.5708,-2.5708,-2.5708,-2.5709,-2.571,-2.571,-2.5709,-2.5708,-2.5708,-3.5514,-3.5509,-3.5515,-3.5515,-3.556,-3.5598,-3.5604,-3.5604,-3.5604,-3.561,-3.5602,-3.5606,-3.561,-3.5669,-3.5714,-3.5714,-3.5778,-3.5788,-3.5722,-3.5714,-3.57,-3.5718,-3.5713,-3.5713,-3.5713,-3.5715,-3.5755,-3.5802,-3.5829,-3.5834,-3.5834,-3.5834,-3.5834,-3.5834,-3.5834,-3.5829,-3.5802,-3.5802,-3.5819,-3.5791,-3.5791,-3.5778,-3.5722,-3.5771,-3.5697,-3.5547,-3.5596,-3.455,-3.2996,-3.2136,-3.1339,-3.0717,-3.0717,-3.0715,-3.0709,-3.0709,-3.0709,-3.0709,-3.0709,-3.0709,-3.0709,-3.0709,-3.0653,-3.0571,-3.0403,-2.978,-2.8989,-2.8115,-2.7935,-2.7894,-2.7803,-2.7219,-2.6736,-2.6739,-2.6102,-2.5614,-2.5609,-2.5609,-2.5607,-2.5601,-2.5601,-2.5603,-2.5609,-2.5609,-2.5611,-2.5616,-2.5616,-2.5618,-2.5618,-2.5663,-2.5693,-2.5694,-2.5703,-2.5702,-2.5701,-2.57,-2.5699,-2.5699,-2.5699,-2.5696,-2.5707,-2.5707,-2.5707,-2.5707,-2.5707,-2.5707,-2.5707,-2.5691,-2.5693,-2.5694,-2.5698,-2.5699,-2.5699,-2.5694,-2.5693,-2.5692,-3.55,-3.5494,-3.5489,-3.5489,-3.5521,-3.5541,-3.5547,-3.5534,-3.556,-3.5598,-3.5598,-3.5604,-3.5596,-3.5635,-3.5634,-3.5634,-3.566,-3.5674,-3.5659,-3.5635,-3.5664,-3.5709,-3.5704,-3.5704,-3.5704,-3.5693,-3.5703,-3.5743,-3.5775,-3.5791,-3.5791,-3.5791,-3.5791,-3.5791,-3.5791,-3.5771,-3.5732,-3.5732,-3.5749,-3.5743,-3.5743,-3.5741,-3.5704,-3.573,-3.5736,-3.5587,-3.4624,-3.3833,-3.3048,-3.1689,-3.095,-3.0642,-3.0642,-3.0636,-3.0641,-3.0641,-3.0641,-3.0641,-3.0641,-3.0641,-3.0641,-3.0641,-3.0611,-3.0614,-3.0633,-3.0346,-2.9829,-2.8996,-2.8796,-2.8621,-2.8173,-2.781,-2.7568,-2.7576,-2.7251,-2.6833,-2.634,-2.6276,-2.609,-2.5592,-2.555,-2.5543,-2.5537,-2.5542,-2.5554,-2.56,-2.5601,-2.5601,-2.5601,-2.5637,-2.5647,-2.5632,-2.5645,-2.5657,-2.5703,-2.5703,-2.5703,-2.57,-2.57,-2.5699,-2.5696,-2.5696,-2.5696,-2.5696,-2.5696,-2.5696,-2.5696,-2.5697,-2.5698,-2.5698,-2.5699,-2.57,-2.57,-2.5698,-2.5698,-2.5698]},{"header":{"parameterUnit":"m.s-1","parameterCategory":1,"la1":30.6,"la2":28.766,"lo1":-90.7593,"lo2":-88.6598,"dy":0.0162,"dx":0.0183,"nx":116,"ny":114,"refTime":"2024-07-08T18:00:00:Z","depth":0,"parameterNumber":3,"parameterNumberName":"V-component_of_WINDS"},"data":[0.0,0.0,0.0,0.0,0.0,0.0,0.0,0.0,0.0,0.0,0.0,0.0,0.0,0.0,0.0,0.0,0.0,0.0,0.0,0.0,0.0,0.0,0.0,0.0,0.0,0.0,0.0,0.0,0.0,0.0,0.0,0.0,0.0,0.0,0.0,0.0,0.0,0.0,0.0,0.0,0.0,0.0,0.0,0.0,0.0,0.0,0.0,0.0,0.0,0.0,0.0,0.0,0.0,0.0,0.0,0.0,0.0,0.0,0.0,0.0,0.0,0.0,0.0,0.0,0.0,0.0,0.0,0.0,0.0,0.0,0.0,0.0,0.0,0.0,0.0,0.0,0.0,0.0,0.0,0.0,0.0,0.0,0.0,0.0,0.0,0.0,0.0,0.0,0.0,0.0,0.0,0.0,0.0,0.0,0.0,0.0,0.0,0.0,0.0,0.0,0.0,0.0,0.0,0.0,0.0,0.0,0.0,0.0,0.0,0.0,0.0,0.0,0.0,0.0,0.0,0.0,0.0,0.0,0.0,0.0,0.0,0.0,0.0,0.0,0.0,0.0,0.0,0.0,0.0,0.0,0.0,0.0,0.0,0.0,0.0,0.0,0.0,0.0,0.0,0.0,0.0,0.0,0.0,0.0,0.0,0.0,0.0,0.0,0.0,0.0,0.0,0.0,0.0,0.0,0.0,0.0,0.0,0.0,0.0,0.0,0.0,0.0,0.0,0.0,0.0,0.0,0.0,0.0,0.0,0.0,0.0,0.0,0.0,0.0,0.0,0.0,0.0,0.0,0.0,0.0,0.0,0.0,0.0,0.0,0.0,0.0,0.0,0.0,0.0,0.0,0.0,0.0,0.0,0.0,0.0,0.0,0.0,0.0,0.0,0.0,0.0,0.0,0.0,0.0,0.0,0.0,0.0,0.0,0.0,0.0,0.0,0.0,0.0,0.0,0.0,0.0,0.0,0.0,0.0,0.0,0.0,0.0,0.0,0.0,0.0,0.0,0.0,0.0,0.0,0.0,0.0,0.0,0.0,0.0,0.0,0.0,0.0,0.0,0.0,0.0,0.0,0.0,0.0,0.0,0.0,0.0,0.0,0.0,0.0,0.0,0.0,0.0,0.0,0.0,0.0,0.0,0.0,0.0,0.0,0.0,0.0,0.0,0.0,0.0,0.0,0.0,0.0,0.0,0.0,0.0,0.0,0.0,0.0,0.0,0.0,0.0,0.0,0.0,0.0,0.0,0.0,0.0,0.0,0.0,0.0,0.0,0.0,0.0,0.0,0.0,0.0,0.0,0.0,0.0,0.0,0.0,0.0,0.0,0.0,0.0,0.0,0.0,0.0,0.0,0.0,0.0,0.0,0.0,0.0,0.0,0.0,0.0,0.0,0.0,0.0,0.0,0.0,0.0,0.0,0.0,0.0,0.0,0.0,0.0,0.0,0.0,0.0,0.0,0.0,0.0,0.0,0.0,0.0,0.0,0.0,0.0,0.0,0.0,0.0,0.0,0.0,0.0,0.0,0.0,0.0,0.0,0.0,0.0,0.0,0.0,0.0,0.0,0.0,0.0,0.0,0.0,0.0,0.0,0.0,0.0,0.0,0.0,0.0,0.0,0.0,0.0,0.0,0.0,0.0,0.0,0.0,0.0,0.0,0.0,0.0,0.0,0.0,0.0,0.0,0.0,0.0,0.0,0.0,0.0,0.0,0.0,0.0,0.0,0.0,0.0,0.0,0.0,0.0,0.0,0.0,0.0,0.0,0.0,0.0,0.0,0.0,0.0,0.0,0.0,0.0,0.0,0.0,0.0,0.0,0.0,0.0,0.0,0.0,0.0,0.0,0.0,0.0,0.0,0.0,0.0,0.0,0.0,0.0,0.0,0.0,0.0,0.0,0.0,0.0,0.0,0.0,0.0,0.0,0.0,0.0,0.0,0.0,0.0,0.0,0.0,0.0,0.0,0.0,0.0,0.0,0.0,0.0,0.0,0.0,0.0,0.0,0.0,0.0,0.0,0.0,0.0,0.0,0.0,0.0,0.0,0.0,0.0,0.0,0.0,0.0,0.0,0.0,0.0,0.0,0.0,0.0,0.0,0.0,0.0,0.0,0.0,0.0,0.0,0.0,0.0,0.0,0.0,0.0,0.0,0.0,0.0,0.0,0.0,0.0,0.0,0.0,0.0,0.0,0.0,0.0,0.0,0.0,0.0,0.0,0.0,0.0,0.0,0.0,0.0,0.0,0.0,0.0,0.0,0.0,0.0,0.0,0.0,0.0,0.0,0.0,0.0,0.0,0.0,0.0,0.0,0.0,0.0,0.0,0.0,0.0,0.0,0.0,0.0,0.0,0.0,0.0,0.0,0.0,0.0,0.0,0.0,0.0,0.0,0.0,0.0,0.0,0.0,0.0,0.0,0.0,0.0,0.0,0.0,0.0,0.0,0.0,0.0,0.0,0.0,0.0,0.0,0.0,0.0,0.0,0.0,0.0,0.0,0.0,0.0,0.0,0.0,0.0,0.0,0.0,0.0,0.0,0.0,0.0,0.0,0.0,0.0,0.0,0.0,0.0,0.0,0.0,0.0,0.0,0.0,0.0,0.0,0.0,0.0,0.0,0.0,0.0,0.0,0.0,0.0,0.0,0.0,0.0,0.0,0.0,0.0,0.0,0.0,0.0,0.0,0.0,0.0,0.0,0.0,0.0,0.0,0.0,0.0,0.0,0.0,0.0,0.0,0.0,0.0,0.0,0.0,0.0,0.0,0.0,0.0,0.0,0.0,0.0,0.0,0.0,0.0,0.0,0.0,0.0,0.0,0.0,0.0,0.0,0.0,0.0,0.0,0.0,0.0,0.0,0.0,0.0,0.0,0.0,0.0,0.0,0.0,0.0,0.0,0.0,0.0,0.0,0.0,0.0,0.0,0.0,0.0,0.0,0.0,0.0,0.0,0.0,0.0,0.0,0.0,0.0,0.0,0.0,0.0,0.0,0.0,0.0,0.0,0.0,0.0,0.0,0.0,0.0,0.0,0.0,0.0,0.0,0.0,0.0,0.0,0.0,0.0,0.0,0.0,0.0,0.0,0.0,0.0,0.0,0.0,0.0,0.0,0.0,0.0,0.0,0.0,0.0,0.0,0.0,0.0,0.0,0.0,0.0,0.0,0.0,0.0,0.0,0.0,0.0,0.0,0.0,0.0,0.0,0.0,0.0,0.0,0.0,0.0,0.0,0.0,0.0,0.0,0.0,0.0,0.0,0.0,0.0,0.0,0.0,0.0,0.0,0.0,0.0,0.0,0.0,0.0,0.0,0.0,0.0,0.0,0.0,0.0,0.0,0.0,0.0,0.0,0.0,0.0,0.0,0.0,0.0,0.0,0.0,0.0,0.0,0.0,0.0,0.0,0.0,0.0,0.0,0.0,0.0,0.0,0.0,0.0,0.0,0.0,0.0,0.0,0.0,0.0,0.0,0.0,0.0,0.0,0.0,0.0,0.0,0.0,0.0,0.0,0.0,0.0,0.0,0.0,0.0,0.0,0.0,0.0,0.0,0.0,0.0,0.0,0.0,0.0,0.0,0.0,0.0,0.0,0.0,0.0,0.0,0.0,0.0,0.0,0.0,0.0,0.0,0.0,0.0,0.0,0.0,0.0,0.0,0.0,0.0,0.0,0.0,0.0,0.0,0.0,0.0,0.0,0.0,0.0,0.0,0.0,0.0,0.0,0.0,0.0,0.0,0.0,0.0,0.0,0.0,0.0,0.0,0.0,0.0,0.0,0.0,0.0,0.0,0.0,0.0,0.0,0.0,0.0,0.0,0.0,0.0,0.0,0.0,0.0,0.0,0.0,0.0,0.0,0.0,0.0,0.0,0.0,0.0,0.0,0.0,0.0,0.0,0.0,0.0,0.0,0.0,0.0,0.0,0.0,0.0,0.0,0.0,0.0,0.0,0.0,0.0,0.0,0.0,0.0,0.0,0.0,0.0,0.0,0.0,0.0,0.0,0.0,0.0,0.0,0.0,0.0,0.0,0.0,0.0,0.0,0.0,0.0,0.0,0.0,0.0,0.0,0.0,0.0,0.0,0.0,0.0,0.0,0.0,0.0,0.0,0.0,0.0,0.0,0.0,0.0,0.0,0.0,0.0,0.0,0.0,0.0,0.0,0.0,0.0,0.0,0.0,0.0,0.0,0.0,0.0,0.0,0.0,0.0,0.0,0.0,0.0,0.0,0.0,0.0,0.0,0.0,0.0,0.0,0.0,0.0,0.0,0.0,0.0,0.0,0.0,0.0,0.0,0.0,0.0,0.0,0.0,0.0,0.0,0.0,0.0,0.0,0.0,0.0,0.0,0.0,0.0,0.0,0.0,0.0,0.0,0.0,0.0,0.0,0.0,0.0,0.0,0.0,0.0,0.0,0.0,0.0,0.0,0.0,0.0,0.0,0.0,0.0,0.0,0.0,0.0,0.0,0.0,0.0,0.0,0.0,0.0,0.0,0.0,0.0,0.0,0.0,0.0,0.0,0.0,0.0,0.0,0.0,0.0,0.0,0.0,0.0,0.0,0.0,0.0,0.0,0.0,0.0,0.0,0.0,0.0,0.0,0.0,0.0,0.0,0.0,0.0,0.0,0.0,0.0,0.0,0.0,0.0,0.0,0.0,0.0,0.0,0.0,0.0,0.0,0.0,0.0,0.0,0.0,0.0,0.0,0.0,0.0,0.0,0.0,0.0,0.0,0.0,0.0,0.0,0.0,0.0,0.0,0.0,0.0,0.0,0.0,0.0,0.0,0.0,0.0,0.0,0.0,0.0,0.0,0.0,0.0,0.0,0.0,0.0,0.0,0.0,0.0,0.0,0.0,0.0,0.0,0.0,0.0,0.0,0.0,0.0,0.0,0.0,0.0,0.0,0.0,0.0,0.0,0.0,0.0,0.0,0.0,0.0,0.0,0.0,0.0,0.0,0.0,0.0,0.0,0.0,0.0,0.0,0.0,0.0,0.0,0.0,0.0,0.0,0.0,0.0,0.0,0.0,0.0,0.0,0.0,0.0,0.0,0.0,0.0,0.0,0.0,0.0,0.0,0.0,0.0,0.0,0.0,0.0,0.0,0.0,0.0,0.0,0.0,0.0,0.0,0.0,0.0,0.0,0.0,0.0,0.0,0.0,0.0,0.0,0.0,0.0,0.0,0.0,0.0,0.0,0.0,0.0,0.0,0.0,0.0,0.0,0.0,0.0,0.0,0.0,0.0,0.0,0.0,0.0,0.0,0.0,0.0,0.0,0.0,0.0,0.0,0.0,0.0,0.0,0.0,0.0,0.0,0.0,0.0,0.0,0.0,0.0,0.0,0.0,0.0,0.0,0.0,0.0,0.0,0.0,0.0,0.0,0.0,0.0,0.0,0.0,0.0,0.0,0.0,0.0,0.0,0.0,0.0,0.0,0.0,0.0,0.0,0.0,0.0,0.0,0.0,0.0,0.0,0.0,0.0,0.0,0.0,0.0,0.0,0.0,0.0,0.0,0.0,0.0,0.0,0.0,0.0,0.0,0.0,0.0,0.0,0.0,0.0,0.0,0.0,0.0,0.0,0.0,0.0,0.0,0.0,0.0,0.0,0.0,0.0,0.0,0.0,0.0,0.0,0.0,0.0,0.0,0.0,0.0,0.0,0.0,0.0,0.0,0.0,0.0,0.0,0.0,0.0,0.0,0.0,0.0,0.0,0.0,0.0,0.0,0.0,0.0,0.0,0.0,0.0,0.0,0.0,0.0,0.0,0.0,0.0,0.0,0.0,0.0,0.0,0.0,0.0,0.0,0.0,0.0,0.0,0.0,0.0,0.0,0.0,0.0,0.0,0.0,0.0,0.0,0.0,0.0,0.0,0.0,0.0,0.0,0.0,0.0,0.0,0.0,0.0,0.0,0.0,0.0,0.0,0.0,0.0,0.0,0.0,0.0,0.0,0.0,0.0,0.0,0.0,0.0,0.0,0.0,0.0,0.0,0.0,0.0,0.0,0.0,0.0,0.0,0.0,0.0,0.0,0.0,0.0,0.0,0.0,0.0,0.0,0.0,0.0,0.0,0.0,0.0,0.0,0.0,0.0,0.0,0.0,0.0,0.0,0.0,0.0,-1.2349,0.0,0.0,0.0,0.0,0.0,0.0,0.0,0.0,0.0,0.0,0.0,0.0,0.0,0.0,0.0,0.0,0.0,0.0,0.0,0.0,0.0,0.0,0.0,0.0,-0.4301,-0.4306,-0.4706,-0.4376,-0.4118,-0.4038,0.0,0.0,0.0,0.0,0.0,-0.3352,-0.3277,-0.334,-0.355,-0.344,-0.3616,-0.4028,-0.3676,-0.3447,-0.3323,0.0,0.0,0.0,0.0,0.0,0.0,0.0,0.0,0.0,0.0,0.0,0.0,0.0,0.0,0.0,0.0,0.0,0.0,0.0,0.0,0.0,0.0,0.0,0.0,0.0,0.0,0.0,0.0,0.0,0.0,0.0,0.0,0.0,0.0,0.0,0.0,0.0,0.0,0.0,0.0,0.0,0.0,0.0,0.0,0.0,0.0,0.0,0.0,0.0,0.0,0.0,0.0,0.0,0.0,0.0,0.0,0.0,0.0,0.0,0.0,0.0,0.0,0.0,0.0,0.0,0.0,0.0,0.0,0.0,0.0,0.0,-1.333,0.0,0.0,0.0,0.0,0.0,0.0,0.0,0.0,0.0,0.0,0.0,0.0,0.0,0.0,0.0,0.0,0.0,0.0,0.0,0.0,0.0,-0.4422,-0.4816,-0.4661,-0.4736,-0.5268,-0.493,-0.4672,-0.4609,0.0,0.0,0.0,0.0,-0.3614,-0.3571,-0.3428,-0.347,-0.3725,-0.3747,-0.4091,-0.4713,-0.4713,-0.4504,-0.4134,-0.405,0.0,0.0,0.0,0.0,0.0,0.0,0.0,0.0,0.0,0.0,0.0,0.0,0.0,0.0,0.0,0.0,0.0,0.0,0.0,0.0,0.0,0.0,0.0,0.0,0.0,0.0,0.0,0.0,0.0,0.0,0.0,0.0,0.0,0.0,0.0,0.0,0.0,0.0,0.0,0.0,0.0,0.0,0.0,0.0,0.0,0.0,0.0,0.0,0.0,0.0,0.0,0.0,0.0,0.0,0.0,0.0,0.0,0.0,0.0,0.0,0.0,0.0,0.0,-1.579,-1.6083,-1.6691,-1.6517,-1.6637,-1.6939,-1.5964,-1.5361,-1.4971,0.0,0.0,0.0,0.0,0.0,0.0,0.0,0.0,0.0,0.0,0.0,0.0,0.0,0.0,0.0,0.0,0.0,0.0,0.0,0.0,-0.4788,-0.5414,-0.5194,-0.5428,-0.6466,-0.5881,-0.5548,-0.5756,-0.5138,0.0,0.0,-0.4187,-0.4095,-0.386,-0.3664,-0.3764,-0.4217,-0.4319,-0.4644,-0.5117,-0.5117,0.0,-0.5004,-0.4665,-0.4619,0.0,0.0,0.0,0.0,0.0,0.0,0.0,0.0,0.0,0.0,0.0,0.0,0.0,0.0,0.0,0.0,0.0,0.0,0.0,0.0,0.0,0.0,0.0,0.0,0.0,0.0,0.0,0.0,0.0,0.0,0.0,0.0,0.0,0.0,0.0,0.0,0.0,0.0,0.0,0.0,0.0,0.0,-0.7176,-0.7874,0.0,0.0,0.0,0.0,0.0,0.0,0.0,0.0,0.0,0.0,0.0,0.0,0.0,0.0,-1.4394,-1.5872,-1.6642,-1.6762,-1.7761,-1.8293,-1.8412,-1.9069,-1.9193,-1.8929,-1.9118,0.0,-1.6083,-1.4627,0.0,0.0,0.0,0.0,0.0,0.0,0.0,0.0,0.0,0.0,0.0,0.0,0.0,0.0,0.0,0.0,0.0,0.0,0.0,0.0,0.0,-0.5952,-0.6388,-0.7073,-0.6807,-0.6512,0.0,0.0,0.0,-0.4497,-0.4464,-0.4359,-0.4128,-0.3936,-0.403,-0.4464,-0.4745,-0.5133,-0.5608,0.0,0.0,0.0,-0.5867,-0.5443,-0.4852,0.0,0.0,0.0,0.0,0.0,0.0,0.0,0.0,0.0,0.0,0.0,0.0,0.0,0.0,0.0,0.0,0.0,0.0,0.0,0.0,0.0,0.0,0.0,0.0,0.0,0.0,0.0,0.0,0.0,0.0,0.0,0.0,0.0,0.0,0.0,0.0,0.0,0.0,0.0,0.0,-0.7455,-0.8431,-0.8686,-0.9034,-0.9212,0.0,0.0,0.0,0.0,0.0,0.0,0.0,0.0,0.0,-1.4917,-1.5426,-1.6057,-1.6862,-1.7789,-1.8485,-1.8944,-1.9289,-1.9664,-2.0053,-2.019,-2.0031,-1.9631,-1.9559,-1.8995,-1.7937,-1.6807,-1.5885,-1.5026,0.0,0.0,0.0,0.0,-1.4307,-1.5889,0.0,0.0,0.0,0.0,0.0,0.0,0.0,0.0,0.0,0.0,0.0,0.0,-0.6048,-0.6588,-0.712,-0.7653,0.0,0.0,0.0,0.0,0.0,-0.4969,-0.4782,-0.4631,-0.4482,-0.4313,-0.4475,-0.4992,-0.5191,-0.5488,0.0,0.0,0.0,0.0,0.0,0.0,0.0,0.0,0.0,0.0,0.0,0.0,0.0,0.0,0.0,0.0,0.0,0.0,0.0,0.0,0.0,0.0,0.0,0.0,0.0,0.0,0.0,0.0,0.0,0.0,0.0,0.0,0.0,0.0,0.0,0.0,0.0,0.0,0.0,0.0,0.0,0.0,0.0,0.0,0.0,0.0,0.0,-0.8565,-0.9462,-0.9446,-1.0351,-1.0781,0.0,0.0,0.0,0.0,0.0,0.0,-1.345,-1.4204,-1.5172,-1.6366,-1.7284,-1.817,-1.9033,-1.943,-1.9952,-2.058,-2.031,-2.0438,-2.0943,-2.071,-2.0407,-2.0104,-1.9891,-1.9826,-1.9781,-1.8789,-1.788,-1.7067,-1.5907,-1.5097,-1.4647,-1.5469,-1.7676,-2.0038,0.0,0.0,0.0,0.0,0.0,0.0,0.0,0.0,0.0,0.0,0.0,-0.5787,-0.6824,0.0,0.0,0.0,0.0,0.0,0.0,0.0,0.0,-0.5855,-0.5287,-0.4981,-0.4969,-0.4899,-0.5231,0.0,0.0,0.0,0.0,0.0,0.0,0.0,0.0,0.0,0.0,0.0,0.0,0.0,0.0,0.0,0.0,0.0,0.0,0.0,0.0,0.0,0.0,0.0,0.0,0.0,0.0,0.0,0.0,0.0,0.0,0.0,0.0,0.0,0.0,0.0,0.0,0.0,0.0,0.0,0.0,0.0,0.0,0.0,0.0,0.0,0.0,0.0,0.0,0.0,0.0,0.0,0.0,-1.0415,-1.1652,0.0,0.0,0.0,0.0,-1.3335,-1.3665,-1.4371,-1.5573,-1.6243,-1.7158,-1.8505,-1.8775,-1.9254,-2.0021,-2.0287,-2.057,-2.0872,-2.0615,-2.0504,-2.0549,-2.0703,-2.075,-2.0778,-2.1001,-2.1217,-2.1297,-1.991,-1.9419,-1.9421,-1.8263,-1.8301,-1.9072,-1.9959,-1.9901,-1.9453,0.0,0.0,0.0,-0.4822,-0.4802,-0.4802,-0.4802,-0.4802,-0.4857,-0.4993,-0.5684,0.0,0.0,0.0,0.0,0.0,0.0,0.0,0.0,0.0,-0.6828,-0.6243,-0.6015,-0.5961,-0.6088,-0.5816,-0.5966,0.0,0.0,0.0,0.0,0.0,0.0,0.0,0.0,0.0,0.0,0.0,0.0,0.0,0.0,0.0,0.0,0.0,0.0,0.0,0.0,0.0,0.0,0.0,0.0,0.0,0.0,0.0,0.0,0.0,0.0,0.0,0.0,0.0,0.0,0.0,0.0,0.0,0.0,0.0,0.0,0.0,0.0,0.0,0.0,0.0,0.0,0.0,0.0,0.0,0.0,0.0,0.0,-1.2122,-1.3224,0.0,0.0,-1.3961,-1.4377,-1.4958,-1.5316,-1.6029,-1.7145,-1.7566,-1.8281,-1.9359,-1.9644,-1.9942,-2.0342,-2.0607,-2.0836,-2.1044,-2.1188,-2.128,-2.1257,-2.1362,-2.125,-2.0983,-2.1075,-2.1089,-2.0987,-2.0497,-2.029,-2.0236,-1.9835,-1.9881,-2.0145,-2.0049,-2.0068,-2.0116,-0.5224,-0.5117,0.0,-0.4842,-0.4802,-0.4802,-0.4802,-0.4802,-0.4903,-0.5176,-0.6014,-0.6767,0.0,0.0,0.0,0.0,0.0,0.0,0.0,0.0,-0.7344,-0.6818,-0.6717,-0.6793,-0.7057,-0.6774,0.0,0.0,0.0,0.0,0.0,0.0,0.0,0.0,0.0,0.0,0.0,0.0,0.0,0.0,0.0,0.0,-0.4506,0.0,0.0,0.0,0.0,0.0,0.0,0.0,0.0,0.0,0.0,0.0,0.0,0.0,0.0,0.0,0.0,0.0,0.0,0.0,0.0,0.0,0.0,0.0,0.0,0.0,0.0,0.0,0.0,0.0,0.0,0.0,0.0,0.0,0.0,0.0,-1.2849,-1.2857,-1.4396,-1.5282,-1.4838,-1.562,-1.6328,-1.6713,-1.7128,-1.7629,-1.8382,-1.8704,-1.9208,-1.9988,-2.0048,-2.0144,-2.0442,-2.0621,-2.0746,-2.0818,-2.1416,-2.1696,-2.1696,-2.1696,-2.154,-2.1319,-2.1319,-2.1293,-2.1258,-2.13,-2.1275,-2.1121,-2.0947,-2.085,-2.083,-2.0664,-2.0674,-2.0693,-0.529,-0.5146,-0.5039,-0.4842,-0.4802,-0.4812,-0.4802,-0.4812,-0.5085,-0.5875,-0.6352,0.0,0.0,0.0,0.0,0.0,0.0,0.0,0.0,-0.8197,-0.781,-0.7621,-0.7368,-0.7421,-0.7841,0.0,0.0,0.0,0.0,0.0,0.0,0.0,0.0,0.0,0.0,0.0,0.0,0.0,0.0,0.0,0.0,0.0,-0.5077,0.0,0.0,0.0,0.0,0.0,0.0,0.0,0.0,0.0,0.0,0.0,0.0,0.0,0.0,0.0,0.0,0.0,0.0,0.0,0.0,0.0,0.0,0.0,0.0,0.0,0.0,0.0,0.0,0.0,0.0,0.0,0.0,0.0,-1.069,-1.2765,-1.3852,-1.2685,-1.513,-1.643,-1.5215,-1.6907,-1.8179,-1.8579,-1.8998,-1.9222,-1.9239,-1.9573,-2.0014,-2.0447,-1.9956,-1.9889,-2.0294,-2.0294,-2.0294,-2.0303,-2.1221,-2.1642,-2.1597,-2.1597,-2.1597,-2.1597,-2.1597,-2.1776,-2.2052,-2.2264,-2.2292,-2.2173,-2.1615,-2.1445,-2.1494,-2.207,-2.1846,-2.1151,-0.5482,-0.5282,-0.5098,-0.4842,-0.4922,-0.4971,-0.4822,-0.4922,-0.515,-0.5509,-0.6429,0.0,0.0,0.0,0.0,0.0,0.0,0.0,-0.9135,0.0,-0.7933,-0.8037,-0.7923,0.0,-0.8945,0.0,0.0,0.0,0.0,0.0,0.0,0.0,0.0,0.0,0.0,0.0,0.0,0.0,0.0,0.0,0.0,0.0,-0.5533,0.0,0.0,0.0,0.0,0.0,0.0,0.0,0.0,0.0,0.0,0.0,0.0,0.0,0.0,0.0,0.0,0.0,0.0,0.0,0.0,0.0,0.0,0.0,0.0,0.0,0.0,0.0,0.0,0.0,0.0,0.0,0.0,-1.2798,-1.2911,-1.355,-1.4404,-1.5541,-1.6288,-1.6967,-1.7543,-1.8378,-1.8905,-1.905,-1.9153,-1.929,-1.9529,-1.9852,-1.992,-1.9788,-1.9833,-1.9966,-2.0294,-2.0294,-2.0294,-2.0294,-2.032,-2.0085,-1.9575,-1.9101,-1.9155,-1.9621,-1.9621,-2.0031,-2.0808,-2.0844,-2.1417,-2.2224,-2.22,-2.2021,-2.1777,-2.1934,-2.1875,-2.1689,-0.5645,-0.5397,-0.5156,-0.4892,-0.4932,-0.4961,-0.4822,-0.4902,-0.5138,-0.5591,-0.6557,0.0,0.0,0.0,0.0,0.0,0.0,0.0,-0.872,-0.8306,-0.8188,-0.8491,0.0,0.0,0.0,0.0,0.0,0.0,0.0,0.0,0.0,0.0,0.0,0.0,0.0,0.0,0.0,0.0,0.0,0.0,0.0,0.0,-0.6289,-0.6197,-0.6002,-0.5743,-0.5449,-0.5358,-0.5327,-0.5137,0.0,0.0,0.0,0.0,0.0,0.0,0.0,0.0,0.0,0.0,0.0,0.0,0.0,0.0,0.0,0.0,0.0,0.0,0.0,0.0,0.0,0.0,0.0,0.0,-1.2716,-1.4122,-1.5194,-1.5358,-1.558,-1.6133,-1.6952,-1.7621,-1.787,-1.8425,-1.9025,-1.9632,-1.928,-1.9098,-1.9314,-1.9592,-1.945,-1.8872,-1.9147,-1.9422,-1.9658,-1.9658,-1.9658,-1.9658,-1.9894,-1.9575,-1.8788,-1.8826,-1.8826,0.0,-1.8788,-1.9109,-1.9658,-1.9741,-2.024,0.0,0.0,0.0,0.0,0.0,-2.2065,-2.2129,-0.5701,-0.5473,-0.5224,-0.4952,-0.4961,-0.4952,-0.4822,-0.4842,-0.5137,-0.5905,0.0,0.0,0.0,0.0,0.0,0.0,0.0,0.0,0.0,0.0,0.0,-0.8947,-0.9122,0.0,0.0,0.0,0.0,0.0,0.0,0.0,0.0,0.0,0.0,0.0,0.0,0.0,0.0,0.0,0.0,0.0,0.0,0.0,-0.7031,-0.6827,-0.6752,-0.6693,-0.6269,-0.6119,-0.6087,-0.5928,0.0,0.0,0.0,0.0,0.0,0.0,0.0,0.0,0.0,0.0,0.0,0.0,0.0,0.0,0.0,0.0,0.0,0.0,0.0,0.0,0.0,0.0,0.0,0.0,-1.3542,-1.482,-1.7117,-1.7555,-1.7062,-1.5594,-1.7064,-1.7849,-1.6943,-1.7726,-1.8786,-2.0031,-1.9309,-1.8788,-1.8788,0.0,0.0,0.0,0.0,-1.8449,-1.8611,-1.875,-1.875,-1.865,-1.9521,-1.943,-1.8511,-1.9384,-1.9285,-1.8465,-1.8465,-1.8511,-1.865,-1.8818,-1.9047,-1.9413,-2.1123,-2.1945,-2.212,-2.2111,-2.2288,0.0,-0.5503,-0.5417,-0.5272,-0.4952,-0.53,-0.5444,-0.4882,-0.5069,-0.546,-0.5942,-0.6415,0.0,0.0,0.0,0.0,0.0,0.0,0.0,0.0,0.0,-0.8997,0.0,0.0,0.0,0.0,0.0,0.0,0.0,0.0,0.0,0.0,0.0,0.0,0.0,0.0,0.0,0.0,0.0,0.0,0.0,0.0,0.0,-0.681,-0.6951,-0.7015,-0.7004,-0.6912,-0.6875,-0.6869,-0.6852,-0.653,-0.6175,-0.6132,0.0,0.0,0.0,0.0,0.0,0.0,0.0,0.0,0.0,0.0,0.0,0.0,0.0,0.0,0.0,0.0,0.0,0.0,0.0,0.0,-1.355,-1.441,-1.5351,-1.6962,-1.7871,-1.7979,-1.6875,-1.6139,-1.596,-1.6655,-1.7934,-1.8808,-1.9063,-1.8934,-1.8788,-1.8788,-1.8265,0.0,-1.6904,-1.7855,-1.8133,-1.7606,-1.838,-1.838,-1.7598,0.0,0.0,-1.6386,-1.6567,-1.6567,-1.6386,-1.6386,-1.685,-1.7598,-1.7645,-1.8603,-2.0068,-2.0005,-2.0629,-2.1471,-2.1487,-2.2105,-2.2964,-0.5435,-0.532,-0.5234,-0.5166,-0.5368,-0.5425,-0.5059,-0.5146,-0.5361,-0.566,-0.6051,0.0,0.0,0.0,0.0,0.0,0.0,0.0,0.0,0.0,0.0,0.0,0.0,0.0,0.0,0.0,0.0,0.0,0.0,0.0,0.0,0.0,0.0,0.0,0.0,0.0,0.0,0.0,0.0,0.0,0.0,0.0,-0.7058,-0.7079,-0.7112,-0.7112,-0.7112,-0.7112,-0.7112,-0.7112,-0.6934,-0.6719,-0.66,-0.6291,-0.5926,0.0,0.0,0.0,0.0,0.0,0.0,0.0,0.0,0.0,0.0,0.0,0.0,0.0,0.0,-0.9155,-0.9943,0.0,-1.244,-1.3891,-1.4643,-1.544,-1.649,-1.6321,-1.6075,-1.6154,-1.6402,-1.6711,-1.698,-1.7201,-1.7716,-1.8742,-1.7855,-1.7296,-1.7296,-1.7063,-1.6608,-1.5879,-1.7023,-1.7537,-1.7279,-1.7785,-1.7785,-1.7279,-1.7279,-1.6763,-1.5825,-1.6298,-1.6298,-1.5832,-1.6346,-1.6864,-1.7326,-1.7831,-1.865,-1.9521,-1.9239,-2.0187,-2.1695,-2.1819,-2.2325,-2.2969,-0.5433,-0.5243,-0.5156,-0.5311,-0.5359,-0.533,-0.5165,-0.5127,-0.5183,-0.5375,-0.5677,-0.6042,-0.6434,-0.6507,-0.6685,0.0,0.0,0.0,0.0,0.0,0.0,0.0,0.0,0.0,0.0,0.0,0.0,0.0,0.0,0.0,0.0,0.0,0.0,0.0,0.0,0.0,0.0,0.0,0.0,0.0,0.0,0.0,-0.7367,-0.7176,-0.7112,-0.7112,-0.7112,-0.7052,-0.7026,-0.7069,-0.7052,-0.6993,-0.6822,-0.6747,-0.6597,-0.6051,-0.5986,0.0,0.0,0.0,0.0,0.0,0.0,0.0,0.0,0.0,-0.8848,-0.9569,-0.9862,-1.0301,-1.1335,-1.2583,-1.3642,-1.4254,-1.4972,-1.5547,-1.5954,-1.5107,-1.463,-1.5233,-1.6682,-1.7409,-1.6793,-1.6358,-1.6687,-1.8087,-1.6734,-1.5893,-1.6075,-1.5994,-1.573,-1.541,-1.6379,-1.6943,-1.7005,-1.7185,-1.7185,-1.7005,-1.7005,-1.6581,-1.5832,-1.6622,-1.6574,-1.5825,-1.6676,-1.7005,-1.7091,-1.8288,-1.8788,-1.8834,-1.9201,-2.0439,-2.2008,-2.2033,-2.2344,-2.275,-0.5404,-0.5243,-0.5108,-0.5127,-0.5417,-0.5492,-0.501,-0.5078,-0.5242,-0.5375,-0.5433,-0.5614,-0.602,-0.6375,-0.685,0.0,0.0,0.0,0.0,0.0,0.0,0.0,0.0,0.0,0.0,0.0,0.0,0.0,0.0,0.0,0.0,0.0,0.0,0.0,0.0,0.0,0.0,0.0,0.0,0.0,0.0,0.0,-0.7367,-0.7176,-0.7112,-0.7112,-0.7112,-0.695,-0.6779,-0.7015,-0.6945,-0.6779,-0.6988,-0.6902,-0.6693,-0.6618,0.0,-0.6385,-0.6511,-0.6839,-0.7326,-0.8,-0.8236,-0.865,0.0,0.0,-1.0379,-1.0833,-1.1285,-1.1926,-1.287,-1.2904,-1.3393,-1.5269,-1.5908,-1.5991,-1.5408,-1.6679,-1.7205,-1.59,-1.5704,-1.5431,-1.4692,-1.617,-1.6875,-1.617,-1.594,-1.617,-1.7063,-1.5669,-1.5356,-1.64,-1.6756,-1.6615,-1.5967,-1.6857,-1.6857,-1.5967,-1.5967,-1.5927,-1.5784,-1.592,-1.5927,-1.5832,-1.592,-1.5967,-1.6109,-1.8002,-1.8788,-1.8972,-2.0682,-2.1508,-2.1687,-2.1015,-2.1516,-2.2441,-0.5395,-0.5233,-0.5098,-0.5098,-0.5302,-0.5377,-0.5117,-0.5108,-0.5126,-0.5063,-0.5059,-0.5112,-0.5285,-0.5796,-0.6345,-0.6863,-0.767,0.0,-0.8894,0.0,0.0,0.0,0.0,0.0,0.0,0.0,0.0,0.0,0.0,0.0,0.0,0.0,0.0,0.0,0.0,0.0,0.0,0.0,0.0,0.0,0.0,0.0,-0.7367,-0.7176,-0.7112,-0.7112,-0.7112,-0.6934,0.0,0.0,-0.6929,-0.6752,-0.7009,-0.6923,-0.6709,-0.6709,-0.6762,0.0,-0.7537,-0.8001,0.0,0.0,-0.9553,-1.0128,-1.0785,-1.1001,-1.1241,-1.1688,-1.2388,-1.2967,-1.2962,-1.368,-1.4499,0.0,-1.5376,-1.5445,-1.5551,-1.561,-1.5457,-1.479,-1.512,-1.557,-1.6001,-1.5751,-1.5609,-1.5798,-1.5283,-1.5194,-1.5758,-1.5261,-1.5267,-1.592,-1.615,-1.6103,-1.5784,-1.6204,-1.6204,-1.5784,-1.5784,-1.5784,-1.5784,-1.5784,-1.6433,-1.7498,-1.6951,-1.7358,-1.8503,-1.933,-1.9658,-1.9795,-2.1177,-2.1696,-2.1687,-2.1535,-2.1811,-2.223,-0.5309,-0.5205,-0.5098,-0.5078,-0.5146,-0.5195,-0.5127,-0.5069,-0.4981,-0.4822,-0.4802,-0.4884,-0.5112,-0.5545,-0.6025,-0.6512,-0.7392,-0.8077,0.0,0.0,0.0,0.0,0.0,0.0,0.0,0.0,0.0,0.0,0.0,0.0,0.0,0.0,0.0,0.0,0.0,0.0,0.0,0.0,0.0,0.0,0.0,0.0,-0.7304,-0.7149,-0.7042,-0.6988,-0.6988,-0.6837,0.0,0.0,-0.6676,-0.6543,-0.674,-0.6719,-0.6645,-0.6768,-0.7047,-0.7453,-0.813,0.0,0.0,-0.9808,-1.0557,-1.1262,-1.1413,-1.1561,-1.1912,-1.2614,-1.3121,-1.3428,-1.3425,-1.4157,0.0,-1.5287,-1.5132,-1.5139,-1.5725,-1.495,-1.4344,-1.4418,-1.4775,-1.5478,-1.6753,-1.5561,-1.4908,-1.533,-1.4723,-1.449,-1.4968,-1.5077,-1.5315,-1.5778,-1.5784,-1.5784,-1.5784,-1.5784,-1.5784,-1.5784,-1.5784,-1.5784,-1.5784,-1.5784,-1.6567,-1.7909,-1.7178,-1.7731,-1.9101,-1.9384,-1.9658,-1.9977,-2.0952,-2.1463,-2.1741,-2.1919,-2.2008,-2.2008,-0.5108,-0.5098,-0.5078,-0.501,-0.5,-0.499,-0.4922,-0.4912,-0.4883,-0.4812,-0.4802,-0.5103,-0.5875,-0.5916,-0.6188,-0.6913,-0.7598,-0.7733,-0.7095,-0.8939,0.0,0.0,0.0,0.0,0.0,0.0,0.0,0.0,0.0,0.0,0.0,0.0,0.0,0.0,0.0,0.0,0.0,0.0,0.0,0.0,0.0,0.0,-0.7095,-0.7112,-0.6945,-0.672,-0.672,0.0,0.0,0.0,-0.6028,-0.6017,-0.6028,-0.6218,0.0,-0.6945,-0.7408,0.0,0.0,0.0,-0.9638,-1.0325,-1.1005,-1.1615,-1.2161,-1.2282,-1.2609,-1.3717,-1.3317,-1.3239,-1.5012,-1.4124,-1.3843,-1.592,-1.5784,-1.5458,-1.5752,-1.5545,-1.5471,-1.5704,-1.4662,-1.4472,0.0,-1.5798,-1.5371,-1.4436,-1.4346,-1.4717,-1.5704,-1.535,-1.5553,-1.6534,-1.6069,-1.5784,-1.5784,-1.5784,-1.5784,-1.5784,-1.5784,-1.5784,-1.5784,-1.5784,-1.5832,-1.5872,-1.5879,-1.5879,-1.6015,-1.6998,-1.7971,-1.8926,-1.9931,-2.0898,-2.1696,-2.1696,-2.1687,-2.1687,-0.5098,-0.5098,-0.5078,-0.501,-0.4961,-0.4912,-0.4843,-0.4833,-0.4915,-0.5169,-0.5431,0.0,0.0,0.0,0.0,0.0,-0.7274,-0.7474,-0.7652,-0.799,0.0,0.0,0.0,0.0,0.0,0.0,0.0,0.0,0.0,0.0,0.0,0.0,0.0,0.0,0.0,0.0,0.0,0.0,0.0,0.0,0.0,0.0,-0.7112,-0.7112,-0.6939,-0.6688,0.0,0.0,0.0,0.0,0.0,0.0,-0.6371,0.0,0.0,-0.7117,0.0,0.0,0.0,0.0,-1.0384,-1.1226,-1.1748,-1.2137,-1.2493,-1.2572,-1.2632,-1.2833,-1.3,-1.3076,-1.3069,-1.3153,-1.3647,-1.4957,-1.4577,-1.4523,-1.5637,-1.4997,-1.4443,-1.4531,-1.4141,0.0,0.0,0.0,0.0,-1.4346,-1.4298,-1.4538,-1.5057,-1.4927,-1.5166,-1.5872,-1.5683,-1.5683,-1.5784,-1.5784,-1.5784,-1.5784,-1.5784,-1.5784,-1.5784,-1.5784,-1.6157,-1.677,-1.6109,-1.6157,-1.681,-1.7145,-1.7512,-1.7971,-1.9658,-2.0484,-2.0853,-2.1463,-2.1696,-2.1696,-0.5098,-0.5214,-0.5251,-0.5038,-0.5064,0.0,0.0,0.0,0.0,0.0,0.0,0.0,0.0,0.0,0.0,0.0,0.0,-0.7223,-0.7422,0.0,0.0,0.0,0.0,0.0,0.0,0.0,0.0,0.0,0.0,0.0,0.0,0.0,0.0,0.0,0.0,0.0,0.0,0.0,0.0,0.0,0.0,0.0,-0.695,-0.6869,-0.6692,0.0,0.0,0.0,0.0,0.0,0.0,0.0,0.0,0.0,0.0,0.0,0.0,-0.8699,0.0,-1.0346,-1.099,-1.1844,-1.2258,-1.2493,-1.2662,-1.2632,-1.2571,-1.2631,-1.2593,-1.2441,-1.2176,-1.2248,-1.2949,-1.4705,-1.3973,-1.3961,-1.6053,-1.495,-1.3942,-1.4032,-1.3966,-1.3942,0.0,0.0,0.0,-1.4298,-1.4298,-1.4394,-1.4544,-1.4742,-1.4981,-1.5356,-1.5547,-1.5683,-1.5784,-1.5784,-1.5784,-1.5784,-1.5784,-1.5784,-1.5784,-1.5784,-1.6157,-1.6723,-1.6062,-1.6157,-1.6763,-1.6763,-1.6998,-1.7419,-1.8703,-1.9658,-2.0393,-2.0997,-2.141,-2.1696,-0.5127,-0.5435,-0.5557,0.0,0.0,0.0,0.0,0.0,0.0,0.0,0.0,0.0,0.0,0.0,0.0,0.0,0.0,0.0,-0.6444,0.0,0.0,0.0,0.0,-0.7651,-0.8566,-0.7439,0.0,0.0,0.0,0.0,0.0,0.0,0.0,0.0,0.0,0.0,0.0,0.0,0.0,0.0,0.0,0.0,-0.6666,-0.6476,0.0,0.0,0.0,0.0,0.0,0.0,0.0,0.0,0.0,0.0,0.0,0.0,0.0,-0.9411,-1.0073,-1.079,-1.1482,-1.2163,-1.2518,-1.2699,-1.2687,-1.2481,-1.2455,-1.3028,-1.2037,-1.1304,0.0,0.0,-1.1769,-1.4976,-1.3957,-1.3755,-1.6743,-1.5284,-1.4014,0.0,0.0,0.0,0.0,0.0,0.0,-1.4316,0.0,-1.4298,-1.4298,-1.4802,-1.5102,-1.5083,-1.558,-1.5818,-1.5852,-1.5852,-1.5798,-1.5784,-1.5784,-1.5784,-1.5784,-1.5784,-1.5784,-1.5784,-1.5784,-1.5784,-1.5784,-1.5784,-1.6346,-1.7232,-1.7279,-1.8519,-2.0249,-2.0294,-2.0898,-2.1696,0.0,0.0,0.0,0.0,0.0,0.0,0.0,0.0,0.0,0.0,0.0,0.0,0.0,0.0,0.0,0.0,0.0,0.0,0.0,0.0,0.0,0.0,0.0,0.0,0.0,-0.7357,0.0,0.0,0.0,0.0,0.0,0.0,0.0,0.0,0.0,0.0,0.0,0.0,0.0,0.0,0.0,0.0,-0.6694,0.0,0.0,0.0,0.0,0.0,0.0,0.0,0.0,0.0,0.0,0.0,-0.8344,0.0,0.0,-1.0113,-1.0804,-1.1501,-1.2104,-1.2313,-1.2529,-1.265,-1.2457,-1.221,-1.1869,-1.1459,-1.0747,-1.021,-1.0244,0.0,0.0,-1.2637,-1.3126,0.0,-1.4902,-1.4566,0.0,0.0,0.0,-1.422,-1.4292,-1.4298,0.0,0.0,-1.4419,-1.4298,-1.4298,-1.4831,-1.5099,-1.5089,-1.5778,-1.619,-1.6159,-1.6159,-1.6046,-1.5784,-1.5784,-1.5784,-1.5784,-1.5784,-1.5784,-1.5784,-1.5784,-1.5784,-1.5784,-1.5784,-1.5967,-1.6251,-1.7005,-1.8056,-1.9293,-2.0022,-2.0898,-2.1696,0.0,0.0,0.0,0.0,0.0,0.0,0.0,0.0,0.0,0.0,0.0,0.0,0.0,0.0,0.0,0.0,0.0,0.0,0.0,0.0,0.0,0.0,0.0,0.0,0.0,0.0,0.0,0.0,0.0,0.0,0.0,0.0,0.0,0.0,0.0,0.0,0.0,0.0,0.0,0.0,0.0,0.0,0.0,0.0,0.0,0.0,0.0,0.0,0.0,0.0,0.0,-0.8141,-0.8138,-0.8802,-0.9647,-0.9953,0.0,-1.0962,-1.1462,-1.2035,-1.2476,-1.2541,-1.2535,-1.2433,-1.2059,-1.1633,-1.1134,-1.0334,-0.9751,0.0,-0.9191,0.0,0.0,0.0,0.0,0.0,-1.4618,-1.4506,-1.4298,0.0,-1.4298,0.0,-1.4298,-1.4413,-1.4545,0.0,-1.457,-1.4527,-1.4648,-1.514,-1.545,-1.5452,-1.6099,-1.6484,-1.6466,-1.6339,-1.6186,-1.6019,-1.5892,-1.5784,-1.5784,-1.5784,-1.5784,-1.5784,0.0,-1.5784,-1.5784,-1.5784,-1.5784,-1.5879,-1.644,-1.7271,-1.8241,-1.9293,-2.0257,-2.1132,0.0,0.0,0.0,0.0,0.0,0.0,0.0,0.0,0.0,0.0,0.0,0.0,0.0,0.0,0.0,0.0,0.0,0.0,0.0,0.0,0.0,0.0,0.0,0.0,0.0,0.0,0.0,0.0,0.0,0.0,0.0,0.0,0.0,0.0,0.0,0.0,0.0,0.0,0.0,0.0,0.0,0.0,0.0,0.0,0.0,0.0,0.0,0.0,0.0,0.0,-0.8514,-0.9096,-0.9176,-1.0001,-1.0914,-1.0771,-1.1175,-1.1751,-1.1999,-1.2361,-1.2705,-1.2662,-1.2439,-1.2125,-1.1555,-1.0996,-1.0358,-0.957,0.0,-0.8644,-0.8608,0.0,-0.99,-1.2027,0.0,-1.302,-1.4924,-1.4659,-1.4256,-1.4292,-1.4298,-1.4298,-1.4298,-1.4515,-1.4678,-1.4714,-1.4714,-1.4817,-1.5091,-1.5588,-1.591,-1.6004,-1.6417,-1.6647,-1.6647,-1.64,-1.6301,-1.6213,-1.5952,-1.5784,-1.5784,-1.5784,-1.5784,-1.5784,0.0,0.0,-1.5784,-1.5784,-1.5784,-1.5784,-1.5784,-1.6487,-1.7606,-1.8473,-1.9521,-2.0619,0.0,0.0,0.0,0.0,0.0,0.0,0.0,0.0,0.0,0.0,-0.6458,-0.6362,0.0,0.0,0.0,0.0,0.0,0.0,0.0,0.0,0.0,0.0,0.0,0.0,0.0,0.0,0.0,0.0,0.0,0.0,0.0,0.0,0.0,0.0,0.0,0.0,0.0,0.0,0.0,0.0,0.0,0.0,0.0,0.0,0.0,0.0,0.0,0.0,0.0,0.0,-0.8605,-0.9105,-0.9547,-1.0094,-1.0708,-1.1273,-1.1535,-1.1705,-1.2211,-1.2498,-1.2662,-1.2491,-1.2224,-1.1848,-1.1304,-1.0575,0.0,0.0,0.0,-0.8291,-0.8075,-0.9032,0.0,-1.0889,0.0,0.0,0.0,0.0,-1.4051,0.0,0.0,0.0,0.0,0.0,0.0,0.0,0.0,0.0,-1.5115,-1.5632,-1.6105,-1.6557,-1.6424,-1.6346,-1.6346,-1.6299,-1.6152,-1.5905,-1.5804,-1.5784,-1.5784,-1.5784,-1.5784,-1.5784,0.0,0.0,-1.5784,-1.5784,-1.5784,-1.5784,-1.5784,-1.6943,-1.8565,-1.875,-1.994,-2.1454,0.0,0.0,0.0,0.0,0.0,0.0,0.0,0.0,-0.6995,-0.8058,-0.7733,-0.7368,-0.7308,-0.7134,0.0,0.0,0.0,0.0,0.0,0.0,0.0,0.0,0.0,0.0,0.0,0.0,0.0,0.0,0.0,0.0,0.0,0.0,0.0,0.0,0.0,0.0,0.0,0.0,0.0,0.0,0.0,0.0,0.0,0.0,0.0,0.0,0.0,0.0,0.0,0.0,-0.8432,-0.8978,-0.9808,-1.0689,-1.1483,-1.1684,-1.1855,-1.2046,-1.2469,-1.2619,-1.2662,-1.2577,-1.2128,-1.1501,-1.0821,0.0,0.0,0.0,0.0,-0.8051,-0.7925,0.0,0.0,0.0,0.0,0.0,0.0,0.0,0.0,0.0,0.0,0.0,0.0,0.0,0.0,0.0,0.0,0.0,-1.5301,-1.5833,-1.6312,-1.6707,-1.6573,-1.65,-1.65,-1.6346,-1.6206,-1.6059,-1.5905,-1.5784,-1.5784,-1.5784,-1.5784,-1.5784,-1.5784,0.0,-1.5784,-1.5784,-1.5784,-1.5784,-1.5784,-1.6716,-1.8056,-1.8611,-1.9704,-2.1042,0.0,0.0,0.0,0.0,0.0,0.0,0.0,-0.6885,-0.7629,-0.8811,-0.8806,-0.8424,-0.7731,-0.7349,-0.7064,0.0,0.0,0.0,0.0,0.0,0.0,0.0,0.0,0.0,0.0,0.0,0.0,0.0,0.0,0.0,0.0,0.0,0.0,0.0,0.0,0.0,0.0,0.0,0.0,0.0,0.0,0.0,0.0,0.0,0.0,0.0,0.0,0.0,0.0,0.0,-0.8066,-0.862,-0.957,-1.0761,-1.1773,-1.1658,-1.185,-1.2216,-1.2536,-1.2662,-1.2693,-1.2638,-1.2029,-1.1194,-1.0394,-0.9588,0.0,0.0,0.0,-0.7901,-0.7901,0.0,0.0,0.0,0.0,0.0,0.0,0.0,0.0,0.0,0.0,0.0,0.0,0.0,0.0,0.0,0.0,0.0,-1.5507,-1.5963,-1.6279,-1.652,-1.652,-1.652,-1.652,-1.6293,-1.6179,-1.6179,-1.5939,-1.5784,-1.5784,-1.5784,-1.5784,-1.5784,-1.5784,0.0,0.0,-1.5784,-1.5784,-1.5784,-1.5784,-1.6386,-1.7419,-1.8195,-1.9247,-2.0393,0.0,0.0,0.0,0.0,0.0,0.0,0.0,-0.6698,-0.7522,-0.8443,-0.8792,-0.8838,-0.852,-0.7566,-0.6991,0.0,0.0,0.0,0.0,0.0,0.0,0.0,0.0,0.0,0.0,0.0,0.0,0.0,0.0,0.0,0.0,0.0,0.0,0.0,0.0,0.0,0.0,0.0,0.0,0.0,0.0,0.0,0.0,0.0,0.0,0.0,0.0,0.0,0.0,0.0,0.0,-0.7782,-0.8319,-0.9228,-1.022,-1.0677,0.0,0.0,-1.221,-1.2524,-1.2644,-1.2409,-1.1745,-1.0942,-1.0118,0.0,0.0,0.0,-0.7901,-0.7901,-0.7901,0.0,0.0,0.0,0.0,0.0,0.0,0.0,0.0,0.0,0.0,0.0,0.0,0.0,0.0,0.0,0.0,0.0,0.0,-1.5722,-1.5864,-1.5864,-1.5864,-1.5864,-1.5864,-1.5838,-1.5872,-1.5872,-1.5798,-1.5784,-1.5784,-1.5784,-1.5784,-1.5784,-1.5784,0.0,0.0,-1.5784,-1.5784,-1.5784,-1.5784,-1.6386,-1.7326,-1.7419,-1.8657,-2.0294,0.0,0.0,0.0,0.0,0.0,0.0,-0.6206,-0.684,-0.7686,-0.9041,-0.9336,-0.9361,-0.9229,-0.8042,-0.7203,0.0,0.0,0.0,0.0,0.0,0.0,0.0,0.0,0.0,0.0,0.0,0.0,0.0,0.0,0.0,0.0,0.0,0.0,0.0,0.0,0.0,0.0,0.0,0.0,0.0,0.0,0.0,0.0,0.0,0.0,0.0,0.0,0.0,0.0,0.0,0.0,0.0,-0.74,-0.7988,0.0,0.0,-1.0587,-1.1158,-1.189,-1.227,-1.2445,-1.2337,-1.1709,-1.0906,-1.0081,0.0,-0.856,-0.8009,-0.7901,-0.7901,-0.7901,-0.8109,-0.8479,0.0,-0.9178,0.0,0.0,0.0,0.0,0.0,0.0,0.0,0.0,0.0,0.0,0.0,0.0,0.0,0.0,-1.5612,-1.5784,-1.5784,-1.5784,-1.5784,-1.5784,-1.5784,-1.5784,-1.5784,-1.5784,-1.5784,-1.5784,-1.5784,-1.5784,-1.5784,-1.5784,0.0,0.0,-1.5784,-1.5784,-1.5784,-1.5784,-1.6386,-1.7279,-1.7279,-1.8195,-1.9476,0.0,0.0,0.0,0.0,0.0,-0.5167,-0.6261,-0.6767,-0.754,-0.8958,-0.9262,-0.9366,-0.9441,-0.8341,-0.7452,-0.7112,0.0,0.0,0.0,0.0,0.0,0.0,0.0,0.0,0.0,0.0,0.0,0.0,0.0,0.0,0.0,0.0,0.0,0.0,0.0,0.0,0.0,0.0,0.0,0.0,0.0,0.0,0.0,0.0,0.0,0.0,0.0,0.0,0.0,0.0,0.0,0.0,0.0,0.0,0.0,0.0,-1.0053,-1.0855,-1.1409,-1.193,-1.2302,-1.2015,-1.1413,-1.0635,0.0,0.0,-0.8441,-0.7991,-0.7901,-0.7901,-0.7901,-0.7901,-0.8117,0.0,-0.8633,-0.9163,-1.1328,0.0,0.0,0.0,0.0,0.0,0.0,0.0,0.0,0.0,0.0,0.0,0.0,-1.5594,-1.573,-1.5784,-1.5784,-1.5784,-1.5784,-1.5784,-1.5784,-1.5784,-1.5784,-1.5784,-1.5784,-1.5784,-1.5784,-1.5784,0.0,0.0,0.0,-1.5784,-1.5784,-1.5784,-1.5784,-1.6251,-1.6864,-1.6864,-1.7505,-1.8473,0.0,0.0,0.0,0.0,0.0,0.0,0.0,-0.6352,-0.6898,-0.7719,-0.8225,-0.8664,-0.906,-0.8334,-0.7718,-0.7506,0.0,0.0,0.0,0.0,0.0,0.0,0.0,0.0,0.0,0.0,0.0,0.0,0.0,0.0,0.0,0.0,0.0,0.0,0.0,0.0,0.0,0.0,0.0,0.0,0.0,0.0,0.0,0.0,0.0,0.0,0.0,0.0,0.0,0.0,0.0,0.0,0.0,0.0,0.0,0.0,-0.9535,-1.0889,-1.0764,-1.1601,-1.226,-1.134,-1.0725,-1.0094,0.0,-0.8698,-0.8219,-0.7955,-0.7901,-0.7901,-0.7901,-0.7901,-0.7901,-0.7907,-0.8367,-0.9547,-1.205,0.0,0.0,0.0,0.0,0.0,0.0,0.0,0.0,0.0,0.0,0.0,0.0,-1.5771,-1.5588,-1.5778,-1.5784,-1.5784,-1.5784,-1.5784,-1.5784,-1.5784,-1.5784,-1.5784,-1.5784,-1.5784,-1.5784,0.0,0.0,0.0,0.0,-1.5784,-1.5784,-1.5784,-1.5784,-1.5832,-1.5825,-1.5825,-1.644,-1.7326,0.0,0.0,0.0,0.0,0.0,0.0,0.0,-0.5698,-0.6164,-0.7251,-0.7522,-0.7886,-0.8608,-0.799,-0.7509,-0.7433,0.0,0.0,0.0,0.0,0.0,0.0,0.0,0.0,0.0,0.0,0.0,0.0,0.0,0.0,0.0,0.0,0.0,0.0,0.0,0.0,0.0,0.0,0.0,0.0,0.0,0.0,0.0,0.0,0.0,0.0,0.0,0.0,0.0,0.0,0.0,0.0,0.0,0.0,0.0,-0.7212,-0.815,0.0,-0.952,-1.0159,-1.0618,-1.0143,-0.9883,-0.96,-0.8975,-0.8566,-0.8213,-0.7955,-0.7901,-0.7901,-0.7901,-0.7901,-0.8015,-0.8375,0.0,0.0,0.0,0.0,0.0,0.0,0.0,0.0,0.0,0.0,0.0,0.0,0.0,0.0,0.0,-1.522,-1.5356,-1.5588,-1.573,-1.5784,-1.5784,-1.5784,-1.5784,-1.5784,-1.5784,-1.5784,-1.5784,-1.5784,0.0,0.0,0.0,0.0,0.0,-1.5784,-1.5784,-1.5784,-1.5784,-1.5784,-1.5784,-1.5784,-1.6015,-1.6393,0.0,0.0,0.0,0.0,0.0,0.0,0.0,-0.5352,-0.578,-0.6831,-0.6967,-0.7302,-0.8142,-0.7689,-0.7342,-0.7402,0.0,0.0,0.0,0.0,0.0,0.0,0.0,0.0,0.0,0.0,0.0,0.0,0.0,0.0,0.0,0.0,0.0,0.0,0.0,0.0,0.0,0.0,0.0,0.0,0.0,0.0,-0.6395,0.0,0.0,0.0,0.0,0.0,0.0,0.0,0.0,0.0,0.0,0.0,0.0,0.0,-0.7255,-0.788,0.0,-0.9297,-0.9749,-0.9435,-0.9281,-0.9071,-0.8507,-0.8205,-0.7997,-0.7834,-0.7798,-0.7808,-0.7883,-0.7901,-0.8009,-0.8333,0.0,0.0,0.0,0.0,0.0,0.0,0.0,0.0,0.0,0.0,0.0,0.0,0.0,0.0,0.0,0.0,-1.5077,-1.5356,-1.5642,-1.5784,-1.5784,-1.5784,-1.5784,-1.5784,-1.5784,-1.5784,-1.5784,-1.5784,0.0,0.0,0.0,0.0,0.0,-1.5784,-1.5784,-1.5784,-1.5784,-1.5784,-1.5784,-1.5784,-1.5784,-1.5872,0.0,0.0,0.0,0.0,0.0,0.0,0.0,0.0,-0.5623,-0.6406,-0.6534,-0.6853,-0.7637,-0.7415,-0.7229,-0.7309,0.0,0.0,0.0,0.0,0.0,0.0,0.0,0.0,0.0,0.0,0.0,-0.9823,-0.985,-0.9739,-0.9572,0.0,0.0,0.0,0.0,0.0,0.0,0.0,0.0,0.0,0.0,-0.6395,0.0,0.0,0.0,0.0,0.0,0.0,0.0,0.0,0.0,0.0,0.0,0.0,0.0,0.0,0.0,0.0,0.0,-0.8836,-0.942,-0.9022,-0.8758,-0.8469,-0.7955,-0.7701,0.0,-0.7565,-0.7583,-0.7654,-0.7853,-0.7901,-0.7919,-0.7973,0.0,0.0,0.0,0.0,0.0,0.0,0.0,0.0,0.0,0.0,0.0,0.0,0.0,0.0,0.0,0.0,-1.4927,-1.5131,-1.5547,-1.5784,-1.5784,-1.5784,-1.5784,-1.5784,-1.5784,-1.5784,-1.5784,-1.5784,0.0,0.0,0.0,0.0,0.0,-1.5784,-1.5784,-1.5784,-1.5784,-1.5784,-1.5784,-1.5784,-1.5784,-1.5784,0.0,0.0,0.0,0.0,0.0,0.0,0.0,0.0,0.0,0.0,-0.5951,-0.6333,-0.6826,-0.7077,-0.7023,0.0,0.0,0.0,0.0,0.0,0.0,0.0,0.0,0.0,0.0,0.0,0.0,-0.9066,-0.9258,-0.9323,-0.924,-0.9832,0.0,0.0,0.0,0.0,0.0,0.0,0.0,0.0,-0.6395,-0.6395,0.0,0.0,0.0,0.0,-0.6395,-0.6395,0.0,0.0,0.0,0.0,0.0,0.0,0.0,0.0,-0.6486,-0.6583,-0.7037,0.0,-0.7716,-0.7425,-0.7449,-0.7515,0.0,-0.7315,-0.7291,0.0,0.0,0.0,-0.7853,-0.7901,0.0,0.0,0.0,0.0,0.0,0.0,0.0,0.0,0.0,0.0,0.0,0.0,0.0,0.0,0.0,0.0,0.0,0.0,-1.6096,-1.5452,-1.5642,-1.5784,-1.5784,-1.5784,-1.5784,-1.5784,-1.5784,-1.5784,-1.5784,-1.5784,0.0,0.0,0.0,0.0,-1.5784,-1.5784,-1.5784,-1.5784,-1.5784,-1.5784,-1.5784,-1.5784,-1.5784,-1.5784,0.0,0.0,0.0,0.0,0.0,0.0,0.0,0.0,0.0,0.0,0.0,0.0,0.0,0.0,0.0,0.0,0.0,0.0,0.0,0.0,0.0,0.0,0.0,0.0,0.0,0.0,0.0,0.0,0.0,-0.9723,0.0,0.0,0.0,0.0,0.0,0.0,0.0,0.0,0.0,0.0,-0.6395,0.0,0.0,0.0,0.0,0.0,-0.6395,-0.6395,0.0,-0.6395,-0.6395,-0.6395,0.0,0.0,0.0,0.0,-0.6395,-0.6425,-0.6564,-0.7,-0.7376,-0.7315,-0.7418,-0.749,-0.7413,0.0,0.0,0.0,0.0,0.0,0.0,0.0,0.0,0.0,0.0,0.0,0.0,0.0,0.0,0.0,0.0,0.0,0.0,0.0,0.0,0.0,0.0,0.0,0.0,0.0,-1.5913,-1.5493,-1.5588,-1.573,-1.5784,-1.5784,-1.5784,-1.5784,-1.5784,-1.5784,-1.5784,-1.5784,-1.5784,0.0,0.0,0.0,-1.5784,-1.5784,-1.5784,-1.5784,-1.5784,-1.5784,-1.5784,-1.5784,-1.5784,-1.5784,0.0,0.0,0.0,0.0,0.0,0.0,0.0,0.0,0.0,0.0,0.0,0.0,0.0,0.0,0.0,0.0,0.0,0.0,0.0,0.0,0.0,0.0,0.0,0.0,0.0,0.0,0.0,0.0,0.0,0.0,0.0,0.0,-1.0702,0.0,0.0,0.0,0.0,0.0,0.0,0.0,0.0,0.0,0.0,0.0,0.0,0.0,0.0,0.0,0.0,-0.6395,-0.6395,-0.6395,-0.6395,0.0,0.0,0.0,0.0,0.0,-0.6492,-0.7061,-0.7661,-0.7718,-0.7808,-0.7796,-0.7595,0.0,0.0,0.0,0.0,0.0,0.0,0.0,0.0,0.0,0.0,0.0,0.0,0.0,0.0,0.0,0.0,0.0,0.0,0.0,0.0,0.0,0.0,0.0,0.0,0.0,0.0,-1.554,-1.554,-1.5635,-1.5784,-1.5784,-1.5784,-1.5784,-1.5784,-1.5784,-1.5784,-1.5784,-1.5784,0.0,0.0,0.0,-1.5784,-1.5784,-1.5784,-1.5784,-1.5784,-1.5784,-1.5784,-1.5784,-1.5784,-1.5825,0.0,0.0,0.0,0.0,0.0,0.0,0.0,0.0,0.0,0.0,0.0,0.0,0.0,0.0,0.0,0.0,0.0,0.0,0.0,0.0,0.0,0.0,0.0,0.0,0.0,0.0,0.0,0.0,0.0,0.0,-0.9377,-1.0787,-1.0767,0.0,0.0,0.0,0.0,0.0,0.0,0.0,0.0,0.0,0.0,0.0,0.0,0.0,0.0,0.0,0.0,-0.6395,-0.6395,-0.6395,-0.6395,0.0,0.0,0.0,0.0,0.0,-0.6957,-0.7454,-0.7711,-0.7128,-0.7303,-0.7589,-0.7322,0.0,0.0,0.0,0.0,0.0,0.0,0.0,0.0,0.0,0.0,0.0,0.0,0.0,0.0,0.0,0.0,0.0,0.0,0.0,0.0,0.0,0.0,0.0,0.0,0.0,0.0,-1.5784,-1.5737,-1.5784,-1.5784,-1.5784,-1.5784,-1.5784,-1.5784,-1.5784,-1.5784,-1.5784,-1.5784,0.0,0.0,-1.5784,-1.5784,-1.5784,-1.5784,-1.5784,-1.5784,-1.5784,-1.5784,-1.5784,-1.5784,-1.592,0.0,0.0,0.0,0.0,0.0,0.0,0.0,0.0,0.0,0.0,0.0,0.0,0.0,0.0,0.0,0.0,0.0,0.0,0.0,0.0,0.0,0.0,0.0,0.0,0.0,0.0,0.0,0.0,0.0,-0.9627,-0.9323,-0.985,-0.9769,-0.9118,0.0,0.0,0.0,0.0,0.0,-0.6395,0.0,0.0,0.0,0.0,0.0,0.0,0.0,0.0,0.0,0.0,-0.6289,-0.6395,-0.6395,0.0,0.0,0.0,0.0,0.0,-0.6708,-0.7249,-0.7667,-0.7328,-0.7715,-0.8196,-0.8214,0.0,0.0,0.0,0.0,0.0,0.0,0.0,0.0,0.0,0.0,0.0,0.0,0.0,0.0,0.0,0.0,0.0,0.0,0.0,0.0,0.0,0.0,0.0,0.0,0.0,0.0,0.0,-1.5547,-1.5635,-1.5635,-1.5635,-1.5689,-1.5784,-1.5784,-1.5784,-1.5784,-1.5784,-1.5784,-1.5784,0.0,-1.5784,-1.5784,-1.5784,-1.5784,-1.5784,-1.5784,-1.5784,-1.5784,-1.5784,-1.5784,-1.592,0.0,0.0,0.0,0.0,0.0,0.0,0.0,0.0,0.0,0.0,0.0,0.0,0.0,0.0,0.0,0.0,0.0,0.0,0.0,0.0,0.0,0.0,0.0,0.0,0.0,0.0,-0.9053,-0.8936,-0.9242,-0.9367,-0.9354,-0.8968,-0.8723,0.0,0.0,0.0,0.0,0.0,0.0,-0.6395,0.0,0.0,0.0,0.0,0.0,0.0,0.0,0.0,0.0,0.0,0.0,0.0,0.0,0.0,0.0,-0.6395,-0.6395,-0.6419,-0.654,-0.7085,-0.7625,-0.7727,-0.819,-0.8698,-0.9084,0.0,0.0,0.0,0.0,0.0,0.0,0.0,0.0,0.0,0.0,0.0,0.0,0.0,0.0,0.0,0.0,0.0,0.0,0.0,0.0,0.0,0.0,0.0,0.0,0.0,0.0,0.0,-1.5315,-1.5404,-1.5404,-1.5404,-1.5547,-1.5784,-1.5784,-1.5784,-1.5784,-1.5784,-1.5784,-1.5784,-1.5784,-1.5744,-1.5732,-1.5732,-1.5691,-1.5625,-1.5625,-1.5625,-1.5625,-1.5625,-1.5625,-1.5718,0.0,0.0,0.0,0.0,0.0,0.0,0.0,0.0,0.0,0.0,0.0,0.0,0.0,0.0,0.0,0.0,0.0,0.0,0.0,0.0,0.0,0.0,0.0,0.0,0.0,-0.8034,-0.8194,-0.8172,-0.8584,-0.891,-0.9213,-0.8678,-0.8165,-0.7685,0.0,0.0,0.0,0.0,0.0,-0.6395,-0.6395,0.0,0.0,0.0,0.0,0.0,0.0,0.0,0.0,0.0,0.0,0.0,0.0,0.0,-0.6395,-0.6395,-0.6395,-0.6498,-0.7012,-0.7364,-0.7717,-0.8133,-0.8301,0.0,-0.9222,-0.9394,0.0,0.0,0.0,0.0,0.0,0.0,0.0,0.0,0.0,0.0,0.0,0.0,0.0,0.0,0.0,0.0,0.0,0.0,0.0,0.0,0.0,0.0,0.0,0.0,0.0,0.0,0.0,-1.5131,-1.5131,-1.5131,-1.5363,-1.5784,-1.5784,-1.5784,-1.5784,-1.5784,-1.5784,-1.5784,-1.5784,-1.5678,-1.5431,-1.5431,-1.5271,-1.5068,-1.5068,-1.5068,-1.5068,-1.5068,-1.5068,-1.5068,0.0,0.0,0.0,0.0,0.0,0.0,0.0,0.0,0.0,0.0,0.0,0.0,0.0,0.0,0.0,0.0,0.0,0.0,0.0,0.0,0.0,0.0,0.0,-0.631,-0.6757,-0.7643,-0.8099,-0.8099,-0.817,-0.8282,-0.8446,-0.7859,0.0,0.0,0.0,0.0,0.0,0.0,0.0,-0.6395,-0.6395,-0.6395,0.0,0.0,0.0,0.0,0.0,0.0,0.0,0.0,-0.579,-0.6119,0.0,0.0,0.0,0.0,-0.6276,-0.6437,-0.6659,-0.7199,-0.7758,-0.7941,0.0,0.0,0.0,0.0,0.0,0.0,0.0,0.0,0.0,0.0,0.0,0.0,0.0,0.0,0.0,0.0,0.0,0.0,0.0,0.0,0.0,0.0,0.0,0.0,0.0,0.0,0.0,0.0,0.0,0.0,0.0,-1.4331,-1.4331,-1.4331,-1.4509,-1.4871,-1.5139,-1.5319,-1.5291,-1.5291,-1.5291,-1.5291,-1.5291,-1.5224,-1.5169,-1.5169,-1.5109,-1.5008,-1.5008,-1.5008,-1.5008,-1.5008,-1.5008,-1.5008,0.0,0.0,0.0,0.0,0.0,0.0,0.0,0.0,0.0,0.0,0.0,0.0,0.0,0.0,0.0,0.0,0.0,0.0,0.0,0.0,0.0,0.0,0.0,-0.5852,-0.6189,-0.7049,-0.7574,-0.7744,-0.7772,-0.772,-0.7569,0.0,0.0,0.0,0.0,0.0,0.0,0.0,0.0,0.0,-0.6395,-0.6395,0.0,0.0,0.0,0.0,0.0,0.0,0.0,0.0,-0.5499,0.0,0.0,0.0,0.0,0.0,0.0,-0.6581,-0.6581,-0.7201,-0.7885,0.0,0.0,0.0,0.0,0.0,0.0,0.0,0.0,0.0,0.0,0.0,0.0,0.0,0.0,0.0,0.0,0.0,0.0,0.0,0.0,0.0,0.0,0.0,0.0,0.0,0.0,0.0,0.0,0.0,0.0,0.0,0.0,-1.3791,-1.3791,-1.3791,-1.3884,-1.4053,-1.4379,-1.4598,-1.4777,-1.4777,-1.4822,-1.4867,-1.4867,-1.4865,-1.4823,-1.4823,-1.477,-1.4733,-1.4733,-1.4733,-1.4733,-1.4733,-1.4733,-1.4733,0.0,0.0,0.0,0.0,0.0,0.0,0.0,0.0,0.0,0.0,0.0,0.0,0.0,0.0,0.0,0.0,0.0,0.0,0.0,0.0,0.0,0.0,0.0,-0.5845,-0.6176,-0.6189,-0.6452,-0.6993,-0.7337,-0.7234,-0.6687,-0.6694,0.0,0.0,0.0,0.0,0.0,0.0,0.0,0.0,-0.6395,-0.6395,-0.6334,0.0,0.0,0.0,0.0,0.0,0.0,0.0,-0.5377,-0.5639,0.0,0.0,0.0,0.0,-0.668,-0.7003,-0.6996,-0.7481,-0.8076,0.0,0.0,0.0,0.0,0.0,0.0,0.0,0.0,0.0,0.0,0.0,0.0,0.0,0.0,0.0,0.0,0.0,0.0,0.0,0.0,0.0,0.0,0.0,0.0,0.0,0.0,0.0,0.0,0.0,0.0,0.0,-1.3507,-1.3507,-1.3507,-1.3507,-1.3503,-1.3498,-1.3498,-1.3774,-1.4315,-1.4315,-1.4405,-1.4584,-1.4584,-1.4561,-1.4516,-1.4516,-1.4349,-1.4088,-1.4088,-1.4088,-1.4088,-1.4088,-1.4088,-1.4088,0.0,0.0,0.0,0.0,0.0,0.0,0.0,0.0,0.0,0.0,0.0,0.0,0.0,0.0,0.0,0.0,0.0,0.0,0.0,0.0,0.0,0.0,0.0,0.0,0.0,0.0,-0.605,-0.6432,-0.7064,-0.7069,0.0,0.0,0.0,-0.6192,0.0,0.0,0.0,0.0,0.0,0.0,0.0,-0.6395,-0.6352,0.0,0.0,0.0,0.0,0.0,0.0,0.0,0.0,0.0,0.0,0.0,0.0,0.0,-0.6358,-0.6908,-0.6765,-0.7423,0.0,0.0,0.0,0.0,0.0,0.0,0.0,0.0,0.0,0.0,0.0,0.0,0.0,0.0,0.0,0.0,0.0,0.0,0.0,0.0,0.0,0.0,0.0,0.0,0.0,0.0,0.0,0.0,0.0,0.0,0.0,0.0,-1.2946,-1.2946,-1.2946,-1.2946,-1.2947,-1.2954,-1.2954,-1.3213,-1.3683,-1.3812,-1.3905,-1.3991,-1.417,-1.4252,-1.4215,-1.4215,-1.4168,-1.4088,-1.4088,-1.4088,-1.4088,-1.4088,-1.4088,-1.4088,0.0,0.0,0.0,0.0,0.0,0.0,0.0,0.0,0.0,0.0,0.0,0.0,0.0,0.0,0.0,0.0,0.0,0.0,0.0,0.0,0.0,0.0,0.0,0.0,0.0,-0.5792,-0.5997,0.0,0.0,0.0,0.0,0.0,0.0,-0.627,0.0,-0.6167,0.0,0.0,0.0,0.0,-0.6179,-0.6246,-0.6216,0.0,0.0,0.0,0.0,0.0,0.0,0.0,0.0,0.0,0.0,0.0,0.0,-0.5983,-0.65,-0.7077,-0.7202,0.0,0.0,0.0,0.0,0.0,0.0,0.0,0.0,0.0,0.0,0.0,0.0,0.0,0.0,0.0,0.0,0.0,0.0,0.0,0.0,0.0,0.0,0.0,0.0,0.0,0.0,0.0,0.0,0.0,0.0,0.0,0.0,0.0,-1.2705,-1.2705,-1.2705,-1.2705,-1.2705,-1.2705,-1.2705,-1.2833,-1.3137,-1.3349,-1.3568,-1.3695,-1.3997,-1.4088,-1.4088,-1.4088,-1.4088,-1.4088,-1.4088,-1.4088,-1.4088,-1.4088,-1.4088,-1.4088,0.0,0.0,-0.365,-0.3985,0.0,0.0,0.0,0.0,0.0,0.0,0.0,-0.4741,0.0,0.0,0.0,-0.4761,0.0,0.0,0.0,0.0,0.0,0.0,0.0,0.0,0.0,0.0,0.0,0.0,0.0,0.0,0.0,0.0,-0.635,-0.6451,0.0,-0.6204,0.0,0.0,0.0,0.0,-0.5942,-0.5954,-0.593,-0.5687,0.0,0.0,0.0,0.0,0.0,0.0,0.0,0.0,0.0,0.0,-0.5479,-0.625,-0.6857,-0.7406,0.0,0.0,0.0,0.0,0.0,0.0,0.0,0.0,0.0,0.0,0.0,0.0,0.0,0.0,0.0,0.0,0.0,0.0,0.0,0.0,0.0,0.0,0.0,0.0,0.0,0.0,0.0,0.0,0.0,0.0,0.0,0.0,0.0,0.0,-1.2668,-1.2681,-1.2705,-1.2705,-1.2693,0.0,-1.2668,-1.2656,-1.2675,-1.2984,-1.3355,-1.3737,-1.3997,-1.4088,-1.4088,-1.4088,-1.4088,-1.4088,-1.4088,-1.4088,-1.4088,-1.4088,-1.4088,-1.4088,0.0,0.0,-0.398,-0.4262,0.0,0.0,0.0,0.0,-0.4482,-0.4482,-0.4302,-0.4255,-0.4456,-0.4295,0.0,-0.4462,-0.4289,0.0,0.0,0.0,0.0,0.0,0.0,0.0,0.0,0.0,0.0,0.0,0.0,0.0,0.0,0.0,0.0,-0.6028,0.0,-0.5892,0.0,0.0,0.0,-0.5389,-0.5596,-0.5681,-0.5675,-0.562,-0.5432,0.0,0.0,0.0,0.0,0.0,0.0,0.0,-0.5365,-0.5529,-0.5548,-0.5572,-0.633,-0.7141,0.0,-0.8023,0.0,0.0,0.0,0.0,0.0,0.0,0.0,0.0,0.0,0.0,0.0,0.0,0.0,0.0,0.0,0.0,0.0,0.0,0.0,0.0,0.0,0.0,0.0,0.0,0.0,0.0,0.0,0.0,0.0,0.0,0.0,-1.2391,-1.2397,-1.2493,-1.2699,-1.2705,-1.2602,0.0,-1.2397,-1.2377,-1.2398,-1.3033,-1.3568,-1.3997,-1.4088,-1.4088,-1.4088,-1.4088,-1.4088,-1.4088,-1.4088,-1.4088,-1.4088,-1.4088,-1.4088,-1.4088,0.0,0.0,0.0,0.0,0.0,0.0,0.0,0.0,-0.4442,-0.4575,-0.4355,-0.4248,-0.4389,-0.4154,0.0,0.0,-0.4079,-0.4059,0.0,0.0,0.0,0.0,0.0,0.0,0.0,0.0,0.0,0.0,0.0,0.0,0.0,0.0,0.0,-0.6362,0.0,-0.5868,0.0,0.0,0.0,-0.5219,-0.5353,-0.5408,-0.5408,-0.5408,-0.525,-0.5002,-0.5002,0.0,0.0,0.0,0.0,0.0,0.0,0.0,-0.5307,-0.5519,-0.6162,-0.6892,0.0,0.0,0.0,0.0,0.0,0.0,0.0,0.0,0.0,0.0,0.0,0.0,0.0,0.0,0.0,0.0,0.0,0.0,0.0,0.0,0.0,0.0,0.0,0.0,0.0,0.0,0.0,0.0,0.0,0.0,0.0,-1.2046,-1.1946,-1.2079,-1.2125,-1.2192,-1.233,-1.233,-1.2264,-1.2125,-1.2125,-1.218,-1.2305,-1.2921,-1.341,-1.3708,-1.3708,-1.375,-1.3868,-1.3728,-1.3667,-1.3667,-1.3667,-1.3667,-1.3687,-1.3821,-1.3874,-1.3895,0.0,0.0,0.0,0.0,0.0,0.0,0.0,0.0,0.0,-0.4687,-0.4535,-0.4389,-0.4389,-0.4102,-0.3918,0.0,0.0,0.0,-0.3992,0.0,0.0,0.0,0.0,0.0,0.0,0.0,0.0,0.0,0.0,0.0,0.0,0.0,0.0,-0.6822,0.0,0.0,0.0,0.0,-0.5067,-0.5061,-0.5013,-0.4994,-0.4994,-0.4994,-0.4891,-0.4723,-0.4723,-0.4754,-0.4802,-0.4845,0.0,0.0,0.0,0.0,-0.5009,-0.5577,-0.6065,-0.6573,0.0,0.0,0.0,0.0,0.0,0.0,0.0,0.0,0.0,0.0,0.0,0.0,0.0,0.0,0.0,0.0,0.0,0.0,0.0,0.0,0.0,0.0,0.0,0.0,0.0,0.0,0.0,0.0,0.0,0.0,-1.211,-1.1866,-1.1766,-1.1814,-1.1814,-1.1838,-1.188,-1.188,-1.1902,-1.1814,-1.1766,-1.1866,-1.2116,-1.255,-1.2904,-1.3201,-1.3201,-1.3282,-1.3425,-1.3187,-1.3134,-1.3134,-1.3134,-1.3174,-1.3247,-1.3493,-1.36,-1.3646,0.0,0.0,0.0,0.0,0.0,0.0,0.0,0.0,0.0,0.0,-0.4382,-0.4376,-0.4316,-0.3861,-0.3566,-0.3566,-0.3566,-0.3683,0.0,0.0,0.0,0.0,0.0,0.0,0.0,0.0,0.0,0.0,0.0,0.0,0.0,0.0,0.0,-0.662,0.0,0.0,0.0,0.0,-0.456,-0.4487,-0.4253,-0.4156,-0.4156,-0.4156,-0.429,-0.4457,-0.4457,-0.4602,-0.4832,-0.5073,-0.4984,0.0,0.0,0.0,0.0,0.0,-0.5559,-0.6121,0.0,0.0,0.0,0.0,0.0,0.0,0.0,0.0,0.0,0.0,0.0,0.0,0.0,0.0,0.0,0.0,0.0,0.0,0.0,0.0,0.0,0.0,0.0,0.0,0.0,0.0,0.0,0.0,0.0,0.0,-1.1258,-1.122,-1.1291,-1.1537,-1.1543,-1.1651,-1.192,-1.188,-1.1766,-1.1543,-1.1335,-1.122,-1.127,-1.1587,-1.2039,-1.2708,-1.2708,-1.2708,-1.2742,-1.2703,-1.277,-1.2929,-1.2929,-1.3048,-1.3247,-1.3493,-1.36,-1.3646,0.0,0.0,0.0,0.0,0.0,0.0,0.0,0.0,0.0,0.0,0.0,-0.4316,-0.4257,-0.3968,-0.3685,-0.346,-0.3485,0.0,0.0,0.0,0.0,0.0,0.0,0.0,0.0,0.0,0.0,0.0,0.0,0.0,0.0,-0.633,-0.66,0.0,0.0,0.0,0.0,0.0,0.0,-0.4409,-0.4442,-0.4539,-0.4636,-0.4344,-0.4481,-0.4802,-0.4505,0.0,0.0,-0.4881,-0.4903,-0.483,-0.5022,0.0,0.0,0.0,0.0,0.0,0.0,0.0,0.0,0.0,0.0,0.0,0.0,0.0,0.0,0.0,0.0,0.0,0.0,0.0,0.0,0.0,0.0,0.0,0.0,0.0,0.0,0.0,0.0,0.0,0.0,0.0,0.0,0.0,0.0,-1.1111,-1.1111,-1.1111,-1.1134,-1.1254,-1.1298,-1.1315,-1.1467,-1.1467,-1.1407,-1.1254,-1.1172,-1.1111,-1.1111,-1.12,-1.1603,-1.2225,-1.218,-1.2258,-1.2369,-1.2273,-1.2317,-1.2394,-1.2508,-1.2629,-1.2739,-1.3033,-1.314,-1.3186,0.0,0.0,0.0,0.0,0.0,0.0,0.0,0.0,0.0,0.0,0.0,-0.4224,-0.4108,0.0,0.0,0.0,-0.3468,0.0,0.0,0.0,0.0,0.0,0.0,0.0,0.0,0.0,0.0,0.0,0.0,0.0,-0.6606,-0.6466,-0.7014,0.0,-0.7241,0.0,0.0,0.0,0.0,-0.4614,-0.4742,-0.4911,-0.5073,-0.4802,-0.5007,-0.5335,0.0,0.0,0.0,0.0,0.0,0.0,0.0,0.0,0.0,0.0,0.0,0.0,0.0,0.0,0.0,0.0,0.0,0.0,0.0,0.0,0.0,0.0,0.0,0.0,0.0,0.0,0.0,0.0,0.0,0.0,0.0,0.0,0.0,0.0,0.0,0.0,0.0,0.0,0.0,0.0,0.0,-1.1111,-1.1111,-1.1111,-1.1111,-1.1111,-1.1111,-1.1111,-1.1111,-1.1111,-1.1111,-1.1111,-1.1111,-1.1111,-1.1111,-1.1111,-1.1307,-1.1699,-1.1655,-1.1738,-1.191,-1.1877,-1.1892,-1.1929,-1.215,-1.2268,-1.2338,-1.2677,-1.2784,-1.2831,0.0,0.0,0.0,0.0,0.0,0.0,0.0,0.0,0.0,0.0,0.0,-0.4108,-0.3851,-0.3818,-0.3719,-0.3511,-0.3495,0.0,0.0,0.0,0.0,0.0,0.0,0.0,0.0,0.0,0.0,0.0,0.0,0.0,-0.6593,-0.6854,-0.7592,-0.8724,-0.7701,-0.6914,-0.6258,0.0,0.0,-0.514,-0.4887,-0.4802,-0.4869,-0.5353,-0.5711,-0.5882,0.0,0.0,0.0,0.0,0.0,0.0,0.0,0.0,0.0,0.0,0.0,0.0,0.0,0.0,0.0,0.0,0.0,0.0,0.0,0.0,0.0,0.0,0.0,0.0,0.0,0.0,0.0,0.0,0.0,0.0,0.0,0.0,0.0,0.0,0.0,0.0,0.0,0.0,0.0,0.0,0.0,-1.1111,-1.1111,-1.1111,-1.1111,-1.1111,-1.1111,-1.1111,-1.1111,-1.1111,-1.1111,-1.1111,-1.1111,-1.1111,-1.1111,-1.1111,-1.1117,-1.1135,-1.1135,-1.1135,-1.1173,-1.1341,-1.1558,-1.1744,-1.1929,-1.212,-1.2338,-1.2677,-1.2784,-1.2831,0.0,0.0,0.0,0.0,0.0,0.0,0.0,0.0,0.0,0.0,0.0,0.0,0.0,-0.3818,-0.3749,-0.3462,-0.3319,0.0,0.0,0.0,0.0,0.0,0.0,0.0,0.0,0.0,0.0,0.0,0.0,-0.4575,-0.6025,-0.5945,-0.6433,-0.7388,-0.7285,-0.7105,-0.6824,-0.5888,0.0,0.0,-0.5468,-0.5681,0.0,-0.5845,-0.6131,-0.6447,0.0,0.0,0.0,0.0,0.0,0.0,0.0,-0.4652,-0.4578,-0.4547,0.0,0.0,0.0,0.0,0.0,0.0,0.0,0.0,0.0,0.0,0.0,0.0,0.0,0.0,0.0,0.0,0.0,0.0,0.0,0.0,0.0,0.0,0.0,0.0,0.0,0.0,0.0,0.0,0.0,0.0,0.0,0.0,-1.0788,-1.0788,-1.0717,-1.0575,-1.0575,-1.0653,-1.0858,-1.1027,-1.1027,-1.0821,-1.0821,-1.0737,-1.0581,-1.0743,-1.0731,-1.0593,-1.0966,-1.1111,-1.1111,-1.1335,-1.1521,-1.1706,-1.1929,-1.2114,-1.2311,-1.2418,-1.2496,-1.2478,0.0,0.0,0.0,-0.3946,0.0,-0.334,-0.3537,-0.3264,0.0,0.0,0.0,0.0,0.0,0.0,-0.3704,-0.3205,-0.3046,0.0,0.0,0.0,0.0,0.0,0.0,0.0,0.0,0.0,0.0,0.0,0.0,0.0,0.0,-0.534,-0.5769,-0.6593,-0.6546,-0.6739,0.0,0.0,0.0,-0.5682,0.0,0.0,-0.6568,0.0,-0.6992,0.0,0.0,0.0,0.0,0.0,0.0,0.0,0.0,-0.4676,-0.4324,-0.4439,0.0,0.0,0.0,0.0,0.0,0.0,0.0,0.0,0.0,0.0,0.0,0.0,0.0,0.0,0.0,0.0,0.0,0.0,0.0,0.0,0.0,0.0,0.0,0.0,0.0,0.0,0.0,0.0,0.0,0.0,0.0,0.0,-1.0604,-1.0534,-1.0431,-1.0292,-1.0292,-1.0382,-1.0551,-1.0725,-1.0725,-1.0557,-1.0557,-1.046,-1.0304,-1.0472,-1.046,-1.0316,-1.0695,-1.0863,-1.0985,-1.1298,-1.1521,-1.1706,-1.1929,-1.2114,-1.2305,-1.2305,-1.2305,-1.2305,-0.327,-0.3462,-0.367,-0.3597,-0.3259,-0.3064,-0.3263,-0.3173,-0.319,-0.3477,0.0,0.0,0.0,0.0,0.0,0.0,0.0,0.0,-0.2676,0.0,0.0,0.0,0.0,0.0,0.0,0.0,0.0,0.0,0.0,0.0,0.0,0.0,-0.5722,-0.65,-0.5587,-0.5775,-0.675,0.0,-0.6474,-0.6523,0.0,-0.6918,-0.6945,0.0,0.0,0.0,-0.7685,-0.7449,0.0,0.0,0.0,0.0,0.0,-0.4701,-0.4146,-0.4338,-0.4505,0.0,0.0,0.0,0.0,0.0,0.0,0.0,0.0,0.0,0.0,0.0,0.0,0.0,0.0,0.0,0.0,0.0,0.0,0.0,0.0,0.0,0.0,0.0,0.0,0.0,0.0,0.0,0.0,0.0,0.0,-1.0579,-1.0585,-1.0378,-1.0274,-1.0274,-1.028,-1.028,-1.028,-1.0292,-1.0292,-1.028,-1.028,-1.028,-1.0274,-1.028,-1.028,-1.0274,-1.0286,-1.0436,-1.0719,-1.1169,-1.1515,-1.1706,-1.1892,-1.2114,-1.2305,-1.2305,-1.2305,-1.2305,-0.3224,-0.3274,-0.3319,-0.3253,-0.3068,-0.2974,-0.3131,-0.3036,-0.3121,0.0,0.0,0.0,0.0,0.0,0.0,0.0,0.0,0.0,-0.2144,-0.2114,-0.214,-0.221,-0.2189,0.0,0.0,0.0,0.0,0.0,0.0,0.0,0.0,0.0,0.0,0.0,-0.5018,-0.5188,-0.5637,-0.5429,0.0,0.0,-0.6585,-0.6922,0.0,0.0,0.0,0.0,0.0,-0.7928,-0.7687,0.0,-0.7279,-0.6821,0.0,0.0,0.0,-0.4439,-0.4645,0.0,-0.5093,0.0,0.0,0.0,0.0,0.0,0.0,0.0,0.0,0.0,0.0,0.0,0.0,0.0,0.0,0.0,0.0,0.0,0.0,0.0,0.0,0.0,0.0,0.0,0.0,0.0,0.0,0.0,-1.0477,-1.0315,-1.0184,-0.989,-0.9733,-0.9733,-0.9913,-1.0009,-1.0009,-1.0202,-1.0202,-1.0009,-1.0009,-0.9913,-0.9739,-0.9925,-0.9907,-0.9751,-1.013,-1.0232,-1.0154,-1.0676,-1.1199,-1.1706,-1.1744,-1.2003,-1.2305,-1.2305,-1.2305,-1.2305,-0.3192,-0.3192,-0.3175,-0.3105,-0.3059,-0.3042,-0.3101,-0.3088,-0.3217,0.0,0.0,0.0,0.0,0.0,0.0,0.0,0.0,0.0,-0.1916,-0.1964,-0.203,-0.21,-0.21,-0.2191,0.0,0.0,0.0,0.0,0.0,0.0,0.0,0.0,0.0,0.0,-0.4231,-0.4427,-0.4771,-0.4503,0.0,0.0,-0.679,0.0,0.0,-0.773,-0.772,0.0,0.0,0.0,-0.7729,-0.7669,-0.7496,0.0,0.0,0.0,-0.5031,-0.4874,0.0,0.0,0.0,0.0,0.0,0.0,0.0,0.0,0.0,0.0,0.0,0.0,0.0,0.0,0.0,0.0,0.0,0.0,0.0,0.0,0.0,0.0,0.0,0.0,0.0,0.0,0.0,0.0,0.0,-1.0593,-1.0339,-1.0047,-0.9798,-0.9612,-0.9516,-0.9516,-0.966,-0.9745,-0.9745,-0.9895,-0.9895,-0.9745,-0.9745,-0.966,-0.949,-0.9672,-0.966,-0.9534,-0.9835,-0.9943,-0.9925,-1.0232,-1.0788,-1.1425,-1.1498,-1.1788,-1.2194,-1.2268,-1.2305,-1.2305,0.0,-0.3192,-0.3183,-0.3149,-0.3187,-0.3211,-0.3177,-0.3271,-0.344,0.0,0.0,0.0,0.0,0.0,0.0,0.0,0.0,0.0,-0.1936,-0.1971,-0.203,-0.2089,-0.21,-0.2183,-0.2359,0.0,0.0,0.0,0.0,0.0,0.0,0.0,0.0,0.0,-0.3376,-0.3631,-0.4056,-0.3892,0.0,-0.5957,-0.7063,-0.7487,0.0,0.0,-0.7571,0.0,-0.6885,-0.7056,-0.7373,-0.7277,-0.72,0.0,0.0,-0.6066,-0.6005,-0.5584,-0.5737,0.0,0.0,0.0,0.0,0.0,0.0,0.0,-0.7426,-0.7114,0.0,0.0,0.0,0.0,0.0,0.0,0.0,0.0,0.0,0.0,0.0,0.0,0.0,0.0,0.0,0.0,0.0,-1.0492,-1.0492,-1.0492,-1.0147,-0.9781,-0.95,-0.9474,-0.9486,-0.9484,-0.9516,-0.9516,-0.9516,-0.9516,-0.9516,-0.9516,-0.9516,-0.9516,-0.9516,-0.9516,-0.9516,-0.9516,-0.9516,-0.9648,-0.9865,-0.9865,-1.0274,-1.0969,-1.1173,-1.1554,-1.2,-1.2181,-1.2268,-1.2305,-0.3192,-0.3192,-0.324,-0.3385,-0.3431,-0.3476,-0.3577,-0.3606,-0.3723,-0.3979,0.0,0.0,0.0,0.0,0.0,0.0,0.0,0.0,0.0,-0.2054,-0.2008,-0.2019,-0.2067,-0.2116,-0.2159,-0.2334,0.0,0.0,0.0,0.0,0.0,0.0,0.0,0.0,-0.3091,-0.3192,-0.3289,-0.4197,0.0,-0.5623,-0.6123,0.0,-0.7193,-0.7244,-0.6977,-0.6574,-0.6629,-0.6692,-0.6796,0.0,-0.6924,-0.6895,0.0,0.0,0.0,0.0,0.0,-0.6845,-0.6817,-0.7027,-0.7142,0.0,0.0,0.0,0.0,-0.6404,0.0,0.0,0.0,0.0,0.0,0.0,0.0,0.0,0.0,0.0,0.0,0.0,0.0,0.0,0.0,0.0,0.0,-0.9883,-0.9883,-0.9883,-0.9544,-0.9378,-0.9408,-0.9278,-0.9281,-0.9478,-0.9516,-0.9516,-0.9516,-0.9516,-0.9516,-0.9516,-0.9516,-0.9516,-0.9516,-0.9516,-0.9516,-0.9516,-0.9516,-0.9546,-0.9588,-0.9588,-0.9995,-1.0709,-1.0955,-1.1325,-1.1726,-1.1955,-1.2157,-1.2305,-0.3192,-0.3192,-0.3265,-0.3473,-0.3557,-0.3652,-0.383,-0.3794,-0.3794,0.0,0.0,0.0,0.0,0.0,0.0,0.0,0.0,0.0,0.0,0.0,-0.2052,-0.2052,-0.2054,-0.2067,-0.21,-0.2195,-0.2332,0.0,0.0,0.0,0.0,0.0,0.0,0.0,0.0,-0.3205,-0.3432,0.0,-0.465,-0.5496,-0.6145,0.0,-0.713,-0.653,-0.6158,-0.5932,-0.5738,-0.5834,-0.6178,-0.6568,-0.6819,0.0,0.0,-0.6527,-0.693,0.0,-0.6894,-0.7086,0.0,0.0,-0.7553,-0.6991,0.0,0.0,0.0,0.0,0.0,0.0,0.0,0.0,0.0,0.0,0.0,0.0,0.0,0.0,0.0,0.0,0.0,0.0,0.0,0.0,0.0,-0.9715,-0.965,-0.957,-0.9318,-0.9206,-0.9208,-0.8999,-0.8969,-0.9107,-0.9239,-0.9306,-0.9306,-0.9444,-0.9516,-0.9516,-0.9516,-0.9516,-0.9516,-0.9516,-0.9516,-0.9516,-0.9516,-0.9516,-0.9516,-0.9516,-0.9705,-1.0098,-1.047,-1.0865,-1.1285,-1.1498,-1.1721,-1.1884,-0.3192,-0.3192,-0.3265,-0.3473,-0.3608,-0.3762,-0.3926,-0.3895,0.0,0.0,0.0,0.0,0.0,0.0,0.0,0.0,0.0,0.0,0.0,0.0,0.0,-0.2174,-0.2093,-0.2073,-0.2153,-0.2134,-0.2221,0.0,0.0,0.0,0.0,0.0,0.0,0.0,0.0,0.0,0.0,0.0,0.0,-0.559,0.0,-0.6747,-0.6999,-0.599,-0.5541,-0.5381,-0.4844,-0.498,-0.5518,-0.6015,0.0,-0.6673,-0.5945,-0.6262,0.0,0.0,0.0,0.0,0.0,0.0,0.0,0.0,0.0,-0.7128,0.0,0.0,0.0,-0.7184,0.0,0.0,0.0,0.0,0.0,0.0,0.0,0.0,0.0,0.0,0.0,0.0,0.0,0.0,0.0,-0.9379,-0.9336,-0.9277,-0.9025,-0.889,-0.8968,-0.8748,-0.8656,-0.8704,-0.8915,-0.9047,-0.9095,-0.9324,-0.9462,-0.9516,-0.9516,-0.9516,-0.9516,-0.9516,-0.9516,-0.9516,-0.9516,-0.9516,-0.9516,-0.9516,-0.9516,-0.954,-0.997,-1.0405,-1.081,-1.1039,-1.1224,-1.1394,-0.3192,-0.3192,-0.3265,-0.3473,-0.3608,-0.3723,-0.382,-0.3958,0.0,0.0,0.0,0.0,0.0,0.0,0.0,0.0,0.0,0.0,-0.2996,0.0,0.0,-0.2449,-0.2269,-0.2238,-0.2362,-0.2246,-0.2176,-0.2144,0.0,0.0,0.0,0.0,-0.2402,-0.237,-0.2632,0.0,0.0,0.0,-0.4906,0.0,-0.5563,-0.579,0.0,-0.6056,-0.564,-0.5173,-0.4703,-0.4632,-0.4786,0.0,-0.5209,-0.5718,0.0,-0.5778,0.0,0.0,0.0,0.0,0.0,0.0,0.0,0.0,-0.7273,0.0,0.0,0.0,-0.6847,-0.6438,0.0,0.0,0.0,0.0,0.0,0.0,0.0,0.0,0.0,0.0,0.0,0.0,0.0,0.0,0.0,0.0,-0.8318,-0.8845,-0.8139,-0.8025,-0.8788,-0.853,-0.8469,-0.8698,-0.8734,-0.886,-0.9095,-0.9131,-0.9269,-0.9516,-0.9516,-0.9516,-0.9516,-0.9516,-0.9516,-0.9516,-0.9516,-0.9516,-0.9516,-0.9516,-0.9516,-0.954,-0.9805,-1.0092,-1.0342,-1.0757,-1.1058,-1.1265,-0.3192,-0.3192,-0.3265,-0.3473,-0.3486,-0.3551,-0.3764,-0.3946,0.0,0.0,0.0,0.0,0.0,0.0,0.0,0.0,0.0,-0.3375,0.0,0.0,0.0,-0.2737,-0.2507,-0.2367,-0.2335,-0.2215,-0.2108,-0.2045,-0.2099,0.0,0.0,0.0,-0.2396,-0.2594,-0.2793,0.0,-0.4052,0.0,0.0,0.0,0.0,0.0,0.0,-0.5238,-0.4981,-0.4777,-0.4577,-0.4532,-0.4576,0.0,-0.4918,0.0,0.0,0.0,0.0,0.0,0.0,0.0,0.0,0.0,0.0,0.0,0.0,0.0,0.0,0.0,-0.6234,0.0,0.0,0.0,0.0,0.0,0.0,0.0,0.0,0.0,0.0,0.0,0.0,0.0,0.0,0.0,0.0,0.0,0.0,0.0,0.0,-0.7764,-0.8247,-0.8242,-0.8254,-0.8225,-0.8375,-0.8536,-0.8644,-0.8945,-0.9155,-0.9275,-0.9438,-0.9516,-0.9484,-0.9087,-0.892,-0.8888,-0.8463,-0.8528,-0.8888,-0.8592,-0.8694,-0.9072,-0.8875,-0.9313,-1.0108,-1.0457,-1.0666,-1.0883,-0.3175,0.0,0.0,0.0,-0.3302,-0.3376,-0.3671,-0.3814,-0.3815,0.0,0.0,0.0,-0.3849,-0.3856,0.0,0.0,0.0,-0.3765,0.0,0.0,-0.3219,-0.3154,-0.2802,0.0,0.0,0.0,-0.21,-0.2023,0.0,0.0,0.0,0.0,0.0,-0.2675,0.0,-0.3395,-0.4126,0.0,0.0,-0.4794,-0.4744,-0.4777,-0.4845,-0.4666,-0.4563,-0.4491,-0.4491,-0.4491,-0.4491,-0.4491,-0.4763,0.0,-0.4625,0.0,0.0,0.0,0.0,0.0,-0.5828,0.0,0.0,0.0,0.0,0.0,0.0,0.0,0.0,0.0,0.0,0.0,0.0,0.0,0.0,0.0,0.0,0.0,0.0,0.0,0.0,0.0,0.0,0.0,0.0,0.0,0.0,0.0,0.0,0.0,-0.7873,-0.7991,-0.7982,-0.7901,-0.8087,-0.8219,-0.8291,-0.8545,-0.8709,-0.8819,-0.886,-0.889,-0.8894,-0.8431,-0.8199,-0.8166,-0.7647,-0.7712,-0.8166,-0.7837,-0.8004,-0.8468,-0.8177,-0.8657,-0.9562,-0.9888,-1.0238,-1.0556,-0.3105,-0.3105,0.0,0.0,0.0,-0.3265,-0.347,-0.3573,-0.3607,0.0,0.0,0.0,0.0,0.0,0.0,0.0,0.0,-0.3984,-0.3974,0.0,-0.3648,-0.3758,-0.3205,-0.2939,0.0,0.0,0.0,0.0,0.0,0.0,0.0,0.0,0.0,0.0,0.0,-0.3392,-0.4202,-0.4265,-0.4672,-0.5236,-0.4727,-0.451,-0.4556,0.0,-0.4736,-0.4491,-0.4491,0.0,0.0,-0.4491,-0.4519,0.0,0.0,0.0,0.0,0.0,0.0,0.0,0.0,0.0,0.0,-0.5253,0.0,0.0,0.0,0.0,-0.5888,0.0,0.0,0.0,0.0,0.0,0.0,0.0,0.0,0.0,0.0,0.0,0.0,0.0,0.0,0.0,0.0,0.0,0.0,0.0,0.0,0.0,-0.7841,-0.7728,-0.7709,-0.7889,-0.7913,-0.8033,-0.8285,-0.779,-0.7741,-0.814,-0.755,-0.7348,-0.7451,-0.7451,-0.7419,-0.7419,-0.7419,-0.7419,-0.7451,-0.7642,-0.7707,-0.7772,-0.8069,-0.8236,-0.8333,-0.9075,-0.976,-1.0339,0.0,0.0,0.0,0.0,0.0,-0.3054,-0.3392,-0.3605,0.0,0.0,0.0,0.0,0.0,0.0,-0.4223,0.0,0.0,-0.4273,-0.4153,-0.4051,0.0,0.0,0.0,-0.3425,0.0,0.0,0.0,0.0,0.0,0.0,0.0,0.0,0.0,0.0,0.0,-0.328,0.0,0.0,0.0,0.0,0.0,-0.4299,-0.4512,0.0,0.0,-0.4491,-0.4491,-0.4491,0.0,-0.4491,-0.4491,-0.4491,-0.4491,-0.4491,-0.4519,-0.466,-0.466,0.0,0.0,0.0,-0.477,-0.4814,0.0,0.0,0.0,0.0,0.0,0.0,0.0,0.0,0.0,0.0,0.0,0.0,0.0,0.0,0.0,0.0,0.0,0.0,0.0,0.0,0.0,0.0,0.0,0.0,0.0,0.0,0.0,-0.6721,-0.6796,-0.6777,-0.6777,-0.6819,-0.6918,-0.6895,-0.6961,-0.711,-0.7156,-0.7235,-0.7248,-0.69,-0.6728,-0.6728,-0.6276,-0.6342,-0.6728,-0.6568,-0.6765,-0.7153,-0.7064,-0.7293,-0.7814,-0.8522,-0.8909,-0.9166,-0.3114,0.0,0.0,0.0,0.0,0.0,0.0,0.0,0.0,0.0,-0.3931,0.0,-0.3931,0.0,-0.4284,0.0,-0.4491,-0.445,-0.4304,-0.425,0.0,-0.4178,-0.3982,0.0,0.0,0.0,0.0,0.0,0.0,-0.2407,0.0,0.0,0.0,0.0,0.0,0.0,0.0,0.0,-0.4105,0.0,0.0,-0.432,0.0,0.0,-0.4491,-0.4491,0.0,-0.4491,-0.4491,-0.4491,-0.4491,-0.4491,-0.4491,-0.4491,-0.4519,-0.4605,-0.4632,-0.466,-0.4794,-0.477,0.0,-0.4598,-0.4529,0.0,-0.4128,0.0,0.0,0.0,0.0,0.0,0.0,0.0,0.0,0.0,0.0,0.0,0.0,0.0,0.0,0.0,0.0,0.0,0.0,0.0,-0.5618,-0.6491,0.0,0.0,0.0,0.0,-0.6182,-0.6204,-0.6209,-0.6209,-0.6209,-0.617,-0.6186,-0.6235,-0.6324,-0.6417,-0.6455,-0.616,-0.6042,-0.6009,-0.5591,-0.5657,-0.6042,-0.5851,-0.6046,-0.6433,-0.6346,-0.6609,-0.7129,-0.7874,-0.8296,-0.8554,0.0,0.0,0.0,0.0,-0.3129,0.0,0.0,0.0,-0.3985,0.0,-0.3924,-0.3955,-0.4004,-0.415,-0.4279,-0.4474,-0.4491,0.0,-0.4491,-0.4334,0.0,0.0,-0.4192,-0.4014,-0.4008,0.0,0.0,0.0,0.0,0.0,0.0,0.0,0.0,0.0,-0.2774,0.0,-0.3356,-0.3939,-0.4324,-0.4491,-0.4491,-0.4491,-0.4491,-0.4491,-0.4491,-0.4491,-0.4491,-0.4491,-0.4491,-0.4491,-0.4491,-0.4491,-0.4491,-0.4491,-0.4491,-0.4491,-0.4491,-0.4519,-0.466,-0.4688,-0.4652,-0.4525,0.0,0.0,0.0,0.0,-0.4566,0.0,0.0,0.0,0.0,0.0,0.0,0.0,0.0,0.0,0.0,0.0,0.0,0.0,0.0,0.0,0.0,0.0,-0.5627,-0.681,-0.5853,0.0,0.0,0.0,-0.5856,-0.6118,-0.6127,-0.6127,-0.6127,-0.5555,-0.5369,-0.5542,-0.5102,-0.4948,-0.5083,-0.527,-0.5378,-0.5385,-0.5385,-0.5388,-0.5425,-0.5554,-0.5617,-0.565,-0.6046,-0.6214,-0.6313,-0.7129,-0.7879,-0.8458,-0.3098,-0.3297,-0.343,0.0,-0.3354,-0.343,0.0,0.0,0.0,0.0,-0.4208,-0.418,-0.4358,-0.4399,-0.4433,-0.4484,-0.4491,0.0,0.0,0.0,0.0,-0.4487,-0.4416,-0.43,-0.414,-0.3788,0.0,-0.343,0.0,0.0,-0.2784,0.0,0.0,0.0,0.0,0.0,-0.3548,-0.3896,-0.4226,-0.4491,-0.4491,-0.4491,0.0,0.0,-0.4491,-0.4491,-0.4491,-0.4491,-0.4491,-0.4491,-0.4491,-0.4491,-0.4491,-0.4491,-0.4491,-0.4491,-0.4491,-0.4519,-0.4546,-0.4546,-0.4539,-0.4498,-0.4481,-0.4402,0.0,0.0,0.0,0.0,0.0,0.0,0.0,0.0,0.0,0.0,0.0,0.0,0.0,0.0,0.0,0.0,0.0,0.0,0.0,0.0,-0.4484,-0.5436,-0.4678,0.0,0.0,0.0,0.0,-0.4917,-0.4928,-0.4928,-0.4928,-0.4791,-0.4729,-0.4772,-0.4764,-0.4769,-0.4809,-0.4962,-0.5091,-0.5189,-0.5189,-0.5254,-0.5425,-0.5554,-0.5617,-0.565,-0.6046,-0.6247,-0.6383,-0.6613,-0.7134,-0.7749,-0.2663,0.0,0.0,-0.3812,0.0,0.0,-0.4045,0.0,0.0,-0.4457,-0.4467,0.0,-0.4646,-0.473,-0.472,-0.4631,-0.4665,0.0,0.0,0.0,0.0,-0.4494,-0.4491,-0.4453,-0.4341,-0.4119,0.0,-0.3604,0.0,0.0,-0.2805,0.0,0.0,0.0,0.0,-0.312,0.0,-0.3913,-0.4253,-0.4491,-0.4491,0.0,0.0,-0.4491,-0.4491,-0.4491,-0.4491,-0.4491,-0.4491,-0.4491,-0.4491,-0.4491,-0.4491,-0.4491,-0.4491,-0.4491,-0.4491,-0.4491,-0.4491,-0.4491,-0.4491,-0.4491,-0.448,-0.4401,-0.4233,-0.4373,-0.4508,0.0,0.0,0.0,0.0,0.0,0.0,0.0,0.0,0.0,0.0,0.0,0.0,0.0,0.0,0.0,0.0,0.0,-0.4173,-0.4985,-0.4402,0.0,0.0,0.0,0.0,-0.4466,-0.4539,-0.4546,-0.4491,-0.4491,-0.4491,-0.4491,-0.4644,-0.4691,-0.4697,-0.485,-0.4965,-0.51,-0.51,-0.5216,-0.5395,-0.5491,-0.5521,-0.5554,-0.5918,-0.6218,-0.6387,-0.6387,-0.6679,-0.7003,0.0,0.0,0.0,0.0,0.0,0.0,0.0,-0.4395,0.0,-0.4545,0.0,-0.4836,-0.4925,-0.5044,-0.5023,-0.4846,0.0,-0.4806,-0.4566,-0.4655,-0.4658,-0.4525,-0.4501,-0.4491,-0.4491,-0.445,0.0,0.0,0.0,0.0,0.0,0.0,0.0,0.0,0.0,0.0,0.0,-0.3959,-0.4304,0.0,-0.4491,-0.4491,-0.4491,-0.4491,-0.4491,-0.4491,-0.4491,-0.4491,-0.4491,-0.4491,-0.4491,-0.4491,-0.4491,-0.4491,-0.4491,-0.4491,-0.4491,-0.4491,-0.4491,-0.4491,-0.4491,-0.4491,-0.4491,-0.4457,-0.4277,-0.4372,-0.4453,-0.4274,-0.446,-0.4625,0.0,0.0,0.0,0.0,0.0,0.0,0.0,0.0,0.0,0.0,0.0,0.0,0.0,0.0,-0.4248,-0.4925,0.0,0.0,0.0,0.0,0.0,-0.4393,-0.4584,0.0,-0.4491,0.0,-0.4491,-0.4491,-0.4627,-0.466,-0.4667,-0.4799,-0.4908,-0.5042,-0.5063,-0.5189,-0.5365,-0.5385,-0.5425,-0.5458,-0.5789,-0.6086,-0.6383,-0.6387,-0.6387,-0.6387,0.0,0.0,0.0,0.0,0.0,-0.4582,-0.4609,-0.4556,-0.4583,-0.4806,-0.4825,-0.4863,-0.5047,-0.5081,-0.5078,-0.5044,-0.4952,0.0,0.0,0.0,0.0,-0.4653,-0.4556,-0.4491,-0.4491,-0.4222,-0.3985,0.0,-0.3381,-0.3067,0.0,0.0,0.0,0.0,0.0,0.0,-0.3737,-0.4072,0.0,-0.4491,-0.4491,-0.4491,-0.4491,-0.4491,-0.4491,-0.4491,-0.4491,-0.4491,-0.4491,-0.4491,-0.4491,-0.4491,-0.4491,-0.4491,-0.4491,-0.4491,-0.4491,-0.4491,-0.4491,-0.4491,-0.4491,-0.4491,-0.4491,-0.4484,-0.4457,-0.447,-0.4484,-0.4457,-0.4501,-0.4481,-0.4281,0.0,0.0,0.0,0.0,0.0,0.0,0.0,0.0,0.0,0.0,0.0,0.0,0.0,0.0,0.0,0.0,0.0,0.0,0.0,0.0,0.0,0.0,0.0,0.0,0.0,-0.4491,-0.4491,-0.4515,-0.4532,-0.4532,-0.4559,-0.4651,-0.4775,-0.4901,-0.5005,-0.5179,-0.5341,-0.5458,-0.5587,-0.5822,-0.6053,-0.6247,-0.635,-0.6387,-0.6387,0.0,0.0,0.0,0.0,0.0,0.0,0.0,-0.4748,0.0,-0.487,-0.4938,-0.4989,-0.5087,-0.5201,-0.5218,-0.5104,-0.5128,-0.5084,-0.4897,-0.4918,-0.4887,-0.4813,-0.4663,0.0,-0.4607,-0.4389,-0.4097,-0.3792,-0.35,-0.3205,0.0,0.0,0.0,0.0,0.0,-0.3404,0.0,0.0,0.0,-0.4491,-0.4491,-0.4491,-0.4491,-0.4491,-0.4491,-0.4491,-0.4491,-0.4491,-0.4491,-0.4491,-0.4491,-0.4491,-0.4491,-0.4491,-0.4491,-0.4491,-0.4491,-0.4491,-0.4491,-0.4491,-0.4491,-0.4491,-0.4491,-0.4491,-0.4491,-0.4491,-0.4491,-0.4491,-0.4491,-0.4447,-0.4247,-0.4099,0.0,0.0,0.0,0.0,0.0,0.0,0.0,0.0,0.0,0.0,0.0,0.0,0.0,0.0,0.0,0.0,0.0,0.0,0.0,0.0,0.0,0.0,0.0,0.0,0.0,-0.4491,-0.4491,-0.4491,-0.4491,-0.4491,-0.4576,-0.4701,-0.4853,-0.4968,-0.511,-0.5392,-0.5587,-0.5785,-0.5984,-0.6152,-0.6317,-0.6383,-0.6387,-0.6387,0.0,-0.1804,0.0,0.0,-0.412,0.0,-0.4424,-0.4753,-0.5013,-0.5013,-0.5111,-0.5179,-0.5179,-0.532,-0.5344,-0.5189,-0.5324,-0.5296,-0.503,-0.5118,-0.5083,-0.4938,-0.4819,-0.4724,-0.4691,-0.46,-0.4317,0.0,0.0,0.0,0.0,0.0,-0.2791,-0.2842,0.0,0.0,0.0,0.0,-0.4304,-0.4491,-0.4491,-0.4491,-0.4491,-0.4491,-0.4491,-0.4491,-0.4491,-0.4491,-0.4491,-0.4491,-0.4491,-0.4491,-0.4491,-0.4491,-0.4491,-0.4491,-0.4491,-0.4491,-0.4491,-0.4491,-0.4491,-0.4491,-0.4491,-0.4491,-0.4491,-0.4491,-0.4491,-0.4491,-0.4491,-0.4447,-0.4247,-0.4149,0.0,0.0,0.0,0.0,0.0,0.0,0.0,0.0,0.0,0.0,0.0,0.0,0.0,0.0,0.0,0.0,0.0,0.0,0.0,0.0,0.0,-0.4425,-0.4443,0.0,-0.4491,0.0,-0.4491,-0.4491,-0.4491,-0.4491,-0.4556,-0.4682,-0.484,-0.5016,-0.5218,-0.5534,-0.5752,-0.5921,-0.6115,-0.628,-0.635,-0.6383,-0.6387,-0.6387,0.0,0.0,0.0,0.0,0.0,0.0,0.0,-0.4342,-0.5354,-0.5354,-0.5365,-0.5375,-0.5375,-0.5385,-0.5388,-0.5375,-0.5385,-0.5382,-0.5354,-0.5365,-0.527,-0.5086,-0.4941,-0.4833,-0.4694,-0.4677,-0.445,0.0,0.0,0.0,0.0,0.0,-0.3135,-0.3259,0.0,0.0,0.0,-0.413,-0.4304,-0.4491,-0.4491,-0.4491,-0.4491,-0.4491,-0.4491,-0.4491,-0.4491,-0.4491,-0.4491,-0.4491,-0.4491,-0.4491,-0.4491,-0.4491,-0.4491,-0.4491,-0.4491,-0.4491,-0.4491,-0.4491,-0.4491,-0.4491,-0.4491,-0.4491,-0.4491,-0.4491,-0.4491,-0.4491,-0.4491,-0.4447,-0.4247,-0.4341,-0.4361,0.0,0.0,0.0,0.0,0.0,0.0,0.0,0.0,0.0,0.0,0.0,0.0,0.0,0.0,0.0,0.0,0.0,0.0,-0.4017,0.0,-0.4219,-0.424,-0.4399,0.0,-0.4491,-0.4491,-0.4491,-0.4491,-0.4491,-0.4498,-0.4528,-0.4792,-0.5137,-0.5562,-0.5782,-0.5888,-0.5921,-0.6115,-0.6214,-0.6247,-0.635,-0.6387,-0.6387,0.0,0.0,0.0,0.0,0.0,0.0,0.0,-0.238,-0.2815,-0.2815,-0.432,-0.5395,-0.5395,-0.5395,-0.5395,-0.5395,-0.5395,-0.5395,-0.5395,-0.5395,-0.5365,-0.5274,-0.5125,-0.4985,-0.4955,-0.4779,-0.4558,0.0,0.0,0.0,0.0,0.0,0.0,0.0,0.0,-0.3987,-0.4146,-0.4385,-0.4291,-0.4,-0.4523,-0.4213,-0.3457,-0.3908,-0.3814,-0.3413,-0.3424,-0.366,-0.3904,-0.3544,-0.3904,-0.4491,-0.4491,-0.4491,-0.4491,-0.4491,-0.4491,-0.4491,-0.4491,-0.4491,-0.4491,-0.4491,-0.4491,-0.4491,-0.4491,-0.4491,-0.4491,-0.4491,-0.4491,-0.447,-0.4389,-0.4355,-0.4324,0.0,0.0,0.0,0.0,0.0,0.0,0.0,0.0,0.0,0.0,0.0,0.0,0.0,0.0,-0.3054,-0.3232,0.0,0.0,-0.3747,0.0,-0.4119,-0.4194,-0.4392,-0.4491,-0.4491,-0.4491,-0.4491,-0.4491,-0.4491,-0.459,-0.4745,-0.498,-0.5269,-0.5617,-0.5951,-0.6083,-0.6083,-0.6251,-0.6317,-0.6317,-0.6383,-0.6387,-0.6387,-0.0903,0.0,-0.0976,0.0,-0.1109,-0.1109,-0.1109,-0.1109,-0.1109,-0.1109,-0.2883,-0.4456,-0.5296,-0.5395,-0.5226,-0.4791,-0.516,-0.5296,-0.5093,-0.5292,-0.5395,-0.5395,-0.5257,0.0,-0.51,-0.4925,-0.4748,-0.4624,-0.4297,0.0,0.0,-0.3843,0.0,0.0,-0.4131,-0.425,-0.4341,-0.4416,-0.4133,-0.3693,-0.4112,-0.3671,-0.2773,-0.3322,-0.317,-0.274,-0.2714,-0.2991,-0.3304,-0.2875,-0.3282,-0.3983,-0.3971,-0.4101,-0.4239,-0.4239,-0.4239,-0.4239,-0.4239,-0.4098,-0.3959,-0.3959,-0.3959,-0.3959,-0.3959,-0.3959,-0.4015,-0.4211,-0.4101,-0.4073,-0.4436,-0.4243,-0.4113,-0.4362,0.0,0.0,0.0,0.0,0.0,0.0,0.0,-0.3598,0.0,0.0,0.0,0.0,0.0,-0.3079,-0.3137,0.0,0.0,0.0,0.0,0.0,0.0,-0.4392,-0.4491,-0.4491,-0.4491,-0.4491,-0.4491,-0.4491,-0.4658,-0.4918,-0.5127,-0.5395,-0.5716,-0.605,-0.6214,-0.628,-0.635,-0.6387,-0.6387,-0.6387,-0.6383,-0.635,-0.0898,-0.0992,-0.1107,-0.1109,-0.1109,-0.1109,-0.1109,-0.1109,-0.1109,-0.1109,-0.1143,-0.2246,-0.5093,-0.5395,-0.4821,-0.3351,-0.4556,-0.5093,-0.4353,-0.499,-0.5395,0.0,0.0,-0.5287,-0.5103,-0.5096,-0.5026,-0.4884,0.0,0.0,-0.4481,-0.4281,-0.4187,-0.4204,-0.4551,-0.4684,-0.4665,-0.4059,-0.3808,-0.3747,-0.3075,-0.2828,-0.2797,-0.2799,-0.2797,-0.2795,-0.2797,-0.2797,-0.2795,-0.2795,-0.2769,-0.2712,-0.2709,-0.3125,-0.3599,-0.3599,-0.3599,-0.3599,-0.3599,-0.3181,-0.2708,-0.2708,-0.2708,-0.2708,-0.2708,-0.2708,-0.2903,-0.3486,-0.3125,-0.3098,-0.4294,-0.4015,-0.3726,-0.4141,0.0,0.0,0.0,0.0,0.0,0.0,0.0,-0.3391,-0.3583,0.0,0.0,0.0,0.0,0.0,0.0,0.0,0.0,-0.3802,-0.4062,0.0,-0.4197,-0.4392,-0.4491,-0.4491,-0.4491,-0.4491,-0.4491,-0.4491,-0.4658,-0.4918,-0.5127,-0.5457,-0.5921,-0.6115,-0.628,-0.6387,-0.6387,-0.6387,-0.6387,-0.6387,-0.6317,-0.6214,-0.1051,-0.1082,-0.1109,-0.1109,-0.1109,-0.1109,-0.1109,-0.1109,-0.1109,-0.1109,-0.1109,-0.1444,-0.238,-0.248,-0.2281,0.0,-0.2783,-0.3318,0.0,-0.4054,-0.442,-0.3918,-0.4386,-0.437,-0.3833,-0.4212,-0.4152,-0.3614,0.0,0.0,0.0,-0.3279,-0.3236,-0.3238,-0.3361,-0.3392,-0.3399,-0.3288,-0.2951,-0.2543,-0.2914,-0.2486,-0.1625,-0.2141,-0.2009,-0.1577,-0.1578,-0.185,-0.2125,-0.1727,-0.1837,-0.209,-0.1681,-0.2204,-0.2986,-0.2986,-0.2986,-0.2986,-0.2986,-0.2847,-0.2708,-0.2708,-0.2708,-0.2708,-0.2708,-0.2708,-0.2764,-0.2959,-0.3153,-0.343,-0.3821,-0.4073,-0.4254,-0.4375,-0.446,0.0,0.0,0.0,0.0,0.0,0.0,-0.3632,0.0,-0.3578,0.0,0.0,0.0,0.0,0.0,0.0,0.0,0.0,-0.4011,0.0,-0.4197,-0.4392,-0.4491,-0.4491,-0.4491,-0.4491,-0.4491,-0.4491,-0.4658,-0.4918,-0.5127,-0.5395,-0.5719,-0.5921,-0.602,-0.6057,-0.6057,-0.6057,-0.6057,-0.6057,-0.602,-0.5987,-0.1042,-0.1109,-0.1109,-0.1109,-0.1109,-0.1109,-0.1109,-0.1109,-0.1109,-0.1109,-0.1109,-0.1109,-0.1109,-0.1109,0.0,-0.1109,-0.2115,-0.2649,-0.2383,-0.3318,-0.3685,-0.3215,-0.3651,-0.3685,-0.3215,0.0,0.0,-0.3071,-0.3364,-0.3266,-0.2799,-0.2799,-0.2799,-0.2799,-0.2863,-0.2878,-0.2853,-0.2713,-0.2386,-0.1999,-0.2298,-0.186,-0.1084,-0.1535,-0.1446,-0.1024,-0.1043,-0.1296,-0.1529,-0.118,-0.1267,-0.1506,-0.1131,-0.1485,-0.2113,-0.2315,-0.237,-0.2374,-0.2374,-0.2207,-0.2014,-0.2014,-0.2014,-0.2014,-0.2014,-0.2014,-0.2097,-0.2319,-0.2486,-0.2736,-0.3181,-0.3375,-0.3569,-0.3793,-0.3821,-0.3835,-0.3893,0.0,0.0,0.0,0.0,0.0,0.0,-0.3491,0.0,0.0,0.0,0.0,0.0,0.0,0.0,-0.3829,-0.4155,0.0,-0.4301,-0.4447,-0.4491,-0.4491,-0.4491,-0.4491,-0.4491,-0.4549,-0.4684,-0.4921,-0.5095,-0.5318,-0.5617,-0.5752,-0.5822,-0.5888,-0.5888,-0.5888,-0.5888,-0.5888,-0.5855,-0.5789,-0.0875,-0.1008,0.0,0.0,-0.1109,0.0,-0.1109,-0.1109,-0.1109,-0.1109,-0.1109,-0.1109,-0.1109,-0.1109,-0.1109,-0.1109,0.0,0.0,0.0,-0.2714,-0.3115,-0.3049,-0.3082,-0.3115,-0.3049,-0.3115,-0.3115,-0.3115,-0.2941,-0.28,-0.2693,-0.2693,-0.2693,-0.2695,-0.2806,-0.2874,-0.2845,-0.2257,-0.2047,-0.198,-0.1344,-0.1109,-0.1109,-0.1109,-0.1109,-0.1109,-0.1109,-0.1109,-0.1109,-0.1109,-0.1058,-0.1004,-0.1004,-0.1016,-0.1107,-0.1604,-0.1726,-0.174,-0.1736,-0.1316,-0.0898,-0.0898,-0.0898,-0.0898,-0.0898,-0.0898,-0.1065,-0.1623,-0.1316,-0.1316,-0.243,-0.2207,-0.204,-0.2597,-0.2702,-0.2834,-0.3271,0.0,0.0,0.0,0.0,0.0,0.0,-0.3054,-0.3354,0.0,0.0,0.0,0.0,0.0,-0.3906,-0.4187,-0.4389,-0.4491,-0.4491,-0.4491,-0.4491,-0.4491,-0.4491,-0.4491,-0.4494,-0.4648,-0.4775,-0.4894,-0.5036,-0.5277,-0.5583,-0.5583,-0.5686,-0.5859,-0.5859,-0.5859,-0.5859,-0.5859,-0.5756,-0.5617,0.0,0.0,-0.0438,-0.1008,-0.1109,-0.1109,-0.1109,-0.1109,-0.1109,-0.1109,-0.1109,-0.1109,-0.1109,-0.1109,-0.1109,-0.1109,-0.1411,-0.1511,-0.1344,-0.198,-0.2147,-0.1612,-0.2079,-0.2114,-0.1612,-0.2114,-0.2347,-0.2347,-0.1801,-0.1524,-0.1515,-0.1515,-0.1515,-0.1515,-0.1525,-0.1563,-0.1531,-0.1407,-0.1344,-0.131,-0.1176,-0.1109,-0.1109,-0.1109,-0.1109,-0.1109,-0.1109,-0.1109,-0.1109,-0.1109,-0.1104,-0.1066,-0.1066,-0.1046,-0.1012,-0.1078,-0.1113,-0.11,-0.1101,-0.1009,-0.0898,-0.0898,-0.0898,-0.0898,-0.0898,-0.0898,-0.0954,-0.1093,-0.1372,-0.1679,-0.1958,-0.2263,-0.2541,-0.2681,-0.2649,-0.2625,-0.2641,-0.2608,0.0,0.0,-0.2518,-0.2545,-0.2419,-0.2643,-0.2726,0.0,0.0,0.0,0.0,-0.3192,-0.3706,-0.4194,-0.4389,-0.4491,-0.4491,-0.4491,-0.4491,-0.4491,-0.4491,-0.4491,-0.4494,-0.4648,-0.4775,-0.4894,-0.5036,-0.522,-0.5458,-0.5458,-0.5462,-0.5528,-0.5528,-0.5528,-0.5528,-0.5528,-0.5495,-0.5458,0.0,0.0,-0.0109,-0.0543,-0.0591,-0.0606,-0.0606,-0.0596,-0.0724,-0.1123,-0.1195,-0.1173,-0.1116,-0.0949,-0.0852,-0.0845,-0.1009,-0.1109,-0.1109,-0.1444,-0.1478,-0.1109,-0.1444,-0.1478,-0.1109,-0.1444,-0.1646,-0.1646,-0.1276,-0.1109,-0.1109,-0.1109,-0.1109,-0.1109,-0.1109,-0.1109,-0.1109,-0.1109,-0.1109,-0.1109,-0.1109,-0.1109,-0.1109,-0.1109,-0.1109,-0.1109,-0.1109,-0.1109,-0.1109,-0.1109,-0.1109,-0.1109,-0.1109,-0.1065,-0.1044,-0.0967,-0.0934,-0.0907,-0.0906,-0.0898,-0.0898,-0.0898,-0.0898,-0.0898,-0.0898,-0.0898,-0.0898,-0.0898,-0.1149,-0.14,-0.14,-0.1651,-0.1864,-0.189,-0.1853,-0.187,-0.198,-0.2017,0.0,-0.1932,-0.2023,-0.207,-0.201,-0.2187,-0.2293,-0.2318,0.0,0.0,-0.2434,-0.2853,-0.3342,-0.3911,-0.431,-0.4491,-0.4491,-0.4491,-0.4491,-0.4491,-0.4491,-0.4491,-0.4498,-0.4694,-0.484,-0.4901,-0.5145,-0.5284,-0.5395,-0.5395,-0.5395,-0.5395,-0.5395,-0.5395,-0.5395,-0.5395,-0.5395,-0.5395,0.0,0.0,0.0,0.0,0.0,0.0,0.0,0.0,-0.0275,-0.1021,-0.11,-0.1065,-0.094,-0.0672,-0.0492,-0.0413,-0.0783,-0.1018,-0.1009,-0.1009,-0.1009,-0.1009,-0.1009,-0.1009,-0.1009,-0.1009,-0.1009,-0.1009,-0.1009,-0.1009,-0.1043,-0.1043,-0.1043,-0.1043,-0.1043,-0.1043,-0.1043,-0.1043,-0.1076,-0.1109,-0.1109,-0.1109,-0.1109,-0.1109,-0.1076,-0.1043,-0.1043,-0.1043,-0.1043,-0.1043,-0.1076,-0.1109,-0.1109,-0.1109,-0.107,-0.101,-0.0935,-0.089,-0.0886,-0.0901,-0.0898,-0.0898,-0.0898,-0.0898,-0.0898,-0.0898,-0.0898,-0.0898,-0.0898,-0.0898,-0.0898,-0.0898,-0.0887,-0.091,-0.0901,-0.1007,-0.135,0.0,-0.1488,-0.1488,-0.1494,-0.1544,-0.1646,-0.1652,-0.1874,-0.2402,-0.243,-0.243,0.0,-0.2514,-0.2792,-0.332,-0.3904,-0.4239,-0.4239,-0.4239,-0.4239,-0.4239,-0.4239,-0.4239,-0.4245,-0.4487,-0.4642,-0.4749,-0.5067,-0.5259,-0.5361,-0.5385,-0.5395,-0.5395,-0.5395,-0.5395,-0.5395,-0.5395,-0.5395,-0.5395,0.0,0.0,0.0,0.0,0.0,0.0,0.0,0.0,-0.0039,-0.0196,-0.0196,-0.0195,-0.0154,-0.0117,-0.0077,-0.0072,-0.0396,-0.0601,-0.0608,-0.0606,-0.0606,-0.0606,-0.0606,-0.0606,-0.0606,-0.0606,-0.0606,-0.0606,-0.0606,-0.0674,-0.0843,-0.0843,-0.0843,-0.0843,-0.0843,-0.0843,-0.0843,-0.0843,-0.0942,-0.1109,-0.1109,-0.1109,-0.1109,-0.1109,-0.101,-0.0843,-0.0843,-0.0843,-0.0843,-0.0843,-0.0976,-0.1109,-0.1109,-0.1109,-0.107,-0.0879,-0.0834,-0.0819,-0.0891,-0.0888,-0.0898,-0.0898,-0.0898,-0.0898,-0.0898,-0.0898,-0.0898,-0.0898,-0.0898,-0.0898,-0.0898,-0.0898,-0.0887,-0.091,-0.091,-0.0899,-0.0913,0.0,-0.1011,-0.1011,-0.1011,-0.1004,-0.1036,-0.1037,-0.1065,-0.1177,-0.1177,-0.1177,-0.1177,-0.1652,-0.1986,-0.2068,-0.2653,-0.2986,-0.2986,-0.2986,-0.2986,-0.2986,-0.2986,-0.2986,-0.2991,-0.3138,-0.3487,-0.3971,-0.4253,-0.4682,-0.5143,-0.5341,-0.5395,-0.5395,-0.5395,-0.5395,-0.5395,-0.5395,-0.5395,-0.5395,0.0,0.0,0.0,0.0,0.0,0.0,0.0,0.0,0.0,0.0,0.0,0.0,0.0,0.0,0.0,0.0,-0.0149,-0.0219,-0.0247,-0.0387,-0.0492,-0.0492,-0.0486,-0.0513,-0.0506,-0.0506,-0.0506,-0.0506,-0.0506,-0.0539,-0.064,-0.064,-0.064,-0.064,-0.064,-0.064,-0.064,-0.064,-0.0707,-0.0774,-0.0774,-0.0774,-0.0774,-0.0774,-0.0707,-0.064,-0.064,-0.064,-0.064,-0.064,-0.0707,-0.0774,-0.0774,-0.0774,-0.0772,-0.0663,-0.0703,-0.0764,-0.0772,-0.0834,-0.0898,-0.0898,-0.0898,-0.0898,-0.0898,-0.0898,-0.0898,-0.0898,-0.0898,-0.0898,-0.0898,-0.0898,-0.0887,-0.091,-0.0893,0.0,0.0,-0.0884,-0.0904,-0.0904,-0.0889,-0.0898,-0.0898,-0.0898,-0.0898,-0.0898,-0.0898,-0.0898,-0.0898,-0.1177,-0.1316,-0.1316,-0.2207,-0.2708,-0.2708,-0.2708,-0.2708,-0.2708,-0.2708,-0.2708,-0.271,-0.2832,-0.3051,-0.3324,-0.3508,-0.3763,-0.4018,-0.4109,-0.4394,-0.4747,-0.4747,-0.5022,-0.5395,-0.5395,-0.5395,-0.5395,0.0,0.0,0.0,0.0,0.0,0.0,0.0,0.0,0.0,0.0,0.0,0.0,0.0,0.0,0.0,0.0,0.0,0.0,0.0,-0.0259,-0.0369,-0.0401,-0.0393,-0.0385,-0.0378,-0.0378,-0.0377,-0.0374,-0.0374,-0.0407,-0.0438,-0.0438,-0.0438,-0.0438,-0.0438,-0.0438,-0.0438,-0.0438,-0.0472,-0.0506,-0.0506,-0.0506,-0.0506,-0.0506,-0.0472,-0.0438,-0.0438,-0.0438,-0.0438,-0.0438,-0.0472,-0.0506,-0.0506,-0.0506,-0.0506,-0.0472,-0.0512,-0.06,-0.0621,-0.0719,-0.0785,-0.0785,-0.0785,-0.0785,-0.0785,-0.0814,-0.0842,-0.0785,-0.0842,-0.0898,-0.087,-0.087,-0.0887,-0.091,0.0,0.0,0.0,-0.0906,-0.0898,-0.0898,-0.0898,-0.0898,-0.0898,-0.0898,-0.0898,-0.0898,-0.0898,-0.0898,-0.0898,-0.0898,-0.0898,-0.0898,-0.179,-0.2291,-0.2291,-0.2291,-0.2291,-0.2291,-0.2291,-0.2291,-0.2293,-0.2382,-0.2526,-0.2646,-0.2793,-0.2924,-0.3045,-0.3099,-0.3427,-0.3938,-0.3938,-0.4432,-0.5107,-0.5107,-0.5229,-0.5395,0.0,0.0,0.0,0.0,0.0,0.0,0.0,0.0,0.0,0.0,0.0,0.0,0.0,0.0,0.0,0.0,0.0,0.0,0.0,-0.0039,-0.0038,-0.0037,-0.0036,-0.0036,-0.0036,-0.0036,-0.0036,-0.0035,-0.0035,-0.0138,-0.0303,-0.0303,-0.0303,-0.0303,-0.0303,-0.0303,-0.0303,-0.0303,-0.0371,-0.0506,-0.0506,-0.0506,-0.0506,-0.0506,-0.0438,-0.0303,-0.0303,-0.0303,-0.0303,-0.0303,-0.0404,-0.0506,-0.0506,-0.0506,-0.0472,-0.0337,-0.0263,-0.0254,-0.0389,-0.0431,-0.0449,-0.0449,-0.0449,-0.0449,-0.0449,-0.0589,-0.0673,-0.0477,-0.0673,-0.087,-0.0729,-0.0814,-0.0887,-0.091,0.0,0.0,-0.091,-0.0906,-0.0898,-0.0898,-0.0898,-0.0898,-0.0898,-0.0898,-0.0898,-0.0898,-0.0898,-0.0898,-0.0898,-0.0898,-0.0898,-0.0898,-0.0981,-0.1037,-0.1037,-0.1037,-0.1037,-0.1037,-0.1037,-0.1037,-0.1037,-0.1039,-0.1349,-0.1884,-0.2035,-0.2387,-0.2922,-0.3041,-0.3142,-0.318,-0.318,-0.3643,-0.4281,-0.4281,-0.4747,-0.5395,0.0,0.0,0.0,0.0,0.0,0.0,0.0,0.0,0.0,0.0,0.0,0.0,0.0,0.0,0.0,0.0,0.0,0.0,0.0,0.0,0.0,0.0,0.0,0.0,0.0,0.0,0.0,0.0,0.0,-0.0036,-0.0106,-0.0106,-0.0106,-0.0106,-0.0105,-0.0104,-0.0104,-0.0102,-0.0135,-0.0202,-0.0202,-0.0202,-0.0202,-0.0202,-0.0169,-0.0101,-0.0101,-0.0101,-0.0101,-0.0101,-0.0135,-0.0202,-0.0202,-0.0202,-0.0169,-0.0135,-0.0099,-0.0096,-0.0153,-0.0267,-0.0403,-0.0395,-0.0393,-0.0393,-0.0393,-0.0449,-0.0505,-0.0421,-0.0505,-0.0561,-0.0533,-0.0561,-0.0642,-0.0744,0.0,-0.0809,-0.0882,-0.089,-0.0898,-0.0898,-0.0898,-0.0898,-0.0898,-0.0898,-0.0898,-0.0898,-0.0898,-0.0898,-0.0898,-0.0898,-0.0898,-0.0898,-0.0898,-0.0898,-0.0898,-0.0898,-0.0898,-0.0898,-0.0898,-0.0898,-0.0898,-0.0898,-0.1037,-0.1233,-0.1306,-0.1455,-0.1656,-0.1707,-0.2,-0.2428,-0.2477,-0.2943,-0.3569,-0.3568,-0.3782,-0.4087,0.0,0.0,0.0,0.0,0.0,0.0,0.0,0.0,0.0,0.0,0.0,0.0,0.0,0.0,0.0,0.0,0.0,0.0,0.0,0.0,0.0,0.0,0.0,0.0,0.0,0.0,0.0,0.0,0.0,0.0,0.0,0.0,0.0,0.0,0.0,0.0,0.0,0.0,0.0,0.0,0.0,0.0,0.0,0.0,0.0,0.0,0.0,0.0,0.0,0.0,0.0,0.0,0.0,0.0,0.0,0.0,0.0,0.0,0.0,-0.0122,-0.0266,-0.0284,-0.028,-0.028,-0.028,-0.0308,-0.0336,-0.028,-0.0336,-0.0393,-0.0336,-0.0364,-0.0449,-0.0589,-0.0617,-0.0645,-0.0729,-0.0729,-0.0757,-0.0842,-0.0842,-0.0842,-0.0898,-0.0898,-0.0898,-0.0898,-0.0898,-0.0898,-0.0898,-0.0898,-0.0898,-0.0898,-0.0898,-0.0898,-0.0898,-0.0898,-0.0898,-0.0898,-0.0898,-0.0898,-0.0898,-0.0898,-0.0898,-0.0898,-0.0898,-0.0898,-0.0898,-0.0898,-0.1193,-0.1655,-0.1692,-0.2164,-0.2818,-0.2814,-0.298,-0.3236,0.0,0.0,0.0,0.0,0.0,0.0,0.0,0.0,0.0,0.0,0.0,0.0,0.0,0.0,0.0,0.0,0.0,0.0,0.0,0.0,0.0,0.0,0.0,0.0,0.0,0.0,0.0,0.0,0.0,0.0,0.0,0.0,0.0,0.0,0.0,0.0,0.0,0.0,0.0,0.0,0.0,0.0,0.0,0.0,0.0,0.0,0.0,0.0,0.0,0.0,0.0,0.0,0.0,0.0,0.0,0.0,0.0,0.0,0.0,0.0,0.0,0.0,0.0,0.0,0.0,-0.0112,-0.0168,-0.0028,-0.0224,-0.0364,-0.0224,-0.0308,-0.0393,-0.0393,-0.0393,-0.0393,-0.0393,-0.0393,-0.0477,-0.0673,-0.0701,-0.0757,-0.087,-0.0898,-0.0898,-0.0898,-0.0898,-0.0898,-0.0898,-0.0898,-0.0898,-0.0898,-0.0898,-0.0898,-0.0898,-0.0898,-0.0898,-0.0898,-0.0898,-0.0898,-0.0898,-0.0898,-0.0898,-0.0898,-0.0898,-0.0898,-0.0898,-0.0898,-0.0898,-0.0898,-0.0898,-0.1344,-0.1999,-0.2,-0.246,-0.3092,0.0,0.0,0.0,0.0,0.0,0.0,0.0,0.0,0.0,0.0,0.0,0.0,0.0,0.0,0.0,0.0,0.0,0.0,0.0,0.0,0.0,0.0,0.0,0.0,0.0,0.0,0.0,0.0,0.0,0.0,0.0,0.0,0.0,0.0,0.0,0.0,0.0,0.0,0.0,0.0,0.0,0.0,0.0,0.0,0.0,0.0,0.0,0.0,0.0,0.0,0.0,0.0,0.0,0.0,0.0,0.0,0.0,0.0,0.0,0.0,0.0,0.0,0.0,0.0,0.0,-0.0028,-0.0056,0.0,-0.0056,-0.0112,-0.0056,-0.0084,-0.014,-0.0252,-0.0252,-0.028,-0.0393,-0.0393,-0.0421,-0.0477,-0.0477,-0.0505,-0.0533,-0.0561,-0.0617,-0.0757,-0.0842,-0.0898,-0.0898,-0.0898,-0.0898,-0.0898,-0.0898,-0.0898,-0.0898,-0.0898,-0.0898,-0.0898,-0.0898,-0.0898,-0.0898,-0.0898,-0.0898,-0.0898,-0.0898,-0.0898,-0.0898,-0.0898,-0.0898,-0.09,-0.0892,-0.1022,-0.124,-0.1268,-0.1438,-0.1698,0.1881,0.145,0.098,0.098,0.098,0.098,0.098,0.1176,0.1293,0.1293,0.0863,0.051,0.051,0.0196,0.0,0.0,0.0,0.0,0.0,0.0,0.0,0.0,0.0,0.0,0.0,0.0,0.0,0.0,0.0,0.0,0.0,0.0,0.0,0.0,0.0,0.0,0.0,0.0,0.0,0.0,0.0,0.0,0.0,0.0,0.0,0.0,0.0,0.0,0.0,0.0,0.0,0.0,0.0,0.0,0.0,0.0,0.0,0.0,0.0,0.0,0.0,0.0,0.0,0.0,0.0,0.0,0.0,0.0,0.0,0.0,0.0,0.0,-0.0028,-0.0112,-0.0112,-0.014,-0.0224,-0.0252,-0.0252,-0.0308,-0.0308,-0.0336,-0.0393,-0.0393,-0.0449,-0.0561,-0.0645,-0.0729,-0.0814,-0.0814,-0.0842,-0.0898,-0.0898,-0.0898,-0.0898,-0.0898,-0.0898,-0.0898,-0.0898,-0.0898,-0.0898,-0.0898,-0.0898,-0.0898,-0.0898,-0.0898,-0.0898,-0.0898,-0.0898,-0.0899,-0.0889,-0.0896,-0.0898,-0.0945,-0.0952,-0.1014,0.482,0.3798,0.2738,0.2738,0.2738,0.2699,0.2582,0.2974,0.329,0.3249,0.2154,0.141,0.141,0.0706,0.0196,0.0118,0.0039,0.0039,0.0118,0.0118,0.0157,0.0235,0.0235,0.0235,0.0235,0.0079,0.0,0.0,0.0,0.0,0.0,0.0,0.0,0.0,0.0,0.0,0.0,0.0,0.0,0.0,0.0,0.0037,0.011,0.0037,0.0036,0.0106,0.0035,0.0,0.0,0.0,0.0,0.0,0.0,0.0,0.0,0.0,0.0,0.0,0.0,0.0,0.0,0.0,0.0062,0.0088,0.0028,0.0,0.0,0.0,0.0,0.0,0.0,0.0,0.0,0.0,0.0,0.0,0.0,0.0,-0.0056,-0.0168,-0.0168,-0.0224,-0.0364,-0.0364,-0.0393,-0.0393,-0.0393,-0.0477,-0.0673,-0.0673,-0.0729,-0.0842,-0.0842,-0.087,-0.087,-0.087,-0.0898,-0.0898,-0.0898,-0.0898,-0.0898,-0.0898,-0.0898,-0.0898,-0.0898,-0.0898,-0.0898,-0.0898,-0.0898,-0.0898,-0.0898,-0.0898,-0.0898,-0.0898,-0.0898,-0.0901,0.5285,0.4857,0.4465,0.4465,0.4465,0.4151,0.3249,0.321,0.3132,0.2738,0.2426,0.2231,0.2231,0.2074,0.1722,0.1058,0.0392,0.0275,0.098,0.1019,0.1293,0.1918,0.1957,0.1957,0.1957,0.0667,0.0,0.0,0.0,0.0,0.0,0.0,0.0,0.0,0.0,0.0,0.0,0.0,0.0,0.0,0.0,0.0425,0.0962,0.0265,0.0411,0.0927,0.0255,0.0,0.0,0.0,0.0,0.0,0.0,0.0,0.0,0.0,0.0,0.0,0.0,0.0,0.0,0.0,0.0447,0.0717,0.0118,0.0,0.0,0.0,0.0,0.0,0.0,0.0,0.0,0.0,0.0,0.0,0.0,0.0,0.0,-0.0028,-0.0056,-0.0056,-0.0084,-0.0168,-0.0252,-0.0252,-0.0336,-0.0421,-0.0477,-0.0477,-0.0477,-0.0505,-0.0505,-0.0589,-0.0729,-0.0757,-0.0785,-0.0898,-0.0898,-0.0898,-0.0898,-0.0898,-0.0898,-0.0898,-0.0898,-0.0898,-0.0898,-0.0898,-0.0898,-0.0898,-0.0898,-0.0898,-0.0898,-0.0898,-0.0898,-0.0898,0.5479,0.5365,0.5287,0.5287,0.5287,0.5051,0.4343,0.4265,0.4109,0.3756,0.3363,0.3127,0.3127,0.2737,0.2347,0.1918,0.1449,0.1371,0.184,0.1879,0.2074,0.2464,0.2503,0.2503,0.2503,0.1644,0.1019,0.0628,0.0196,0.0,0.0,0.0,0.0,0.0,0.0,0.0235,0.0628,0.0628,0.0823,0.1175,0.1175,0.1449,0.1838,0.1352,0.1488,0.1808,0.1339,0.094,0.0594,0.0544,0.0539,0.0539,0.0539,0.074,0.1008,0.1008,0.1008,0.1008,0.1008,0.1008,0.1005,0.099,0.1282,0.1294,0.0244,0.0511,0.0893,0.0519,0.0717,0.0856,0.0506,0.0421,0.0336,0.0056,0.0,0.0112,0.0393,0.0421,0.0533,0.0812,0.0868,0.0756,0.0449,0.0364,0.0196,-0.0084,-0.0168,-0.0224,-0.0308,-0.0308,-0.0364,-0.0533,-0.0533,-0.0617,-0.0785,-0.0785,-0.0842,-0.0898,-0.0898,-0.0898,-0.0898,-0.0898,-0.0898,-0.0898,-0.0898,-0.0898,-0.0898,-0.0898,-0.0898,-0.0898,-0.0898,-0.0898,-0.0898,-0.0898,-0.0898,-0.0898,0.5715,0.5676,0.5637,0.5637,0.5637,0.5559,0.5359,0.5359,0.5285,0.5135,0.4538,0.4105,0.4066,0.3244,0.2737,0.2737,0.2581,0.2582,0.2698,0.2737,0.2776,0.2934,0.2934,0.2934,0.2934,0.2778,0.2309,0.1488,0.0784,0.0432,0.0432,0.0432,0.0432,0.0432,0.0432,0.0823,0.1488,0.1488,0.1879,0.2503,0.2503,0.2581,0.2698,0.2543,0.2587,0.2694,0.2541,0.206,0.144,0.1332,0.1282,0.1276,0.1276,0.1644,0.2114,0.2114,0.2114,0.2114,0.2114,0.2114,0.2114,0.2114,0.2179,0.1956,0.0665,0.1276,0.1903,0.1251,0.1598,0.1821,0.1231,0.1106,0.0933,0.0424,0.0309,0.0476,0.0981,0.1065,0.1232,0.1734,0.179,0.1595,0.1093,0.1065,0.0841,0.0336,0.0308,0.0252,0.014,0.0056,-0.014,-0.0421,-0.0561,-0.0673,-0.0785,-0.0813,-0.0814,-0.0814,-0.0814,-0.0842,-0.0898,-0.0898,-0.0898,-0.0898,-0.0898,-0.0898,-0.0898,-0.087,-0.087,-0.087,-0.0842,-0.0814,-0.0814,-0.0842,-0.087,-0.087,0.6222,0.6022,0.5864,0.5864,0.5712,0.5598,0.5559,0.5559,0.5559,0.5521,0.544,0.5282,0.5124,0.4222,0.3636,0.3636,0.2934,0.2817,0.3558,0.3636,0.3949,0.4623,0.4662,0.4662,0.4662,0.399,0.3207,0.2347,0.2231,0.2152,0.2152,0.2152,0.2152,0.2152,0.2152,0.2231,0.2347,0.2347,0.2387,0.2503,0.2503,0.2934,0.3558,0.2776,0.2966,0.354,0.2762,0.234,0.2163,0.2141,0.2054,0.198,0.198,0.2013,0.2114,0.2114,0.2114,0.2114,0.2114,0.2114,0.2114,0.2114,0.2581,0.2843,0.1993,0.1952,0.2059,0.1966,0.2015,0.2042,0.1944,0.1903,0.1811,0.1753,0.1625,0.1595,0.1679,0.1679,0.1706,0.179,0.179,0.1762,0.1679,0.1679,0.1651,0.1567,0.1567,0.1539,0.1539,0.1036,0.0729,0.0673,0.0056,-0.028,-0.0308,-0.0421,-0.0477,-0.0477,-0.0477,-0.0617,-0.0898,-0.0898,-0.0898,-0.0898,-0.0898,-0.0898,-0.0898,-0.0785,-0.0729,-0.0701,-0.0533,-0.0477,-0.0477,-0.0673,-0.0729,-0.0757,0.63,0.6219,0.6138,0.6138,0.6064,0.5948,0.5789,0.5747,0.5712,0.5598,0.5598,0.5559,0.5479,0.5087,0.481,0.481,0.4457,0.4341,0.4616,0.4652,0.4735,0.4979,0.5018,0.5018,0.5018,0.4659,0.4265,0.3915,0.2973,0.2503,0.2503,0.2503,0.2503,0.2503,0.2503,0.2776,0.3244,0.3244,0.3482,0.3915,0.3915,0.4112,0.4423,0.4031,0.4151,0.4409,0.3907,0.3407,0.3,0.2842,0.2776,0.2714,0.2714,0.2984,0.3322,0.3322,0.3322,0.3322,0.3322,0.3322,0.3322,0.3322,0.3589,0.3725,0.3389,0.3323,0.3201,0.2696,0.2931,0.3103,0.2682,0.2586,0.2442,0.211,0.1995,0.2082,0.2362,0.2414,0.2512,0.2775,0.2798,0.2685,0.2347,0.2291,0.2151,0.1818,0.179,0.179,0.179,0.154,0.1372,0.1287,0.098,0.0588,0.014,0.0084,-0.0112,-0.0393,-0.0393,-0.0477,-0.0617,-0.0617,-0.0617,-0.0617,-0.0617,-0.0617,-0.0617,-0.0561,-0.0533,-0.0533,-0.0449,-0.0393,-0.0421,-0.0505,-0.0533,-0.0533]}]]